ECMWFFLT1_sfc_dewp_000.txt.gz
Dewpoint
58 59 61 62 63 64 64 65 66 66 67 68 69 70 70 71 71 71 71 71 72 71 71 71 71 72 72 72 72 70 69 68 68 67 66 65 65 64 63 64 65 65 65 65 64 65 66 67 67 67 66 67 66 65 66 67 67 68 67 67 68 68 67
58 59 61 62 63 64 65 65 66 66 67 68 69 70 70 71 71 71 71 71 72 71 71 71 71 71 72 72 72 69 67 66 67 67 66 66 66 65 64 65 65 65 65 65 64 64 66 67 67 66 65 67 66 65 65 66 67 67 67 67 67 67 67
58 60 61 63 64 64 65 65 66 67 67 68 69 69 70 71 71 71 71 71 71 71 71 71 71 71 71 71 70 68 66 65 65 65 64 64 64 64 65 65 65 65 64 64 64 64 66 66 66 66 65 65 66 66 66 65 66 66 66 66 66 66 66
57 59 61 63 64 65 65 66 67 67 67 68 68 69 70 71 71 72 71 71 71 71 71 71 71 71 71 70 69 68 66 64 64 64 63 63 64 65 65 65 65 65 64 63 63 64 66 65 65 65 68 65 65 66 66 66 65 65 65 65 65 65 66
56 59 61 63 64 65 66 66 67 68 68 68 69 70 70 70 71 71 72 71 71 71 71 71 71 71 71 70 68 67 65 64 64 64 63 63 64 65 64 64 64 63 63 63 64 66 66 65 64 65 66 66 64 65 65 65 65 65 65 65 65 65 66
56 59 61 63 64 65 66 67 67 68 68 68 69 69 69 69 70 70 71 71 71 71 71 71 71 71 70 69 67 66 65 64 64 64 63 63 64 64 63 64 63 63 62 63 64 64 64 65 64 64 64 65 65 64 64 65 65 65 65 65 65 65 65
56 58 60 62 64 65 66 67 68 68 69 69 69 70 70 69 69 70 70 71 71 71 70 70 71 70 70 68 66 65 64 63 63 63 63 63 63 63 63 64 64 63 63 64 64 64 64 64 64 64 64 64 65 64 64 64 64 64 65 65 65 65 65
55 57 59 61 63 65 66 67 68 69 69 70 69 69 69 69 69 70 70 70 71 70 70 70 70 70 69 68 66 65 64 63 62 63 63 62 62 63 63 63 64 63 64 62 63 64 63 64 64 64 64 64 64 65 64 64 64 64 65 65 65 65 65
54 56 58 60 62 64 66 67 68 69 69 70 70 70 70 70 69 70 70 70 71 70 70 70 69 70 69 68 66 65 64 63 63 63 63 62 62 61 61 62 63 64 63 62 62 64 64 64 64 64 65 64 64 64 64 64 64 64 64 65 64 64 64
54 56 58 60 61 63 65 66 68 69 69 70 70 70 70 70 70 70 70 70 70 70 70 70 69 69 68 67 66 65 64 64 63 62 62 61 61 61 61 62 62 64 63 63 62 63 65 64 64 65 65 64 64 64 63 63 64 64 64 64 64 63 63
54 56 58 59 61 62 64 65 67 68 69 69 70 70 70 70 70 70 70 70 70 70 70 69 69 68 67 66 65 65 64 63 63 62 62 61 61 61 62 62 62 64 63 63 62 63 64 65 65 64 64 64 63 63 63 63 64 63 63 63 63 63 63
55 56 57 58 60 62 63 65 67 68 69 69 70 69 70 70 69 70 70 70 70 70 70 69 68 67 67 66 66 65 64 63 63 62 62 61 61 61 62 62 63 64 64 63 62 63 63 63 64 64 64 64 63 63 63 64 64 63 63 62 63 63 63
55 56 57 57 59 60 63 64 65 67 68 69 69 70 70 69 69 69 70 70 70 70 70 69 68 67 66 66 65 65 64 63 63 63 62 62 63 63 62 62 62 63 64 64 63 62 62 63 63 65 64 64 64 63 64 64 63 63 63 62 63 62 63
60 56 57 58 59 59 61 63 65 66 67 68 69 70 70 70 69 69 69 69 70 70 70 69 69 67 67 66 66 65 65 65 65 64 65 65 64 63 63 63 63 64 64 65 64 62 62 63 63 63 64 64 64 64 64 64 63 63 62 63 63 63 63
55 55 56 56 57 59 60 61 63 65 66 67 68 69 69 69 69 69 69 69 70 70 70 69 69 68 67 66 66 66 65 65 64 65 65 65 65 64 64 64 65 64 64 64 64 64 63 63 63 63 64 64 64 64 64 64 63 62 62 62 63 64 63
54 55 55 55 56 57 59 60 62 64 65 67 67 68 69 69 69 69 69 69 69 70 69 70 69 69 68 67 67 67 67 67 65 65 65 65 65 65 65 64 64 64 64 64 64 64 64 64 64 63 63 63 64 64 63 63 63 63 61 62 63 63 63
54 54 55 56 57 57 58 60 61 62 64 65 67 68 68 69 69 69 68 68 68 69 69 69 69 69 67 67 67 66 65 65 64 64 64 65 65 65 65 65 65 65 64 65 64 64 65 64 63 62 62 62 62 62 62 62 62 61 60 60 62 63 63
54 55 56 56 57 57 58 59 60 61 62 64 65 67 68 68 69 69 68 68 68 68 69 69 69 67 67 67 66 65 66 65 65 65 64 64 63 63 64 64 64 64 64 64 64 64 63 64 63 63 62 62 61 61 61 61 61 59 59 60 61 62 64
54 55 57 57 58 58 57 58 59 61 61 62 64 65 67 68 68 68 68 68 69 69 69 69 69 68 66 66 66 65 65 65 65 64 64 64 64 64 64 63 64 64 64 63 63 63 63 63 63 62 62 61 61 60 60 61 60 59 59 59 59 60 61
54 55 57 57 58 58 59 59 60 61 61 63 65 65 67 68 68 68 69 68 69 69 69 68 68 67 65 65 65 65 65 64 63 63 63 63 64 64 63 63 63 64 64 64 64 63 63 63 63 63 62 62 61 62 62 62 60 58 58 58 58 59 60
55 56 57 58 59 59 60 60 62 63 63 63 62 65 66 66 67 67 67 68 68 68 68 68 67 65 65 65 65 65 65 64 63 63 64 63 63 63 63 63 64 64 64 63 64 63 63 63 62 62 63 63 63 63 62 62 59 58 57 57 57 57 59
55 56 57 58 59 61 61 61 62 61 62 63 63 64 65 65 66 67 67 67 67 67 67 67 66 65 65 65 65 65 64 62 61 62 63 63 63 62 61 61 62 62 62 62 62 63 63 62 62 62 62 63 63 63 63 62 59 58 57 56 56 58 60
55 57 58 60 60 61 62 62 62 63 65 64 63 63 63 65 66 67 66 66 66 66 66 65 65 64 65 65 65 64 64 62 61 62 62 62 61 61 62 60 61 61 62 60 61 62 62 62 62 63 63 63 63 63 63 63 61 58 56 56 56 57 60
54 54 56 57 58 59 61 62 63 66 65 65 65 64 64 64 66 66 66 66 66 65 64 64 64 64 64 64 64 64 63 62 62 62 62 59 59 59 60 61 60 60 62 61 61 61 62 63 63 63 63 63 63 63 62 62 61 57 55 55 55 57 60
56 57 58 58 57 57 60 63 64 66 66 65 65 65 65 65 66 66 65 65 65 65 64 63 63 63 63 63 63 63 62 63 62 61 61 59 60 62 61 59 60 60 61 61 61 62 62 63 62 62 62 60 60 64 63 62 60 57 57 57 55 58 59
59 60 62 65 65 63 64 67 67 66 66 65 65 65 65 65 65 65 65 65 65 64 64 63 63 63 63 63 63 63 63 63 62 61 60 60 60 61 62 61 60 61 61 62 62 62 62 62 62 61 61 61 62 61 61 60 60 60 56 56 54 54 59
62 64 65 66 66 67 65 64 64 65 66 66 66 65 65 65 65 65 65 64 64 64 63 63 63 63 63 63 63 63 63 62 61 61 62 62 63 62 61 61 61 62 62 61 61 61 61 61 61 61 61 60 61 61 61 60 60 60 55 53 51 53 55
58 57 61 66 67 66 65 64 64 64 64 64 65 64 65 65 65 64 64 63 63 63 63 64 63 64 63 63 63 63 63 62 64 63 63 64 64 62 62 62 62 62 61 61 61 61 61 61 60 60 60 60 60 59 59 61 61 60 56 52 50 50 53
61 61 61 62 63 64 65 64 64 63 63 63 64 64 64 64 64 64 64 63 63 63 63 63 63 63 63 63 63 63 63 64 65 64 64 62 62 61 61 62 61 62 62 62 61 60 60 60 59 59 59 59 59 59 60 59 61 59 58 50 48 48 51
61 62 62 62 63 64 64 63 63 63 63 63 63 63 64 64 64 64 63 62 63 63 64 63 63 63 63 63 63 64 64 64 64 63 62 62 61 62 61 61 62 62 61 61 60 60 60 60 60 60 59 59 59 59 59 59 59 58 56 53 48 47 48
61 61 61 62 62 63 62 62 63 63 63 63 63 63 63 64 64 64 63 63 64 63 63 63 63 63 63 63 63 63 63 63 62 62 61 62 62 61 61 60 61 60 60 60 59 60 60 60 60 59 59 59 58 58 58 58 58 57 55 53 49 47 47
61 61 61 62 62 62 62 62 62 62 62 62 63 63 64 64 64 63 63 63 64 62 62 62 62 62 62 62 62 62 62 61 61 61 61 61 61 61 61 60 61 60 60 60 59 59 59 59 59 59 58 58 57 57 57 57 57 55 55 54 53 51 50
59 60 60 60 62 63 62 62 62 62 63 62 62 63 63 63 63 63 63 63 63 62 62 61 61 62 61 61 62 61 61 60 61 60 59 59 59 60 59 59 60 59 59 59 58 58 59 59 58 58 58 58 57 56 56 57 56 55 53 53 52 52 53
59 60 60 61 62 62 62 62 62 62 62 62 62 63 63 63 62 62 63 63 62 62 62 62 61 60 60 60 60 60 60 60 63 60 59 59 58 59 58 58 58 58 58 58 58 59 58 58 58 58 57 57 56 56 57 56 55 54 52 50 51 51 51
59 59 59 60 61 62 62 62 61 61 62 62 62 63 63 63 63 63 63 63 62 61 60 60 61 59 59 59 59 60 62 61 60 57 57 58 58 58 59 59 58 58 59 58 54 56 56 57 57 58 57 57 57 56 57 56 56 55 51 53 49 50 49
59 60 60 61 61 61 62 62 61 61 62 62 62 62 62 62 63 64 63 62 60 59 59 59 58 58 58 59 60 61 59 58 58 58 58 57 57 52 50 46 41 44 51 52 50 47 45 50 56 57 57 56 56 55 56 55 56 48 45 43 43 43 44
59 59 59 60 60 60 61 61 62 62 61 60 60 58 58 58 58 60 61 61 60 59 59 59 60 58 59 59 59 59 57 57 57 57 58 56 54 52 51 49 48 41 40 44 45 43 41 46 48 51 53 56 53 49 47 47 44 42 40 38 38 38 38
58 58 59 60 60 60 60 60 61 60 59 58 58 57 57 57 57 58 58 59 59 59 59 59 59 59 60 60 60 59 59 58 57 56 54 53 53 53 52 51 50 49 43 40 41 42 40 39 42 45 47 48 51 49 48 43 40 39 39 39 38 38 38

ECMWFFLT1_sfc_dewp_003.txt.gz
Dewpoint
60 60 61 63 63 63 64 66 66 66 68 69 70 70 70 71 72 73 73 74 74 75 75 76 76 76 76 75 76 77 76 76 76 75 75 74 74 73 73 71 71 71 70 69 69 69 69 71 71 70 70 70 68 68 68 68 68 67 67 69 69 68 67
58 59 60 62 63 64 65 66 67 67 68 68 69 70 70 71 73 72 73 74 74 75 75 75 75 75 75 76 76 76 77 76 76 76 75 74 74 73 73 72 71 71 71 70 70 71 71 70 70 70 69 70 68 68 67 69 69 68 66 69 69 68 68
56 58 59 61 62 63 66 66 67 67 67 67 68 69 70 72 73 73 73 73 74 75 75 75 76 75 75 76 76 76 76 76 76 75 74 73 73 71 72 72 71 71 70 71 71 70 70 70 71 70 69 69 67 68 68 68 69 68 68 69 68 66 68
58 58 59 62 64 65 66 66 66 66 66 67 67 68 70 72 73 73 73 73 74 74 75 75 75 75 75 75 76 76 76 76 75 74 73 73 72 72 71 71 71 70 70 70 69 70 70 70 70 70 70 70 69 68 67 67 66 68 66 67 67 67 68
58 59 59 61 62 64 65 65 66 67 65 66 68 70 71 72 72 72 73 73 72 73 74 74 74 75 75 75 75 75 75 75 74 73 73 72 73 72 70 69 69 69 69 70 70 70 70 70 69 70 70 70 69 69 69 68 67 69 66 67 66 66 64
57 59 60 60 61 62 63 64 64 65 65 65 67 69 70 70 69 69 71 73 73 72 74 75 75 75 74 74 74 74 75 74 73 73 72 72 72 71 70 69 69 68 68 70 69 69 70 70 69 69 68 67 66 66 66 68 66 66 65 68 67 64 62
56 59 60 61 61 62 63 63 63 64 65 66 66 68 68 67 68 69 69 70 71 73 72 73 73 74 74 74 74 74 74 73 72 72 71 71 71 71 70 70 70 69 69 70 69 69 69 70 70 70 69 68 67 67 67 67 65 66 68 68 68 68 67
57 58 61 62 61 62 62 63 64 64 66 67 66 67 67 67 68 68 68 69 70 70 71 70 72 74 74 74 74 73 72 72 71 71 70 69 69 69 69 68 69 69 70 68 69 69 68 69 68 69 69 68 69 69 68 67 68 65 67 67 67 66 66
56 60 60 60 62 62 62 65 66 66 68 68 68 69 68 68 68 68 69 69 69 70 70 70 70 73 74 74 74 73 72 71 71 70 69 68 67 65 64 66 68 68 68 67 66 68 68 68 68 69 69 68 68 69 68 69 68 68 68 67 67 65 63
57 60 62 60 61 62 64 66 67 69 70 70 70 70 70 69 70 69 69 69 69 69 70 70 70 71 73 73 73 72 71 70 68 67 66 64 65 65 65 66 65 66 66 65 66 66 67 67 68 68 69 68 69 69 69 68 68 68 68 68 67 66 65
58 61 63 62 63 65 67 67 68 70 70 71 71 70 71 71 70 70 70 69 69 69 69 70 71 70 72 72 70 70 69 69 68 66 65 65 64 64 63 63 63 66 64 64 65 65 65 67 67 67 68 67 68 68 68 68 68 68 68 67 68 68 66
60 61 62 63 65 66 66 68 70 71 71 72 71 70 72 72 71 70 70 70 69 69 70 70 70 70 71 71 70 69 69 70 68 66 66 65 66 63 63 62 64 65 65 65 65 65 66 66 67 67 67 68 68 68 69 69 69 68 67 66 67 67 67
59 61 62 61 64 65 68 69 70 71 71 71 70 71 72 71 71 70 72 72 70 70 70 71 71 72 71 70 69 69 69 69 69 68 67 66 67 67 66 66 63 64 65 65 66 66 66 67 67 67 67 67 68 68 69 69 68 69 68 68 68 68 67
60 59 60 63 64 65 66 68 70 71 71 71 71 72 72 71 71 72 72 72 71 70 70 71 72 72 72 72 70 70 69 70 71 70 69 68 68 68 66 67 66 66 66 67 66 66 66 66 66 67 67 67 67 68 68 68 68 68 69 69 68 68 68
58 57 59 60 63 65 66 67 69 70 70 71 71 72 72 71 72 72 73 72 72 70 71 72 73 73 72 72 71 71 70 70 69 69 69 67 67 68 68 68 66 65 66 67 66 66 66 67 67 67 67 67 67 67 67 67 67 67 68 68 68 68 67
57 58 57 59 62 63 65 66 68 70 71 71 71 72 71 72 72 72 71 71 71 72 71 72 73 73 72 72 72 71 71 70 69 69 68 67 67 66 67 67 65 64 65 66 67 67 67 66 66 66 66 67 67 67 67 67 67 66 62 64 67 68 67
58 58 58 59 62 63 64 66 67 69 70 71 71 71 72 72 72 72 70 70 70 72 72 72 74 73 73 72 72 71 71 70 69 69 68 68 68 68 68 64 62 61 63 66 66 67 67 67 66 65 65 65 66 66 66 66 66 62 61 61 62 65 67
60 60 59 60 62 62 63 64 66 67 68 69 70 71 72 72 72 72 71 71 71 70 71 72 73 72 74 73 73 72 71 70 69 69 68 68 68 67 67 66 63 63 64 66 66 66 67 67 67 67 67 66 65 65 66 66 63 60 60 60 60 62 65
60 61 61 63 63 63 61 61 63 67 66 67 68 70 71 72 71 72 73 73 73 73 71 71 71 73 73 73 72 70 70 69 68 68 67 67 67 66 67 65 65 65 65 65 66 65 66 67 67 67 67 66 66 65 65 64 62 59 59 59 59 60 62
59 59 60 60 62 62 63 64 63 65 66 68 68 67 69 71 71 72 72 72 73 72 72 72 72 73 73 72 70 69 68 68 67 66 66 66 66 66 66 65 65 66 66 66 66 65 65 66 67 67 66 66 65 65 65 65 61 59 57 57 58 58 61
59 59 60 61 62 61 63 64 66 66 66 64 64 68 69 69 69 70 70 71 72 73 73 73 73 73 71 71 70 69 68 66 65 65 65 65 66 67 66 65 66 66 67 67 67 65 66 67 66 67 66 66 66 65 65 64 60 58 57 57 57 57 59
57 57 57 60 63 64 65 62 63 62 65 65 67 66 66 67 67 68 68 69 71 72 72 73 73 71 71 70 70 69 67 66 65 65 65 66 67 66 65 65 65 65 68 68 68 67 67 67 67 64 64 66 66 65 65 64 60 59 58 57 56 58 62
54 57 59 64 62 64 66 64 65 64 68 66 65 66 65 66 66 67 68 68 70 72 72 72 71 70 70 70 69 68 67 66 65 66 65 65 65 65 64 64 64 65 67 66 66 65 65 65 63 63 64 65 65 65 65 64 62 57 56 56 56 57 64
57 59 60 61 65 65 67 66 66 67 64 66 65 66 67 67 69 71 71 70 71 70 71 71 70 70 70 69 69 68 68 68 67 65 65 65 65 64 63 64 64 64 66 64 64 62 62 63 64 63 64 64 65 64 65 64 61 55 55 55 55 59 65
57 58 61 61 62 63 65 67 67 66 68 67 66 68 70 70 71 71 71 71 70 70 70 70 69 69 69 69 69 68 67 67 66 66 65 64 63 62 62 62 63 63 63 61 62 61 63 63 62 63 65 63 64 64 64 65 61 55 54 54 54 60 67
63 62 61 62 63 66 69 70 70 68 69 71 71 70 71 71 71 71 71 70 70 68 68 69 69 69 69 69 68 67 66 66 66 65 63 61 62 64 64 62 61 60 59 59 59 60 60 60 61 64 64 64 66 64 63 64 65 64 53 52 53 56 64
65 65 63 63 66 68 69 69 70 70 70 70 70 69 70 71 70 71 70 70 69 68 68 68 69 69 69 68 67 66 65 65 64 63 63 64 64 63 61 61 61 60 59 57 57 60 62 63 64 65 65 64 65 64 63 63 63 63 53 51 53 54 58
63 64 65 67 68 67 67 67 70 70 69 71 70 70 70 71 71 70 69 69 69 69 67 68 68 68 68 67 66 65 64 63 65 65 65 64 63 63 62 61 61 61 60 56 61 64 64 65 66 66 67 67 66 65 65 64 63 66 56 54 52 51 54
65 65 66 67 67 67 66 69 70 71 70 69 69 68 69 69 70 69 69 69 69 67 68 68 68 68 67 66 65 65 64 64 66 65 63 63 63 62 63 62 62 63 64 65 65 65 65 66 66 67 66 66 66 66 65 65 65 59 62 51 49 48 50
64 64 64 63 64 66 67 70 71 70 69 67 67 68 68 71 70 69 69 69 68 67 67 67 67 67 66 65 65 65 64 64 65 64 64 64 64 64 65 65 65 65 66 66 65 65 65 66 67 66 65 63 63 63 64 63 65 58 56 55 49 48 48
64 62 60 64 62 67 68 70 69 68 67 67 68 68 70 71 70 69 70 69 68 68 67 67 67 66 66 65 64 64 64 64 65 65 65 64 63 63 64 64 65 65 66 66 65 65 64 63 63 64 64 64 63 62 63 63 63 62 58 53 50 48 48
64 64 64 65 67 67 67 66 67 66 66 66 67 68 69 70 70 69 70 68 68 68 68 67 66 66 65 64 64 65 65 64 65 65 64 63 63 63 64 64 64 64 64 63 62 63 63 64 63 62 62 62 62 64 63 63 62 62 61 57 54 52 50
65 65 65 65 67 67 67 66 64 65 64 65 65 66 65 68 68 70 68 67 67 67 67 67 66 66 66 65 66 65 64 65 63 63 62 63 62 61 61 61 62 63 64 63 61 62 62 61 62 62 62 63 63 63 63 62 62 61 60 60 58 57 54
64 65 66 66 66 67 67 68 66 66 67 67 66 66 65 65 66 67 67 66 66 65 66 66 66 65 66 65 65 65 64 64 64 63 62 62 59 62 61 62 62 60 61 61 62 62 62 61 62 61 61 61 61 62 63 62 61 60 59 58 58 58 57
64 65 66 66 66 67 67 68 67 68 68 67 66 67 67 67 67 67 67 66 64 66 65 65 65 65 64 64 63 63 65 63 64 61 61 60 62 62 56 57 60 62 63 61 60 62 61 62 61 61 60 59 61 61 62 61 61 60 55 60 54 56 55
65 64 65 65 66 66 67 67 67 68 68 67 67 67 67 67 66 65 64 63 64 65 66 65 64 63 62 62 62 61 62 62 62 63 63 63 65 59 54 47 42 47 57 57 51 47 44 44 60 59 57 57 61 62 59 58 60 51 49 46 46 45 44
63 63 63 64 65 66 66 66 67 68 68 67 67 67 67 66 65 65 64 65 65 64 66 65 64 63 61 62 61 62 62 62 62 63 64 62 61 58 55 52 52 40 40 46 48 44 41 43 43 46 52 62 57 53 45 46 43 43 43 42 41 40 39
63 63 63 63 63 65 66 66 66 67 67 66 66 66 66 65 66 67 64 65 64 64 66 65 64 64 63 62 63 63 63 61 61 60 59 59 58 58 56 55 56 55 43 40 41 41 39 39 41 45 49 51 56 53 52 44 40 40 41 40 40 39 38

ECMWFFLT1_sfc_dewp_006.txt.gz
Dewpoint
59 61 61 63 63 63 63 65 67 67 68 70 71 71 70 72 72 73 74 75 76 76 78 79 78 78 77 77 77 77 76 75 76 74 73 73 73 73 73 72 72 73 71 71 71 69 70 70 69 68 68 68 67 67 67 66 65 63 64 65 65 65 65
57 59 60 61 62 63 65 66 67 67 68 69 70 72 70 72 73 73 74 75 76 76 77 78 79 78 78 78 77 77 77 76 76 76 74 74 74 74 73 74 73 73 73 72 71 70 70 69 69 69 67 67 66 67 66 66 65 65 63 64 63 65 66
57 57 60 61 62 63 66 66 68 67 68 67 68 69 70 73 74 74 74 75 76 77 77 78 78 78 78 78 77 77 77 76 76 76 75 73 74 73 74 74 73 72 72 72 71 70 71 70 70 69 67 66 65 66 66 66 66 64 64 64 64 64 65
58 58 59 62 64 65 66 66 67 66 65 66 68 68 71 73 74 74 74 75 76 77 76 77 78 77 77 78 77 77 77 77 77 76 75 74 74 74 73 73 74 73 72 72 71 70 70 70 69 68 67 67 66 66 66 65 65 65 64 64 64 64 64
56 58 58 61 62 64 65 66 66 67 65 65 67 71 71 72 73 73 74 74 73 75 76 76 75 77 77 77 77 77 77 77 76 76 75 74 75 74 73 72 73 72 72 72 72 71 71 69 68 67 67 67 67 66 66 66 64 65 65 64 64 63 62
55 58 59 59 61 63 65 64 64 64 64 63 66 69 69 69 70 70 72 74 74 74 76 76 76 77 77 77 76 77 77 77 77 77 76 76 76 75 73 74 74 73 71 73 72 71 71 69 67 66 66 66 65 65 65 65 64 64 65 65 65 63 61
54 58 58 59 61 62 64 64 63 63 64 64 65 68 68 67 68 68 68 70 71 73 73 74 75 76 77 76 77 77 77 76 77 76 77 76 76 76 75 75 74 73 73 73 71 71 70 69 67 67 67 66 66 65 66 66 65 64 65 65 64 64 64
54 57 60 61 60 60 60 64 64 63 64 65 64 66 66 66 66 66 66 66 69 68 70 70 73 76 77 77 76 77 77 76 75 76 76 76 76 75 75 74 74 74 74 73 72 71 69 69 68 69 68 66 66 67 66 66 66 63 64 63 62 63 63
56 60 60 59 60 59 60 62 64 65 66 67 67 68 67 67 65 65 66 65 66 67 68 66 69 74 77 76 76 76 77 76 76 76 76 75 74 73 72 73 74 74 73 71 70 72 70 70 69 70 70 69 68 69 67 66 65 64 63 62 63 64 63
58 61 63 59 59 58 60 61 64 67 67 68 69 69 68 68 68 66 66 64 64 65 66 66 66 71 76 76 75 76 76 76 75 74 73 72 73 72 71 71 72 73 72 70 69 69 69 69 70 71 71 70 70 70 69 67 65 64 63 63 64 65 64
60 63 63 61 61 61 61 61 64 67 69 70 70 68 69 69 69 67 67 65 64 64 65 66 66 69 73 74 73 74 75 74 73 73 72 71 70 70 70 69 69 70 70 68 68 70 71 71 71 72 71 70 69 69 69 67 65 65 63 63 64 65 64
65 64 65 64 63 62 62 65 67 69 70 71 70 69 71 71 69 68 68 68 66 64 66 66 66 66 72 73 72 74 74 74 72 71 71 71 71 71 68 67 69 68 67 67 67 69 69 70 71 69 68 68 68 69 68 67 66 65 65 63 63 64 64
64 65 66 63 64 64 67 68 69 70 71 71 70 71 70 70 70 68 70 70 67 67 67 69 68 69 70 72 71 74 74 72 72 72 71 72 71 70 68 66 65 65 64 65 68 68 68 70 69 69 69 69 68 67 66 66 66 66 66 66 65 64 64
66 63 65 65 66 66 68 69 71 72 72 72 71 72 71 71 70 70 71 71 70 68 68 68 71 71 72 73 73 74 73 73 74 74 73 72 70 70 69 70 69 70 70 70 68 67 68 68 68 69 69 68 68 67 66 66 66 66 67 67 66 64 64
61 61 63 63 66 68 70 70 72 72 72 72 72 72 72 71 72 72 72 72 72 68 69 71 72 73 72 74 74 75 75 74 74 73 71 70 69 69 69 70 69 68 68 69 68 70 70 67 66 67 67 67 67 67 66 66 65 66 67 68 67 66 65
58 59 59 61 65 67 69 70 72 73 73 73 72 72 71 72 73 72 72 71 71 72 70 72 73 74 74 74 74 75 75 74 74 72 69 68 69 68 68 68 66 66 65 66 67 69 69 69 68 66 67 67 67 67 67 67 67 65 63 65 67 67 67
58 59 59 61 65 66 69 70 71 73 73 73 72 73 72 73 73 72 70 70 70 73 71 71 74 75 75 74 74 74 75 74 73 70 68 68 68 67 66 65 65 65 65 66 67 66 68 68 68 66 65 65 66 67 67 67 66 62 62 62 64 67 67
58 62 61 61 64 66 68 69 70 72 72 72 72 73 74 74 74 73 71 71 71 71 72 73 74 73 74 74 75 75 75 74 71 69 68 68 68 68 68 68 67 66 66 67 67 66 65 65 65 67 66 65 66 66 66 66 63 61 61 62 61 63 67
60 61 63 65 66 67 66 66 69 72 71 72 72 73 73 74 73 74 73 73 73 74 73 72 72 74 75 74 75 75 74 73 71 69 68 68 68 69 69 69 68 67 67 66 67 68 67 66 67 67 67 66 66 65 64 65 62 61 60 61 60 61 63
59 61 64 64 65 65 67 67 68 69 70 72 72 71 72 74 73 74 73 73 74 74 74 75 74 74 74 75 75 74 73 73 71 70 69 68 68 68 68 67 68 67 67 66 66 66 66 66 67 67 68 67 66 65 65 66 62 60 59 59 60 60 62
60 62 64 65 66 65 68 68 68 69 70 69 69 71 72 72 73 73 73 74 73 74 75 75 75 74 74 74 74 74 74 72 71 70 69 68 68 67 67 67 67 67 66 65 65 66 66 66 67 66 67 67 67 67 67 66 61 59 58 58 58 58 61
55 59 61 62 66 67 68 66 68 67 69 69 71 71 70 70 70 69 70 72 73 75 75 75 75 74 74 74 74 73 73 71 71 70 70 69 69 68 68 68 68 67 66 66 65 66 65 66 66 65 66 65 66 66 67 66 60 59 58 57 57 59 63
51 56 58 61 62 64 69 67 67 68 70 69 68 67 66 67 66 67 68 70 72 75 75 74 74 73 74 73 72 72 72 71 71 70 70 69 69 68 68 67 67 68 68 68 66 64 65 66 64 66 65 65 66 66 66 66 62 58 57 57 57 59 65
55 59 58 59 64 67 68 67 67 67 64 66 66 66 65 64 67 69 70 71 73 74 74 74 73 72 72 71 71 71 71 71 71 70 70 70 69 69 68 67 68 68 69 68 66 64 63 64 64 66 66 65 65 64 65 64 62 57 56 56 56 61 66
54 56 61 63 65 64 64 65 66 66 67 68 64 66 68 69 70 71 72 73 74 74 74 74 73 72 72 71 70 71 70 70 71 71 69 69 69 69 68 68 68 68 68 67 66 65 66 65 65 65 65 63 64 63 63 63 61 56 55 54 55 62 67
58 59 61 63 62 64 68 70 69 67 67 67 70 71 71 72 73 73 73 74 73 73 73 73 73 73 72 71 71 70 70 70 70 69 69 69 69 69 68 67 67 67 66 66 65 65 65 65 65 64 63 63 63 63 62 62 65 64 54 53 53 56 66
62 62 62 62 65 69 70 69 68 65 65 71 73 72 74 74 73 74 74 74 73 72 71 72 73 73 72 71 70 70 70 70 70 69 69 68 68 67 67 65 64 63 64 61 60 62 62 62 61 62 62 61 60 59 61 59 59 67 54 52 53 54 57
63 64 66 68 69 66 64 61 64 64 68 73 72 73 73 74 74 74 73 72 71 71 71 73 73 73 73 72 71 70 69 70 70 70 70 70 69 69 65 63 64 64 63 60 61 62 62 62 62 60 60 60 59 61 60 62 66 67 55 52 51 52 54
64 64 65 67 67 64 60 63 65 67 70 69 69 69 71 71 73 73 72 71 72 71 73 72 72 73 72 72 71 71 69 69 70 70 69 68 67 66 63 63 63 63 62 61 60 61 61 62 61 60 59 59 60 60 61 68 66 62 62 52 51 50 51
62 61 56 53 54 59 64 71 71 70 68 66 68 69 69 71 73 72 72 73 73 72 72 72 73 73 72 71 71 69 69 69 69 68 67 67 67 65 64 63 62 62 61 61 61 61 61 59 59 59 58 58 58 62 66 68 67 60 61 59 52 50 49
54 54 53 53 50 57 58 68 71 70 71 72 72 72 72 73 73 74 74 73 72 72 72 73 73 72 71 70 70 70 69 69 68 67 66 65 64 64 63 62 62 62 63 62 62 61 61 60 59 59 58 57 58 62 65 65 66 64 61 57 51 50 49
58 57 56 61 64 58 58 61 65 67 68 70 72 72 73 73 73 73 72 72 71 73 73 72 72 71 70 70 70 69 68 68 67 66 65 64 64 65 64 63 62 61 63 61 60 61 60 60 58 58 59 58 60 62 64 64 64 64 64 57 54 52 51
67 67 65 65 68 67 61 60 60 62 63 66 66 65 66 71 73 74 73 72 72 73 72 72 71 70 70 70 70 69 68 67 64 63 63 64 64 63 63 63 62 63 63 62 60 61 60 60 60 60 59 60 60 62 63 63 63 63 62 61 58 58 55
66 66 68 68 68 69 67 64 61 63 66 68 67 67 65 66 69 71 71 70 70 70 71 71 70 69 70 69 68 67 66 65 65 64 62 62 61 61 61 63 63 61 62 61 61 60 60 60 59 59 58 58 58 61 62 61 62 62 62 60 59 59 59
68 68 68 67 68 69 68 67 65 66 67 69 70 70 70 71 70 69 70 69 67 70 69 68 68 68 68 66 66 66 66 64 63 62 62 62 63 64 64 66 64 63 62 65 65 64 60 59 57 58 57 56 59 61 61 61 61 62 58 68 57 65 56
66 66 67 68 68 68 69 69 69 69 69 71 71 71 70 69 68 66 64 65 67 68 69 69 67 67 65 64 63 63 63 63 61 62 62 61 62 62 57 48 42 50 60 59 53 47 42 47 60 57 57 54 55 61 56 54 61 48 45 44 43 42 42
65 65 65 66 67 68 68 69 69 70 70 71 71 70 68 68 66 66 65 68 68 68 70 68 67 65 62 63 61 62 63 61 61 62 64 62 62 61 57 54 53 39 40 46 47 44 39 39 40 43 47 59 60 53 45 46 45 43 43 42 41 41 40
60 64 64 63 64 67 68 69 69 69 70 70 70 69 69 66 67 68 66 68 68 69 70 68 67 64 62 62 62 65 66 62 62 63 63 63 63 63 60 59 59 56 42 39 41 41 39 39 39 40 44 45 53 55 56 46 42 41 41 41 40 40 39

ECMWFFLT1_sfc_dewp_009.txt.gz
Dewpoint
56 56 53 57 61 60 61 63 64 63 64 64 65 65 65 67 69 71 72 73 75 75 76 76 76 75 75 75 75 75 75 74 74 74 74 73 73 73 72 71 71 71 69 69 70 69 70 70 68 67 67 67 66 67 67 67 66 64 64 65 65 65 65
54 52 49 54 59 61 62 63 65 64 64 64 65 67 65 67 69 69 72 73 75 75 75 75 76 76 75 76 75 76 76 75 75 75 74 74 74 74 72 73 72 72 72 71 70 71 70 68 68 67 66 66 66 67 66 67 66 65 64 65 64 64 64
49 53 53 56 58 61 63 62 65 65 66 64 65 65 66 69 69 71 72 72 74 76 75 76 77 76 76 76 76 76 75 75 74 74 74 72 73 71 72 73 72 71 71 71 71 69 70 69 69 68 67 66 66 67 67 67 66 65 64 65 64 63 64
50 54 54 57 61 64 63 62 64 64 64 64 65 65 67 70 70 71 71 72 74 75 76 76 76 76 76 76 76 76 76 75 75 74 73 72 72 72 72 73 73 72 70 70 69 69 70 69 68 68 68 67 67 66 66 66 65 65 65 65 64 64 64
44 53 56 55 59 62 63 62 62 65 63 63 65 69 68 68 69 69 70 71 72 75 74 75 74 76 76 76 75 75 76 76 75 74 73 73 73 73 72 71 72 70 70 69 70 71 71 70 69 68 68 68 66 67 66 66 66 66 66 67 66 64 63
40 51 55 54 59 61 63 62 61 61 62 62 65 68 67 66 66 67 68 71 72 73 75 75 75 76 76 76 75 75 76 77 76 76 74 74 73 72 72 71 70 70 67 70 69 70 71 70 69 69 68 66 65 65 65 65 64 64 66 68 67 66 62
40 49 52 55 59 61 62 63 62 62 62 62 63 66 66 65 66 67 67 69 70 72 72 72 73 74 76 76 76 76 76 75 76 75 75 73 73 73 72 72 71 70 69 71 70 71 70 70 69 69 68 66 66 65 67 68 66 65 65 67 67 67 66
40 43 51 57 57 59 61 63 63 63 63 61 59 62 64 64 65 65 66 66 67 66 69 69 70 74 76 77 76 76 76 76 76 76 75 74 73 73 72 72 72 72 71 69 71 71 70 71 68 68 67 66 67 67 66 67 67 63 65 66 66 66 64
39 47 50 53 56 57 59 63 64 64 65 63 60 63 64 64 63 63 64 63 64 64 65 66 67 71 76 77 77 77 77 76 76 76 76 74 73 70 70 71 72 72 72 69 69 71 71 70 68 69 68 67 67 68 67 67 67 67 67 66 66 65 63
45 51 56 55 56 56 60 61 65 67 66 66 64 66 65 64 63 61 61 60 61 61 62 64 62 67 74 76 76 76 77 76 76 75 74 72 72 70 68 69 72 73 72 70 67 70 71 71 70 69 70 68 67 67 67 67 67 66 66 65 65 65 66
51 55 56 57 61 61 62 61 65 69 69 70 68 62 67 65 61 59 60 58 58 60 59 62 60 61 70 74 74 74 76 75 74 74 73 71 70 69 67 68 69 71 71 69 67 71 70 71 70 70 70 68 67 68 68 67 68 67 65 63 63 64 63
60 57 64 65 64 63 62 67 68 71 71 72 67 62 69 69 61 58 59 59 57 56 60 60 61 60 68 73 73 74 75 75 74 73 72 71 68 68 67 68 70 70 69 68 68 71 70 70 70 70 71 70 69 69 70 70 69 67 65 63 62 63 63
62 65 67 64 65 64 67 69 68 69 71 68 66 66 66 65 63 58 64 63 58 56 57 62 60 65 66 72 72 74 75 74 74 74 73 71 71 71 66 65 68 65 64 67 69 70 70 71 71 72 72 71 71 71 70 69 67 66 65 64 64 64 65
65 66 66 66 66 66 66 67 68 69 70 69 68 69 68 67 64 62 63 62 60 56 57 59 63 65 68 72 74 74 74 75 75 74 73 72 73 73 69 71 70 69 69 70 71 70 71 71 72 72 72 71 71 70 69 68 66 65 65 65 65 65 65
58 61 64 64 68 68 68 66 68 69 69 70 70 70 70 69 68 68 67 64 65 57 58 63 67 67 66 71 74 75 76 76 75 75 74 73 74 73 72 72 72 70 72 73 72 71 71 71 70 70 70 69 67 67 66 65 63 63 63 64 65 66 65
42 60 59 63 66 67 69 69 69 70 71 73 72 71 69 70 71 68 67 66 64 63 59 65 69 71 68 68 73 75 76 76 76 75 75 74 74 73 73 73 73 73 73 72 72 71 70 70 70 67 66 66 66 65 64 63 63 62 60 63 66 67 66
32 33 35 46 57 67 69 70 70 71 72 73 73 72 71 71 71 70 67 67 65 66 61 62 72 70 70 72 74 76 76 77 76 75 76 76 75 75 74 73 73 73 73 72 72 71 70 70 68 64 63 62 61 62 64 63 62 60 60 61 64 67 67
36 42 41 42 49 65 70 70 71 72 73 72 72 73 72 73 71 70 68 68 67 65 63 66 70 70 74 72 76 77 76 76 75 75 75 75 74 74 74 73 73 73 73 72 72 72 71 69 68 66 63 62 62 64 64 63 60 59 60 61 62 64 68
36 35 39 56 58 64 66 68 71 73 72 72 72 72 72 73 71 71 71 72 71 71 66 67 70 73 75 75 76 77 76 75 74 74 74 74 74 73 73 72 72 71 70 70 72 71 71 70 67 65 62 62 63 62 61 61 60 60 60 61 61 62 65
35 35 35 50 51 49 64 68 68 71 73 74 73 71 72 74 72 72 70 70 72 71 72 73 73 75 75 76 76 76 75 74 73 73 73 73 73 73 72 72 71 71 70 70 71 71 69 69 67 66 65 65 65 64 62 63 61 60 59 59 60 61 64
43 42 50 56 59 55 67 69 69 71 73 71 71 72 72 72 72 72 69 71 72 74 76 75 76 77 77 76 76 76 75 74 73 73 73 73 73 73 72 72 72 71 71 69 69 69 69 67 67 66 66 65 65 64 62 61 59 59 59 59 59 60 63
33 34 56 54 60 67 70 68 69 67 72 72 70 70 71 71 70 69 67 70 73 74 75 75 76 76 76 75 76 75 74 73 73 73 72 72 72 72 72 72 72 71 71 70 68 68 68 68 65 64 64 65 65 65 64 62 58 58 59 58 58 60 64
20 45 53 60 62 66 70 70 69 68 73 71 70 71 70 69 70 70 71 71 73 75 75 75 76 75 75 74 75 74 75 74 73 72 72 71 72 71 70 71 71 71 71 69 68 66 66 66 64 66 66 66 66 65 64 63 61 57 57 56 57 60 65
41 44 47 55 64 64 70 69 68 70 71 70 71 71 71 72 72 73 74 74 74 75 75 75 74 74 74 74 74 75 75 74 72 72 71 71 71 71 71 70 70 69 69 68 67 65 64 64 65 64 65 64 64 63 64 63 62 55 55 55 56 60 65
46 44 48 55 60 61 67 69 69 68 71 71 70 72 74 74 74 73 73 74 74 75 75 74 74 74 73 74 74 75 74 74 73 72 71 71 71 70 70 69 69 69 69 68 67 67 67 65 65 65 66 63 63 64 64 64 61 55 55 55 55 60 66
51 48 54 56 58 63 69 71 70 71 68 68 72 73 73 72 72 73 73 75 74 73 74 74 74 74 73 72 72 74 74 73 74 73 72 71 71 70 70 70 69 69 69 68 68 67 67 66 66 65 65 65 65 67 65 64 65 64 54 54 54 56 65
54 54 55 54 59 68 69 69 69 69 69 72 72 70 71 72 71 73 75 75 74 73 73 74 74 73 73 73 71 71 71 71 72 71 72 71 71 70 69 69 69 69 69 67 66 67 66 66 65 65 65 65 65 65 65 65 65 67 54 53 53 55 59
56 54 56 62 68 68 68 66 69 68 67 70 69 70 71 72 73 74 74 73 73 73 74 74 74 73 73 73 72 71 71 71 72 72 70 71 71 70 70 69 69 68 67 62 63 64 65 67 66 64 64 65 64 64 64 65 64 66 57 54 53 53 55
60 58 59 64 66 66 65 66 65 65 68 68 69 70 72 73 74 74 72 73 73 72 74 74 74 74 73 73 72 72 71 71 72 71 71 71 70 69 69 67 65 64 66 66 65 64 64 63 63 62 61 62 63 62 63 64 66 62 64 54 52 52 53
62 62 66 66 65 66 64 67 70 71 71 69 70 71 73 74 73 72 73 73 73 73 74 74 74 74 73 72 72 71 69 70 70 70 70 70 69 68 67 66 67 67 67 66 64 63 63 63 62 60 58 58 60 60 61 65 67 61 58 57 52 51 50
67 67 65 63 61 65 67 69 69 66 64 62 64 65 69 72 72 73 73 73 74 74 74 74 74 73 72 72 71 70 69 69 69 70 69 69 68 67 65 67 67 65 66 65 62 61 62 62 61 61 59 57 60 60 60 62 65 63 59 56 53 51 50
62 61 60 61 62 61 59 57 58 59 60 63 66 68 71 71 72 73 75 75 75 75 75 74 73 72 72 71 70 70 69 69 68 67 67 67 66 66 66 66 64 63 63 62 60 62 62 62 60 59 60 59 57 57 60 64 64 64 60 56 55 54 52
58 60 61 61 63 66 67 68 68 69 69 69 68 67 68 72 74 75 75 75 75 75 74 74 73 71 71 71 70 70 69 69 66 65 64 66 65 65 65 64 63 62 62 60 59 61 61 61 60 59 57 58 57 57 60 63 62 63 61 60 59 60 57
68 68 62 60 60 61 59 59 61 62 62 62 59 60 63 70 72 73 73 72 72 71 72 71 71 71 71 70 69 69 68 67 67 65 64 63 63 63 62 62 61 60 62 60 60 59 59 59 57 57 56 55 55 57 60 61 62 62 63 61 60 61 60
69 70 72 70 66 63 62 61 62 65 65 65 64 65 68 70 71 71 72 72 70 72 72 71 70 71 70 69 68 67 68 65 65 64 64 64 64 68 70 67 62 61 63 66 66 64 60 61 59 58 56 54 57 57 61 61 62 60 57 66 56 61 59
66 66 68 70 71 71 69 70 70 70 71 71 71 70 70 69 68 67 65 68 71 72 72 71 70 70 67 66 65 65 64 64 63 64 63 62 64 62 56 48 43 50 66 59 51 46 44 50 60 56 58 57 62 62 60 59 61 49 49 49 50 50 48
65 66 67 68 68 70 71 72 72 72 72 71 70 68 67 67 65 65 64 69 69 70 71 70 68 65 62 63 63 63 64 63 62 64 64 62 62 62 61 58 55 41 40 46 47 43 40 39 41 44 47 60 58 55 46 48 46 44 44 45 44 42 42
63 63 64 66 68 70 70 71 71 71 71 70 70 68 68 65 66 68 68 69 69 70 70 69 67 64 63 62 62 66 66 62 62 62 61 61 63 63 63 62 61 58 44 40 42 41 39 39 39 39 41 44 52 57 57 48 43 42 42 42 42 41 41

ECMWFFLT1_sfc_dewp_012.txt.gz
Dewpoint
56 57 58 60 60 60 60 63 64 64 66 67 68 67 66 68 70 72 72 74 75 75 76 77 77 76 76 76 77 77 77 77 77 76 75 75 75 74 75 74 74 75 74 74 73 73 75 73 73 72 71 71 71 70 71 71 71 70 70 70 70 72 68
50 53 55 56 58 58 59 62 65 64 65 66 67 69 67 68 70 71 72 74 75 75 76 77 77 76 76 76 77 77 77 76 77 76 76 76 76 76 75 75 75 75 75 74 75 75 74 73 72 71 69 70 69 70 69 70 71 70 69 70 69 70 69
52 54 55 54 56 59 62 61 63 64 65 65 65 66 67 69 71 72 73 74 75 76 76 76 76 76 76 77 77 77 77 76 76 76 75 75 75 72 74 76 75 74 73 74 74 73 72 72 72 71 70 69 67 70 70 70 70 69 70 69 69 67 69
54 52 53 56 59 61 62 62 62 61 61 63 63 64 68 71 71 72 72 73 74 75 76 76 76 75 76 77 76 76 76 76 76 75 74 74 74 74 75 75 75 74 74 73 72 71 70 72 70 71 70 70 69 69 68 68 68 69 69 69 68 68 68
51 53 54 56 55 61 60 60 61 63 61 62 63 67 68 70 70 70 72 72 72 74 75 75 74 74 76 76 76 76 76 76 76 75 75 75 75 75 74 72 73 72 73 72 73 73 72 72 70 70 69 70 69 69 69 69 68 69 68 69 68 68 67
49 54 56 53 52 57 60 58 57 57 61 63 63 65 66 66 66 66 68 71 72 72 75 76 75 76 75 75 75 75 76 76 76 76 75 75 75 74 74 73 73 72 72 72 72 72 72 71 70 69 68 68 67 67 67 68 67 67 67 68 69 67 66
54 55 55 54 54 54 57 57 55 56 62 63 63 64 64 65 65 65 66 68 70 73 73 74 74 74 75 75 76 76 76 76 76 75 75 75 74 74 74 74 74 72 71 72 71 71 71 71 71 70 69 67 68 67 67 67 67 67 67 67 68 68 68
52 54 57 57 54 51 53 57 59 61 63 65 63 62 63 63 64 64 65 67 69 71 72 72 73 74 75 75 76 75 76 75 75 75 75 74 74 74 74 73 74 73 72 71 72 72 70 71 70 70 70 69 69 68 68 68 68 67 67 67 67 66 66
55 57 57 52 51 49 53 58 59 62 63 64 65 65 64 64 63 63 64 66 69 70 72 72 72 73 76 75 75 75 75 75 75 75 75 73 72 70 71 72 73 73 71 70 70 72 71 71 70 71 71 70 69 69 68 69 68 67 67 67 67 66 64
57 58 57 53 52 52 57 61 61 63 63 63 65 67 66 65 65 63 64 67 68 68 70 71 71 72 75 75 75 75 75 76 76 74 72 71 70 69 69 70 71 72 71 70 69 70 72 72 72 71 71 70 70 69 68 69 68 67 67 67 67 66 66
56 60 58 54 57 58 60 59 61 64 64 66 68 66 68 67 66 64 65 66 66 67 70 71 71 71 73 73 72 73 74 74 74 74 73 71 70 69 69 69 69 70 70 69 69 70 71 72 72 72 71 70 70 69 68 68 68 68 66 67 67 67 67
61 59 61 60 62 63 60 62 64 66 68 67 67 67 69 69 67 64 65 65 65 66 69 70 68 69 71 73 72 73 73 74 72 72 73 72 71 70 69 68 70 70 69 69 68 70 71 72 72 71 71 70 70 69 68 69 68 68 67 66 66 67 66
57 63 62 61 62 63 66 67 66 66 69 72 68 67 68 68 67 65 67 66 65 66 67 68 68 69 71 73 72 74 74 73 73 74 73 73 72 72 70 69 69 69 69 68 68 69 70 71 72 72 71 71 70 69 69 69 68 68 68 67 66 66 65
66 62 61 66 66 66 67 68 70 70 71 71 69 67 66 67 66 67 68 66 65 64 64 65 67 69 71 73 74 75 75 75 76 76 75 75 74 73 72 70 70 70 71 71 70 69 69 71 72 72 71 70 69 69 69 69 68 69 68 67 65 64 64
60 58 64 64 69 71 72 72 75 75 73 72 70 68 66 66 66 68 68 66 65 61 62 64 66 67 70 73 74 75 76 76 76 76 76 75 74 74 73 71 70 71 73 73 72 70 69 71 73 72 71 70 69 68 68 68 68 69 67 66 65 65 65
47 58 61 63 67 69 73 73 73 74 74 74 71 70 65 66 68 66 65 64 62 62 61 65 66 66 66 69 73 75 76 77 77 76 76 75 74 74 73 72 71 71 73 73 72 71 71 72 73 71 70 70 69 68 68 69 70 66 62 63 65 65 65
38 37 54 64 70 68 70 71 72 73 73 73 73 72 68 68 68 68 62 61 59 62 61 64 67 67 66 69 73 75 77 77 77 77 76 75 75 74 73 72 71 72 73 73 72 71 73 73 72 71 70 71 69 69 70 70 68 61 60 61 63 65 66
42 60 52 57 64 68 71 70 71 71 72 71 71 73 71 71 70 67 63 60 58 57 59 64 65 66 68 70 74 76 77 77 77 77 76 75 75 74 74 73 73 72 73 73 72 73 74 72 72 72 72 71 70 69 68 67 63 58 59 60 61 64 67
44 44 60 57 65 69 68 67 69 71 69 68 69 70 70 72 69 69 67 64 62 61 58 61 64 68 69 71 75 77 77 77 77 77 77 76 75 75 74 74 74 74 74 74 75 74 73 73 73 71 71 70 69 66 66 65 59 58 58 59 59 61 65
41 38 40 50 61 67 69 69 69 70 69 71 71 68 69 70 70 71 69 67 66 64 63 63 68 70 70 73 75 77 78 78 77 77 77 76 76 77 76 76 75 75 75 74 74 74 72 72 72 71 70 69 68 67 65 64 58 57 57 58 59 60 63
51 46 45 50 69 67 72 72 73 73 73 70 69 72 72 71 70 71 69 69 69 69 68 66 70 72 72 74 76 79 79 78 77 76 76 76 77 76 76 75 75 75 73 72 72 73 72 71 71 70 69 67 66 66 65 63 58 57 57 57 58 59 62
42 44 44 43 64 65 72 71 72 71 73 71 72 71 71 70 69 68 68 67 69 71 71 70 73 74 75 79 79 78 78 78 77 77 77 76 76 76 75 75 75 74 73 72 71 72 71 71 70 69 67 67 66 65 67 64 57 57 57 57 57 59 65
32 37 42 51 51 65 72 70 72 71 75 74 71 71 70 70 69 69 69 67 67 73 73 74 76 76 78 79 77 76 77 77 76 76 75 75 75 75 74 74 74 74 74 72 70 69 69 69 68 69 67 67 67 67 67 66 59 56 56 56 57 59 65
30 35 36 37 50 57 73 71 71 73 73 73 72 70 70 70 71 72 72 70 72 72 74 76 76 77 77 77 76 76 76 76 76 75 75 75 74 74 74 73 74 73 73 72 70 68 68 68 69 68 66 66 66 65 66 64 62 55 55 56 56 60 66
25 25 31 36 39 43 68 72 71 69 73 72 70 71 74 74 73 73 73 72 73 73 75 76 76 76 77 77 76 76 76 75 75 74 74 74 74 73 73 73 73 73 73 72 71 71 71 69 69 68 67 65 65 66 65 64 62 54 55 55 55 61 67
40 35 33 35 37 52 67 75 73 70 69 71 72 73 74 74 74 73 73 73 74 72 73 75 76 77 76 77 76 76 76 75 75 74 74 73 73 73 73 73 72 72 71 70 70 70 69 69 67 67 65 65 67 69 65 64 66 59 54 54 54 58 67
57 49 47 37 42 67 73 73 72 68 66 71 74 73 74 75 74 73 74 75 74 72 72 75 76 76 76 77 76 75 75 75 75 74 73 73 72 72 71 71 71 71 71 68 67 69 70 68 66 66 67 64 66 65 65 65 67 62 53 53 54 56 60
56 55 41 53 64 66 70 68 70 70 68 74 75 74 74 75 74 75 76 75 75 75 75 76 76 76 77 76 75 75 74 74 74 73 72 72 72 72 71 71 71 71 69 67 68 69 69 69 68 67 67 67 66 68 68 68 66 64 54 53 52 54 56
62 56 57 60 72 67 67 68 68 67 70 72 72 71 74 74 75 76 76 76 77 76 76 75 75 75 76 75 75 74 74 74 73 72 72 72 72 71 71 71 70 70 70 70 69 69 68 68 67 67 67 68 68 68 68 69 69 63 61 53 52 52 53
62 59 54 51 59 66 67 69 70 71 71 69 71 72 74 74 76 76 76 77 77 76 75 75 75 74 74 73 74 73 73 73 73 73 73 72 72 72 72 71 70 70 70 70 69 69 68 68 67 66 64 64 65 65 66 69 68 63 60 58 53 52 52
60 60 55 55 53 68 68 71 73 72 72 73 75 75 75 77 76 75 76 76 76 75 75 75 74 74 73 73 73 72 73 73 73 73 73 72 72 71 70 70 71 70 70 69 69 68 67 67 65 65 64 65 64 64 66 68 68 64 60 58 54 53 52
64 63 60 59 68 69 68 69 70 70 71 73 75 76 76 75 75 75 75 76 75 76 75 74 74 73 73 72 72 72 72 71 71 71 71 71 71 71 71 69 68 68 68 68 66 68 67 66 64 63 63 63 62 63 65 67 65 62 59 57 56 54 52
67 67 68 68 69 69 68 66 66 68 69 72 73 72 72 73 75 75 76 76 75 76 75 74 73 72 72 71 71 71 71 70 69 68 69 70 69 69 69 69 67 67 66 66 63 64 65 63 63 62 60 61 61 62 65 66 65 62 60 59 58 57 56
67 68 68 69 71 71 70 70 68 68 70 71 72 72 71 72 74 75 75 74 74 74 74 73 72 71 70 69 69 69 69 68 69 69 67 67 67 65 65 67 65 64 66 64 64 64 63 62 62 61 60 60 59 62 65 65 64 62 61 60 59 59 58
68 68 69 70 71 69 68 67 67 69 68 69 70 72 74 75 75 73 75 74 73 73 72 71 70 71 69 68 68 67 69 67 68 67 67 66 63 56 54 61 66 65 61 57 57 63 61 62 61 60 57 57 58 61 63 63 64 63 57 61 56 59 58
68 68 67 67 68 69 69 68 67 68 69 71 73 73 73 73 73 72 72 72 72 72 71 71 69 68 67 67 66 66 66 65 64 65 65 64 61 59 55 49 42 51 62 57 53 48 48 53 59 58 62 60 61 61 61 62 63 57 52 51 50 51 52
67 68 70 70 70 70 71 72 73 72 72 71 70 69 69 70 69 70 70 72 71 70 71 71 70 67 65 65 64 64 65 63 63 66 67 64 62 61 60 57 54 42 42 47 47 44 41 41 42 45 48 63 59 56 50 55 51 50 50 48 48 47 46
66 67 68 69 70 71 71 71 71 70 69 69 68 67 67 63 67 72 70 71 71 71 72 71 70 67 65 65 65 66 66 63 64 64 65 65 64 64 63 60 59 57 45 40 43 43 41 40 40 40 43 46 55 56 56 49 46 46 45 44 43 42 42

ECMWFFLT1_sfc_dewp_015.txt.gz
Dewpoint
48 52 53 54 57 58 59 62 63 63 64 65 66 65 65 66 67 68 70 71 72 72 72 73 73 73 73 73 73 74 75 75 74 74 73 73 72 72 71 72 72 72 72 72 72 72 71 72 71 70 71 69 64 65 67 66 66 67 65 67 67 66 65
49 52 55 56 57 58 61 62 63 63 64 65 66 66 65 66 67 68 70 71 72 72 73 73 73 73 74 74 74 74 75 74 74 74 73 73 72 73 72 72 73 72 72 72 72 72 71 71 71 70 71 68 65 65 66 67 67 66 64 65 66 66 65
50 52 56 57 57 58 59 62 63 64 64 64 66 66 65 66 67 68 70 71 72 72 73 73 73 73 73 74 74 75 75 75 74 74 73 73 72 73 73 72 73 72 73 72 72 71 72 71 70 70 70 67 66 66 66 67 67 66 65 64 65 66 65
50 53 56 57 57 58 58 60 62 63 63 64 65 66 66 66 67 69 70 71 72 72 73 73 73 73 73 74 74 75 75 75 75 74 74 73 72 73 73 73 73 72 73 72 72 71 72 70 70 69 70 66 67 67 66 66 67 66 65 65 64 65 66
51 53 55 57 57 57 58 59 61 63 63 63 65 66 66 66 67 69 70 71 71 72 73 73 73 73 74 74 74 75 75 75 75 74 74 73 73 73 73 72 73 72 72 72 72 72 70 70 70 68 68 66 67 67 66 66 66 66 66 64 64 65 64
51 53 55 56 57 57 58 58 59 61 62 63 64 66 66 66 67 68 69 71 72 72 73 74 74 74 74 74 74 75 75 75 75 74 74 73 73 72 72 72 72 72 72 72 72 71 70 70 69 68 67 66 66 66 66 66 66 65 66 65 64 65 64
51 53 54 55 56 57 58 58 58 60 62 62 64 66 66 66 66 67 69 70 72 72 73 73 74 74 74 74 74 74 74 74 74 74 74 73 73 72 72 72 72 72 71 71 71 70 69 69 68 68 67 66 67 66 66 66 66 65 65 66 64 64 65
49 51 54 54 55 55 56 58 58 59 62 63 63 65 65 66 66 66 68 69 71 72 72 73 74 74 74 74 74 74 74 74 74 74 74 73 73 72 72 72 72 72 71 70 71 70 69 69 69 68 67 66 67 66 66 66 66 65 64 66 65 64 65
50 52 53 53 54 54 55 58 59 59 60 61 62 65 65 66 66 66 67 69 70 71 72 73 73 74 74 74 74 74 74 74 74 74 73 73 73 72 72 72 72 71 71 70 70 70 70 69 69 68 67 66 67 66 66 66 66 65 64 64 65 64 64
51 52 53 53 53 54 56 57 59 59 60 60 61 64 65 66 66 66 66 68 69 70 72 72 73 73 73 73 74 74 74 74 74 73 73 72 73 72 72 72 72 72 71 71 70 70 70 69 69 68 68 66 66 66 66 66 66 65 64 64 64 64 64
52 53 53 53 53 54 57 57 58 59 60 61 62 64 64 65 66 66 66 66 68 69 71 72 72 73 73 73 73 73 74 73 74 73 72 72 72 72 72 71 71 71 71 70 70 70 70 70 69 69 68 67 66 66 66 66 65 66 65 64 64 64 63
53 53 54 54 53 56 56 58 59 60 62 64 64 64 64 65 65 65 65 65 66 68 69 71 72 73 73 73 73 73 73 73 73 73 72 72 72 71 71 71 71 71 71 70 70 69 70 70 70 69 68 68 67 67 66 66 65 65 65 65 64 64 63
53 53 54 53 54 56 57 59 60 63 64 64 64 65 65 64 64 65 65 65 65 67 69 70 71 72 73 73 72 73 73 73 73 73 73 72 72 71 71 70 70 70 71 70 69 69 69 70 70 70 69 68 68 67 66 66 66 65 65 65 65 65 64
60 55 53 53 54 56 57 59 59 61 63 63 64 65 66 65 64 64 65 64 65 67 69 70 71 72 72 72 72 72 73 73 73 73 73 72 72 71 70 70 70 70 70 71 69 69 69 69 70 70 70 69 68 68 67 67 66 65 65 65 65 65 65
54 53 52 54 56 59 59 59 60 61 63 63 63 63 65 66 65 65 65 64 65 66 68 70 71 71 72 72 72 72 72 73 73 73 73 73 72 71 70 70 69 70 70 70 70 69 68 69 70 70 70 69 69 68 67 67 66 66 65 64 65 65 65
52 52 51 54 57 59 59 59 60 61 63 63 63 64 64 66 66 65 65 64 65 66 67 69 71 71 71 72 72 72 72 72 73 73 73 73 72 72 71 70 69 69 70 70 69 69 68 69 70 70 70 70 69 68 68 67 67 65 61 63 65 65 65
52 52 51 54 58 59 59 60 61 62 63 64 64 64 65 66 66 65 64 64 65 65 66 68 70 70 71 72 72 72 72 72 72 72 73 73 73 72 71 71 70 69 70 70 70 69 69 69 70 70 70 70 69 68 68 67 67 62 61 62 63 64 63
56 60 60 60 62 61 63 63 65 65 63 63 66 66 65 67 67 66 65 65 65 65 66 67 69 70 70 71 72 73 73 72 72 72 72 73 73 73 72 71 71 70 70 71 71 70 70 69 70 70 70 70 69 68 67 67 64 60 61 61 61 63 63
55 58 60 61 61 63 63 65 67 68 66 64 66 68 66 66 67 67 66 66 65 65 65 66 67 68 69 70 72 73 73 73 73 73 73 73 73 73 73 72 71 70 70 71 71 71 70 70 71 71 70 70 69 68 67 66 62 60 60 61 60 61 63
43 55 61 61 63 65 66 67 68 69 69 69 68 68 67 66 66 67 66 66 66 65 65 64 65 67 68 69 71 73 73 74 74 74 74 74 73 73 73 72 71 71 70 71 72 71 71 71 71 71 70 70 69 68 68 67 60 59 59 59 59 60 62
37 43 60 60 61 63 65 66 66 67 69 70 69 69 68 66 66 66 66 66 65 65 65 64 64 65 66 68 70 72 73 74 74 74 74 74 74 73 73 72 72 71 71 71 72 71 71 71 71 71 70 70 70 69 68 67 58 58 58 58 58 59 62
55 52 48 57 63 65 65 65 65 66 67 69 69 69 68 66 66 65 65 64 64 64 64 63 63 64 65 66 67 70 72 74 74 74 74 74 74 73 73 72 72 72 72 72 72 72 71 71 70 70 69 69 68 67 66 63 57 57 57 57 57 58 62
43 46 49 46 57 65 67 67 67 66 68 68 68 68 68 68 66 66 65 64 63 63 63 62 63 64 65 65 66 68 71 73 74 74 74 74 74 73 73 72 72 73 72 72 72 71 70 70 69 69 68 66 66 65 64 62 57 56 55 55 56 57 61
28 38 45 48 58 64 67 67 67 68 68 68 68 68 68 68 68 68 66 65 64 63 62 61 62 64 65 65 65 68 71 73 74 74 74 74 74 73 73 73 73 72 71 71 71 70 70 69 69 68 66 65 65 64 64 62 57 54 54 54 55 57 60
25 26 37 42 54 64 69 70 69 69 69 68 68 68 69 69 69 69 68 66 65 64 63 61 61 65 66 66 66 70 73 74 75 75 75 74 74 74 73 73 73 72 71 70 70 70 69 68 68 67 66 65 65 64 64 64 57 53 53 53 54 57 60
49 56 53 47 41 57 68 70 70 70 70 69 69 69 70 70 70 69 69 68 67 66 65 63 62 66 69 70 73 74 75 75 75 75 74 74 74 74 73 73 72 72 71 70 69 69 68 68 67 66 66 65 65 66 65 64 60 57 53 53 53 55 61
61 59 57 52 57 63 58 67 65 64 68 70 70 70 71 71 70 69 69 69 68 67 67 66 65 69 74 75 75 75 75 75 75 74 74 74 73 73 72 72 72 72 71 70 69 69 68 68 67 66 65 65 65 65 65 66 62 58 52 52 52 54 59
55 57 56 57 69 70 63 66 68 69 69 70 70 71 71 71 70 70 70 69 68 68 68 70 73 75 75 75 75 75 75 74 74 74 74 73 72 72 72 72 71 71 69 68 68 68 67 67 66 66 65 65 65 65 65 67 64 59 53 52 52 53 57
64 61 58 56 56 66 70 68 68 70 71 72 72 71 72 71 71 70 70 70 69 69 72 76 76 75 75 74 74 74 74 73 73 73 73 72 72 71 70 70 70 69 69 68 68 68 67 67 66 66 66 66 66 66 66 67 64 58 58 52 52 52 55
65 66 62 54 57 66 69 70 70 69 69 71 72 71 72 71 71 71 71 71 72 73 75 76 76 75 74 73 74 73 73 72 72 72 71 71 71 70 70 69 69 69 69 68 68 67 66 66 66 66 66 65 66 66 67 67 65 58 56 56 52 52 53
67 66 66 66 64 66 69 70 70 71 71 72 71 71 72 72 72 71 71 73 75 75 75 75 75 74 73 73 73 72 72 71 71 71 71 71 70 69 69 68 68 68 68 68 67 67 66 66 65 65 65 65 65 65 66 67 65 62 59 56 54 53 53
66 67 68 67 67 68 70 71 71 71 68 66 66 67 72 73 73 72 73 75 74 75 75 75 74 73 73 73 72 72 71 71 71 71 71 70 70 69 69 68 68 67 68 68 67 66 66 65 64 64 64 64 64 65 66 66 64 61 59 58 56 55 53
65 66 66 67 68 69 69 69 68 67 68 68 68 67 67 71 74 75 75 74 74 75 75 74 73 72 72 72 72 71 71 70 70 70 70 70 69 69 69 68 67 66 66 66 66 65 65 64 63 62 63 63 63 65 65 63 61 59 58 57 57 57 56
64 66 66 67 68 68 66 65 66 67 67 67 68 69 69 70 72 74 74 74 74 73 73 72 71 71 70 70 70 69 69 70 71 69 69 68 68 67 67 67 66 64 64 64 64 64 63 62 62 60 60 61 62 65 64 62 61 59 58 58 58 57 57
64 65 66 67 68 67 65 64 66 66 67 68 69 70 71 72 70 70 69 68 68 68 68 69 68 69 70 70 70 69 68 69 68 68 63 56 54 51 54 64 65 61 58 55 56 63 62 62 62 61 60 60 62 64 64 63 61 60 56 59 55 57 58
64 65 66 67 68 67 66 66 65 65 66 67 68 69 69 68 68 69 70 69 68 69 68 67 68 68 67 68 68 68 67 68 67 62 59 57 56 54 52 48 46 56 58 55 51 49 51 57 61 61 60 59 62 64 64 63 62 56 52 50 50 50 52
62 65 66 66 67 67 67 67 68 67 66 67 68 68 69 71 70 70 69 68 67 68 68 68 68 67 67 67 67 66 67 67 64 61 60 59 58 57 55 53 50 42 44 49 48 45 43 42 43 45 50 60 59 58 54 58 54 50 49 48 48 48 48
60 62 65 66 65 66 67 67 66 66 65 67 68 67 67 68 70 71 70 69 69 69 68 68 68 66 66 66 66 66 66 66 63 61 61 60 59 58 56 55 54 52 45 41 44 43 41 41 41 41 43 49 56 57 57 52 49 48 47 47 47 47 46

ECMWFFLT1_sfc_dewp_018.txt.gz
Dewpoint
49 49 49 51 53 56 58 60 60 60 61 63 64 64 64 65 67 68 69 70 70 70 71 72 72 71 71 71 72 72 72 72 72 72 72 72 72 72 72 72 72 72 72 72 72 72 72 73 72 72 71 70 70 68 67 66 67 67 66 66 66 66 66
49 50 50 51 52 54 57 60 60 60 61 62 64 64 64 65 67 67 69 70 70 70 71 71 72 72 71 71 71 72 72 72 72 73 72 72 72 72 72 72 72 72 72 72 72 72 72 72 72 71 70 70 69 67 66 65 66 66 65 65 65 65 65
48 50 51 52 53 53 55 59 60 60 61 62 64 64 65 65 66 67 68 70 70 71 71 71 72 72 72 71 71 72 72 72 73 73 72 72 72 72 72 72 71 72 72 72 72 72 72 72 71 71 70 70 68 66 65 64 65 65 65 65 65 64 64
48 49 52 53 53 54 55 57 60 60 60 61 63 64 65 65 66 67 68 69 70 70 71 71 71 72 72 72 71 71 72 73 73 73 73 72 72 72 72 71 71 71 72 72 72 72 72 71 71 71 72 70 67 65 65 64 65 64 64 65 64 64 64
48 48 51 53 53 54 55 56 58 60 60 61 63 65 65 65 66 67 68 69 70 70 70 71 71 72 72 72 72 72 72 72 73 73 73 73 72 72 71 71 71 71 71 71 72 72 72 71 71 70 71 70 67 65 65 64 65 64 64 64 64 64 63
47 48 49 52 53 54 55 56 57 59 60 61 62 64 65 65 66 66 67 69 69 70 71 71 71 72 72 72 72 72 72 73 73 73 73 73 73 72 71 71 71 71 71 71 72 72 72 71 71 70 70 69 66 64 64 65 65 64 63 63 63 64 63
47 48 49 51 53 54 56 56 57 59 60 61 63 65 65 65 65 66 67 68 69 70 70 71 71 71 72 72 72 73 72 73 73 73 73 73 73 72 72 71 71 71 71 72 71 71 71 71 71 70 70 68 66 64 64 65 65 64 63 63 62 63 63
47 48 49 51 52 53 55 56 58 59 61 62 63 64 65 65 65 66 67 68 69 69 70 70 71 71 72 72 72 72 73 73 73 74 74 73 73 72 72 72 71 71 71 71 71 71 71 71 70 70 69 67 66 65 64 64 65 65 64 63 62 63 63
47 49 49 50 52 53 54 56 58 60 62 63 63 65 65 65 65 65 66 67 68 69 70 71 71 71 72 72 72 73 73 73 73 74 74 73 73 72 72 72 72 72 71 71 71 71 71 70 70 70 69 67 66 66 65 64 64 65 64 63 62 62 63
47 49 50 51 52 53 54 55 57 60 62 63 64 65 65 65 65 65 66 67 68 69 70 71 71 72 72 72 72 72 73 73 74 73 73 73 73 72 72 72 72 72 71 71 71 71 71 70 70 70 68 67 66 66 65 65 65 64 64 64 63 62 63
48 49 50 51 52 54 54 55 57 59 61 63 64 65 65 65 65 65 66 67 68 69 70 71 71 72 72 72 72 72 73 73 73 73 73 73 73 72 72 71 71 72 71 71 71 71 71 70 69 69 68 67 66 66 65 65 65 64 64 64 64 63 62
49 50 51 51 53 53 54 56 58 59 60 62 63 64 65 66 65 65 66 67 68 69 70 70 71 72 72 72 72 72 72 73 73 73 73 73 73 73 72 72 71 71 71 71 71 71 71 70 69 68 68 68 67 66 65 65 65 65 64 63 64 63 63
49 50 51 52 53 54 55 57 58 59 60 61 62 63 65 65 65 65 66 66 68 69 70 71 71 72 72 72 72 72 72 73 73 73 73 73 73 73 72 72 71 71 71 71 70 70 70 70 69 69 68 67 67 66 66 65 65 65 64 64 64 64 63
55 49 50 52 53 54 55 57 59 59 60 60 61 63 64 65 65 65 65 66 67 68 70 71 71 72 72 72 72 72 73 73 73 73 73 73 73 73 72 72 72 71 71 71 71 70 70 70 69 69 68 67 66 66 66 65 65 65 65 64 63 63 63
48 50 50 51 53 54 55 57 59 59 59 60 61 62 64 65 65 66 66 66 67 68 69 70 71 72 72 72 72 72 73 73 73 73 73 73 73 72 72 72 72 71 71 71 71 71 70 70 69 69 69 68 67 66 66 66 65 65 65 64 64 63 63
47 49 50 51 53 54 56 57 58 59 60 60 60 62 63 65 65 65 65 65 66 67 68 70 71 71 72 72 72 72 73 73 73 73 73 73 72 72 72 72 72 71 71 71 71 70 70 70 70 69 69 68 68 67 67 66 66 64 61 62 64 64 64
48 49 50 52 53 54 56 57 58 59 61 61 61 62 63 64 65 65 65 65 65 66 68 69 70 71 72 72 72 72 73 73 73 73 73 73 73 72 72 71 71 71 71 71 71 71 70 70 69 69 69 69 68 67 67 67 66 61 60 61 62 64 64
51 51 51 52 54 55 56 58 59 60 61 62 62 62 63 64 64 65 65 65 65 65 67 68 69 70 71 72 72 72 72 72 73 73 73 73 72 72 72 71 71 71 70 70 70 70 70 69 69 69 69 69 69 68 68 67 63 60 60 60 61 63 65
52 52 52 53 55 56 56 57 58 60 61 62 62 63 63 64 64 64 65 65 65 66 66 67 68 70 71 71 72 72 72 72 72 72 72 72 72 72 72 71 71 70 70 70 70 70 70 69 69 69 69 69 69 68 68 68 63 60 59 60 60 61 64
54 52 53 54 55 56 56 57 58 59 61 62 62 63 63 65 64 64 65 65 65 65 66 67 68 69 70 71 72 72 72 72 72 72 72 72 72 72 72 71 71 70 70 69 70 69 69 69 69 69 69 69 69 69 68 68 61 59 58 59 59 61 63
54 54 53 54 56 56 57 58 58 59 60 61 62 63 63 64 65 65 64 65 65 65 66 67 68 69 70 71 71 72 72 72 72 72 72 72 72 72 72 71 71 70 70 69 69 69 69 68 68 69 69 69 69 69 69 68 59 58 58 58 58 59 62
51 49 54 55 56 57 57 57 57 58 60 61 62 63 63 63 65 65 64 65 65 65 66 66 67 68 70 71 71 71 72 72 71 71 72 72 72 72 72 72 71 71 70 70 70 70 70 69 69 69 69 69 69 69 68 67 57 58 57 57 57 59 63
48 45 47 53 58 57 58 57 58 59 61 61 61 62 63 63 64 65 65 65 65 65 65 66 66 67 69 70 71 71 72 72 71 71 71 71 71 71 72 72 72 71 71 70 70 70 70 69 69 69 69 69 69 69 68 64 58 57 56 56 57 58 63
49 44 45 52 57 59 61 60 59 60 61 62 62 62 63 63 64 65 65 65 65 65 65 66 66 67 68 69 70 71 71 72 72 71 71 71 71 71 71 72 72 72 71 70 70 70 70 70 70 70 70 69 69 69 67 64 59 56 55 56 56 59 63
58 57 46 42 52 58 60 62 63 63 65 65 66 66 65 65 65 65 65 66 66 66 65 65 65 66 67 68 69 70 71 72 72 72 72 72 71 71 71 72 72 72 71 71 70 70 70 70 70 69 69 69 69 65 65 65 59 54 55 55 55 59 64
63 62 58 54 47 51 57 63 65 65 64 64 66 68 68 67 66 65 66 66 66 65 65 65 65 66 66 66 68 69 70 71 72 72 72 72 72 72 72 72 72 72 71 71 71 70 70 69 69 68 67 67 67 66 66 65 63 59 54 54 54 56 64
65 64 64 63 59 67 62 63 65 64 64 65 66 68 69 69 67 66 66 66 66 65 65 65 66 66 66 66 66 67 69 70 72 72 73 73 73 73 72 72 72 71 71 71 70 70 69 68 68 67 66 66 66 65 65 65 63 60 53 53 54 55 59
66 66 66 66 68 65 65 63 66 66 65 65 66 67 68 69 68 67 66 66 65 65 65 66 66 66 65 65 65 66 67 69 71 72 73 73 73 73 73 72 72 71 71 70 69 69 68 67 67 66 65 65 65 65 65 65 63 62 54 53 53 53 55
65 66 66 66 65 66 67 67 65 66 67 67 66 66 67 68 68 68 67 66 66 66 66 65 65 65 65 65 65 65 66 69 71 72 74 74 73 73 72 72 71 71 70 69 69 68 67 67 66 66 65 65 65 65 65 64 62 58 59 52 51 51 52
65 65 66 66 66 67 67 67 69 68 68 69 70 70 70 69 68 68 67 67 67 67 66 66 66 65 65 66 66 67 68 70 72 73 74 73 73 73 72 71 71 70 69 69 68 68 67 66 66 65 65 64 64 65 65 65 63 58 56 55 51 50 51
64 65 65 65 66 67 67 66 67 69 67 67 68 68 69 70 69 68 68 69 71 73 73 72 71 70 70 71 71 71 72 73 73 73 73 73 73 72 71 70 70 69 68 68 67 67 66 66 65 65 65 64 64 65 65 65 63 60 58 56 52 51 51
63 64 66 66 66 67 67 66 67 67 67 66 66 68 68 69 70 69 68 69 70 73 74 73 72 72 72 73 73 73 73 73 73 73 73 72 72 71 71 70 69 68 68 67 66 66 66 65 65 65 65 64 65 65 65 65 63 60 58 57 55 54 53
63 64 65 65 66 66 65 65 66 66 66 67 68 67 69 69 69 69 70 71 71 73 74 73 73 72 72 72 72 72 72 72 72 72 71 71 71 71 70 70 69 69 68 67 67 66 65 65 65 65 65 64 65 65 65 64 61 59 58 57 56 56 57
62 64 64 65 65 66 64 64 65 65 66 67 68 68 68 68 67 68 70 72 72 72 72 71 71 71 71 71 71 71 72 71 71 71 70 69 69 69 68 68 68 67 66 65 66 65 64 64 64 64 64 64 64 65 64 63 61 60 58 57 57 57 58
60 62 64 64 64 65 65 64 65 65 66 67 68 68 67 67 67 69 70 71 72 71 71 70 69 70 69 69 70 70 70 70 70 69 67 62 58 57 63 67 66 65 63 61 66 65 64 64 64 64 64 64 65 65 63 62 61 60 56 59 55 57 58
60 61 62 64 64 64 65 65 65 66 66 66 67 67 67 67 67 68 69 70 71 71 69 69 69 69 69 69 69 69 69 69 68 67 65 62 59 57 53 49 44 52 63 61 57 60 58 58 63 64 63 65 65 64 63 62 62 56 52 50 50 50 52
60 61 62 63 64 64 65 65 66 66 66 67 67 67 67 67 67 67 68 68 69 69 69 68 68 68 67 68 68 67 67 66 65 64 63 61 60 59 57 54 51 43 43 49 50 48 45 47 50 54 58 64 64 63 58 58 54 49 49 48 48 48 48
60 61 62 63 63 64 64 65 66 66 66 66 67 67 67 67 67 67 67 67 67 67 66 66 66 66 67 68 68 65 64 64 64 62 62 61 60 59 58 57 55 53 45 42 44 44 43 44 46 50 53 55 59 60 59 52 48 48 47 47 46 47 47

ECMWFFLT1_sfc_dewp_021.txt.gz
Dewpoint
47 48 50 53 54 55 56 57 57 57 58 59 60 61 61 63 65 66 67 67 67 67 68 69 70 70 70 70 70 70 70 70 70 70 70 70 71 71 72 72 72 72 72 72 73 73 74 74 73 73 73 73 72 71 70 69 68 68 67 67 67 67 66
45 47 48 51 53 55 56 57 58 58 58 59 60 61 61 62 64 66 67 67 67 67 68 69 70 70 70 70 70 70 70 70 70 71 71 71 71 72 72 72 72 72 72 72 72 73 73 74 73 73 73 72 71 70 69 69 68 67 67 67 66 66 66
45 46 47 49 52 54 56 57 58 58 58 59 60 60 61 62 64 65 66 67 67 67 68 68 70 70 70 70 70 70 70 70 70 71 71 71 71 71 72 72 72 72 72 72 72 72 73 73 73 73 72 72 71 70 69 68 67 67 66 66 66 66 65
46 46 47 48 50 53 55 56 58 58 58 59 59 60 61 62 63 65 66 67 67 68 68 68 69 70 70 70 70 70 70 71 71 71 71 71 71 71 72 72 72 72 72 72 72 72 73 73 73 72 73 71 70 70 69 68 67 66 66 66 66 65 65
48 47 47 47 49 51 54 56 57 58 58 58 59 61 62 62 63 65 66 67 67 67 68 68 69 69 70 70 70 71 71 71 71 71 71 71 71 72 71 71 72 72 72 72 72 72 72 72 72 72 72 71 70 69 68 67 66 66 66 65 65 65 64
48 48 48 48 48 49 52 54 56 57 58 58 59 60 62 62 63 64 65 67 68 68 68 69 69 70 70 70 70 70 71 71 71 71 71 71 71 71 71 71 71 71 71 72 72 72 72 72 72 71 71 71 70 69 68 67 65 65 65 65 64 64 64
47 48 49 49 49 49 50 52 54 57 58 58 59 60 62 62 63 64 65 66 68 68 68 69 69 70 70 70 70 70 70 71 71 71 71 71 71 71 71 71 71 71 71 72 72 72 72 71 71 71 71 70 70 69 67 67 65 64 64 64 64 64 64
46 47 49 50 50 49 49 51 53 55 57 59 58 60 61 62 63 63 64 66 67 68 68 68 69 70 70 71 70 70 70 70 71 71 72 71 72 71 71 71 71 71 71 71 71 72 71 71 71 71 71 70 70 69 67 67 66 64 63 63 63 63 64
45 46 48 49 50 50 50 51 52 53 56 58 59 60 62 63 63 63 64 65 66 67 68 69 69 70 70 71 71 71 70 70 71 71 71 72 72 71 71 71 71 71 71 71 71 72 71 71 71 71 71 70 70 69 67 66 66 65 63 63 63 62 63
45 46 47 48 49 51 51 51 52 54 56 58 60 60 62 63 63 64 64 65 66 67 68 68 69 70 70 71 71 71 71 71 71 71 71 71 72 72 72 71 71 71 71 71 71 71 71 71 71 71 70 70 70 69 68 66 65 65 64 63 62 62 62
46 47 47 48 49 51 52 52 54 55 56 58 60 61 62 63 63 63 64 65 66 66 67 68 69 69 70 70 71 71 71 71 71 71 71 71 71 71 72 72 71 71 71 71 71 71 71 71 71 71 70 70 69 69 68 66 65 65 64 63 63 62 62
47 47 48 48 49 50 51 53 55 56 57 59 60 61 62 63 63 64 64 65 65 66 67 68 69 69 70 70 70 71 71 71 71 71 71 71 71 71 72 72 72 71 71 71 71 71 71 71 71 71 70 70 69 69 68 67 65 65 64 64 63 62 62
45 47 47 48 50 50 51 54 55 56 58 59 60 61 62 63 63 64 64 65 65 66 67 68 69 69 69 70 70 70 71 71 71 71 71 72 72 72 72 72 72 71 71 71 71 71 71 71 70 71 70 70 70 69 68 67 65 65 64 64 64 63 62
53 46 47 49 50 50 52 53 55 56 58 59 60 61 63 63 64 64 64 64 65 66 67 68 69 69 69 70 70 70 71 71 71 72 72 72 72 72 72 72 72 72 72 72 71 71 71 71 70 70 70 70 69 69 68 67 66 65 64 64 64 64 63
46 47 47 48 49 51 52 53 55 56 57 59 61 62 63 63 64 64 65 65 65 66 67 68 69 69 69 70 70 70 71 71 71 72 72 72 72 72 72 72 72 72 72 72 71 71 71 71 71 70 70 70 69 69 68 67 66 66 65 64 64 64 63
44 46 47 47 48 51 53 53 55 56 57 59 61 62 63 64 64 64 64 64 65 66 67 68 69 69 69 70 70 70 71 71 72 72 72 72 72 72 72 72 72 72 72 71 71 71 71 71 71 70 69 69 69 68 68 67 67 64 60 62 64 64 64
43 45 46 47 48 51 53 54 55 57 58 59 61 62 63 64 64 64 64 64 65 66 67 68 69 69 70 70 70 71 71 71 72 72 72 72 72 72 72 72 72 72 72 71 71 71 71 71 70 70 70 69 68 68 68 67 67 61 60 61 62 63 63
43 45 46 47 48 50 52 54 55 57 58 58 59 61 62 64 64 65 65 65 65 66 67 68 69 69 70 70 71 71 71 71 72 72 72 72 72 72 72 72 72 72 72 71 71 71 71 70 70 70 70 69 69 68 67 67 63 60 60 60 60 62 64
44 45 46 48 50 53 53 54 55 57 58 58 59 60 61 63 64 65 65 65 65 66 67 68 68 69 70 70 71 71 71 72 72 72 72 72 72 72 72 72 72 72 72 71 71 71 70 70 70 70 70 69 69 68 68 67 62 60 59 60 60 60 62
51 48 47 47 49 52 53 55 56 57 58 58 59 59 60 62 63 64 65 65 66 66 67 68 68 69 69 70 71 71 72 72 72 72 72 72 72 72 72 72 72 72 71 71 71 71 70 70 70 70 69 69 69 69 68 68 61 59 58 58 59 60 61
55 55 56 55 53 51 52 54 55 57 58 59 59 59 61 61 63 64 64 65 65 66 67 67 68 69 69 70 71 71 72 72 72 72 72 72 72 72 72 72 72 71 71 71 71 70 70 70 70 70 70 69 69 69 69 68 61 58 57 57 58 59 60
49 50 52 54 55 57 56 55 56 57 58 60 61 61 60 61 62 63 64 65 65 66 66 67 68 68 69 70 70 71 72 72 72 72 72 72 72 72 72 72 72 71 71 71 70 70 70 70 70 69 69 69 69 69 69 69 60 58 57 57 57 58 62
59 57 53 50 53 56 58 60 59 58 60 60 60 61 60 60 61 62 63 64 65 66 66 66 67 67 68 69 70 71 71 72 72 72 72 72 72 72 72 72 72 71 71 70 70 70 70 70 70 70 69 69 69 69 69 69 61 57 56 56 56 58 63
64 63 62 61 55 53 58 59 59 60 60 60 61 61 61 61 62 63 63 64 65 65 66 66 66 67 68 68 69 70 71 72 72 72 72 72 72 72 72 72 72 71 71 70 70 69 69 70 70 70 69 69 69 69 69 69 60 55 55 55 55 58 63
64 64 64 64 63 64 64 60 60 59 61 61 60 62 63 63 63 64 64 64 65 65 65 65 65 66 67 68 69 70 71 71 72 72 72 72 72 72 72 72 72 72 71 71 70 70 69 69 69 69 69 69 69 66 68 69 61 54 55 55 55 59 64
64 65 65 65 65 67 66 66 63 62 60 61 61 61 63 63 64 64 64 64 64 64 64 65 65 66 66 67 68 70 70 71 71 72 72 72 72 72 72 72 72 71 71 71 70 70 69 69 69 69 69 69 69 69 68 68 64 58 54 54 54 56 64
64 65 65 65 66 67 66 67 67 64 63 62 64 64 63 64 64 64 65 65 65 64 64 65 65 66 66 67 68 69 70 71 71 71 71 72 72 72 72 72 72 71 71 71 70 70 70 69 69 69 69 69 69 69 69 68 64 60 54 54 54 55 59
64 65 65 66 67 67 67 66 66 67 67 66 65 66 66 64 63 64 64 65 65 65 65 65 65 66 66 67 67 68 70 70 71 71 72 72 72 71 71 72 72 71 71 71 70 70 69 69 69 69 69 69 69 68 68 68 64 63 55 54 53 53 56
63 64 65 65 65 66 67 65 65 66 67 68 66 66 68 67 65 64 64 64 64 65 66 66 66 66 66 66 66 68 69 70 71 71 72 71 71 71 71 71 71 71 71 71 70 70 69 69 69 68 68 67 67 67 67 67 65 60 59 53 53 52 54
64 65 65 65 66 65 66 65 65 66 67 66 67 68 67 68 68 67 65 64 65 66 67 66 67 67 66 66 66 67 68 69 70 71 72 71 71 71 71 71 71 71 71 71 70 70 69 69 68 67 67 66 66 66 66 66 65 59 57 56 53 52 53
63 64 64 64 65 66 65 64 64 65 66 66 66 67 68 68 68 68 67 67 68 68 68 67 67 67 66 66 66 66 67 68 70 70 71 72 72 71 71 71 71 71 71 71 70 70 69 68 67 67 66 65 65 66 66 64 65 62 60 56 53 53 52
61 62 63 64 64 65 65 64 64 65 65 66 67 68 67 68 68 68 68 69 70 70 70 68 67 66 66 66 66 66 66 67 68 70 71 72 72 72 72 71 71 71 70 70 70 69 68 67 66 66 65 65 65 65 65 65 63 61 60 58 56 55 53
59 61 62 63 64 64 64 64 64 65 66 66 67 68 68 67 68 68 69 69 71 72 71 69 67 67 66 66 66 66 66 66 67 68 70 71 72 72 72 72 71 71 70 70 70 68 68 66 66 65 65 64 64 65 65 64 62 60 58 57 57 57 56
60 61 62 63 64 65 65 65 64 65 66 66 67 68 67 67 67 67 68 69 71 73 72 70 69 68 68 68 69 69 69 68 69 69 70 71 72 72 72 72 72 71 70 70 69 68 66 66 65 65 64 64 65 65 65 63 61 59 58 56 57 57 56
60 61 62 63 64 65 65 65 65 66 66 67 67 67 66 66 66 67 67 69 70 71 72 71 69 69 70 70 70 70 69 69 69 70 72 72 71 72 72 72 71 71 70 70 69 68 67 66 66 66 66 64 65 65 63 62 61 60 55 57 54 56 58
60 61 62 63 64 64 65 66 66 66 66 66 67 67 67 66 67 67 68 69 70 70 70 70 70 70 71 71 70 70 70 70 70 71 71 70 69 65 59 55 59 66 69 68 65 62 60 61 65 66 65 66 66 65 63 62 62 56 51 49 49 50 52
59 60 62 64 64 64 65 65 66 66 66 66 67 67 67 67 67 67 67 67 68 69 68 68 68 69 70 70 70 70 70 70 70 70 69 69 68 67 65 59 53 43 46 62 61 57 54 55 55 57 61 65 65 63 59 58 53 49 49 47 48 48 49
57 60 62 63 64 64 64 64 65 66 66 66 66 66 67 67 67 67 67 67 67 67 68 68 68 69 69 70 69 69 69 70 69 68 67 68 68 66 63 61 58 56 46 44 51 54 53 52 53 54 55 57 60 60 60 52 50 48 47 47 47 47 47

ECMWFFLT1_sfc_dewp_024.txt.gz
Dewpoint
51 53 54 55 55 55 56 57 57 57 58 59 59 60 62 63 65 65 66 67 67 67 68 68 69 69 70 70 70 70 70 70 70 70 70 70 70 70 70 71 71 71 72 72 73 74 74 75 74 74 74 74 74 73 73 73 72 71 70 70 69 69 68
49 51 53 54 54 55 56 57 57 57 58 58 59 60 61 63 64 65 66 66 67 67 67 68 69 69 69 70 70 70 70 70 70 71 70 70 70 71 71 71 71 71 72 72 73 74 74 75 74 74 73 74 74 73 73 72 72 71 69 69 68 68 68
46 49 51 53 54 54 56 56 57 57 57 57 58 59 60 62 64 65 66 66 67 67 67 68 69 69 69 70 70 70 70 70 70 70 70 69 70 70 71 71 71 71 72 72 73 73 74 74 75 74 74 73 73 73 73 72 71 70 69 69 68 68 68
45 47 49 52 54 55 55 56 57 56 56 57 58 58 60 62 63 65 66 66 66 67 67 68 68 68 69 69 69 69 70 70 70 70 70 70 70 70 71 71 72 72 72 72 73 73 74 74 74 74 74 73 73 73 72 72 70 70 69 69 68 68 67
45 45 47 50 51 53 54 55 56 57 56 56 57 60 60 61 62 63 65 66 65 66 66 67 67 68 69 69 69 69 69 70 70 70 70 70 71 71 71 71 71 71 72 72 73 73 73 74 74 74 74 73 73 73 72 71 70 69 69 68 68 68 67
45 46 46 47 49 51 53 54 55 55 56 56 56 58 59 59 60 61 63 65 66 66 67 67 68 69 69 69 69 69 70 70 70 70 70 70 71 71 71 71 71 71 72 72 73 73 73 73 73 73 73 73 73 72 72 71 70 69 69 68 67 67 67
45 46 46 46 47 49 50 52 54 55 56 56 57 57 58 59 60 61 62 64 65 66 66 66 67 68 69 69 70 70 70 70 70 70 70 70 71 71 71 71 72 71 72 73 72 73 72 73 73 73 73 73 73 72 71 70 69 68 68 67 67 67 67
45 46 47 47 46 47 48 51 53 54 56 57 57 57 57 58 59 60 61 62 64 65 65 66 66 68 69 69 70 70 70 70 70 70 70 70 71 71 71 71 72 72 72 72 72 73 72 73 73 73 73 73 72 72 71 71 70 68 68 67 67 67 66
45 48 48 47 46 46 47 50 52 54 56 57 57 58 58 59 59 60 61 62 63 64 65 65 66 67 69 69 69 70 70 70 70 70 70 70 70 70 70 71 72 72 72 72 72 73 72 72 72 73 73 72 72 72 71 70 70 68 67 67 67 66 66
46 47 48 49 48 47 48 49 52 55 56 57 58 59 59 59 60 60 61 61 62 64 64 65 66 67 68 69 69 69 70 70 70 70 70 70 70 70 70 71 71 72 72 72 72 72 72 72 72 72 72 72 72 72 71 70 70 68 67 67 67 66 66
47 48 48 48 50 51 51 50 51 54 56 58 58 58 59 60 60 60 61 61 62 63 64 65 66 66 67 68 68 69 69 69 70 70 70 70 70 70 70 71 71 71 71 71 71 72 72 72 72 72 72 72 71 71 71 70 70 69 67 66 66 66 66
48 48 49 49 51 52 52 52 52 54 55 57 58 58 60 61 60 61 61 62 62 63 64 65 66 66 67 68 68 69 69 69 69 69 70 70 70 70 70 71 71 71 71 71 71 72 72 72 72 72 72 72 71 71 71 70 70 69 68 66 66 65 65
47 49 49 48 50 51 54 55 54 54 55 55 56 58 59 59 60 61 62 63 63 63 64 65 66 67 67 68 68 69 69 69 69 70 70 70 71 71 71 71 71 71 71 71 71 71 71 72 72 72 72 72 71 71 71 70 70 69 68 68 66 65 65
57 51 50 53 54 53 54 54 55 55 55 55 55 58 59 59 60 61 62 62 63 63 64 65 67 67 68 68 69 69 69 70 70 70 71 71 71 71 71 72 72 72 72 72 71 71 71 71 71 72 72 71 71 71 71 70 70 69 68 68 67 66 65
40 43 47 48 51 52 53 53 55 56 55 55 55 57 59 60 60 62 63 63 64 63 64 66 67 67 68 69 69 69 70 70 71 71 71 71 71 71 72 72 72 72 72 72 72 71 71 71 71 71 71 71 71 71 71 70 70 69 68 68 67 66 65
37 38 41 46 49 51 52 53 54 56 56 57 56 57 58 60 61 62 62 62 63 64 64 66 67 68 68 68 69 69 70 71 71 71 71 71 71 72 72 72 72 72 72 72 72 72 72 71 71 71 71 71 71 71 70 70 70 66 62 63 67 66 66
38 39 40 46 50 50 52 53 54 55 57 58 58 58 59 60 61 62 61 62 63 64 65 65 67 67 68 68 69 70 70 71 71 71 71 72 72 72 72 72 72 72 72 72 72 72 72 72 71 71 71 71 70 70 70 70 69 63 61 61 62 66 66
43 43 43 44 48 50 52 52 53 55 56 56 57 58 59 60 61 62 62 62 63 63 65 66 66 67 68 68 69 70 70 71 71 71 71 72 72 72 72 72 72 72 72 72 72 72 72 71 71 71 71 71 70 70 70 70 65 61 60 61 60 62 66
45 45 46 50 52 53 50 50 52 54 55 55 57 58 58 60 60 62 63 63 64 65 65 65 66 67 68 68 69 70 70 71 71 71 71 72 72 72 72 72 72 72 72 72 72 72 72 72 71 71 71 71 70 70 70 70 64 61 60 60 60 60 63
51 52 53 53 51 50 52 53 54 54 54 56 57 57 59 61 61 62 63 63 65 65 66 66 66 67 68 69 69 70 70 71 71 71 71 72 72 72 72 72 72 72 72 72 72 72 72 72 71 71 71 71 70 70 70 70 64 60 59 59 59 60 62
54 56 55 55 56 53 53 54 55 56 56 56 56 58 61 61 62 63 63 65 65 65 66 67 67 68 68 69 69 70 70 71 71 71 71 72 72 72 72 72 72 72 72 72 72 72 72 71 71 71 71 71 71 70 70 69 62 59 58 58 58 59 60
61 61 60 59 56 55 57 55 55 54 56 59 60 60 60 60 61 62 63 64 64 65 66 67 67 67 68 69 69 70 70 70 71 71 71 71 72 72 72 72 72 72 72 72 72 72 72 72 71 71 71 71 71 70 70 70 60 58 57 57 57 58 63
63 63 63 63 63 61 60 60 57 57 60 61 60 60 59 59 61 63 63 64 64 66 66 67 67 68 68 69 69 70 70 71 71 71 71 71 71 72 72 72 72 72 73 72 72 72 71 71 71 71 71 71 71 70 70 70 62 57 56 56 56 58 65
64 64 64 65 65 66 66 66 62 61 59 60 61 60 61 60 62 64 65 65 65 66 66 67 67 67 68 68 69 70 70 71 71 71 71 71 71 71 72 72 72 72 72 72 72 71 71 71 71 71 71 71 70 70 70 70 63 56 55 55 55 59 65
64 64 64 65 66 66 66 66 66 62 62 61 60 62 62 63 63 64 64 65 66 66 66 66 66 67 68 68 69 70 71 71 71 71 71 71 71 72 72 72 72 72 72 72 72 72 72 71 71 71 71 70 70 66 69 70 63 55 55 54 54 60 66
63 64 65 65 66 67 66 67 68 66 62 62 63 63 63 63 63 64 64 65 65 65 65 66 66 67 68 68 69 70 71 71 72 72 72 72 72 72 72 72 72 72 72 72 72 72 71 71 71 71 71 71 70 70 69 70 67 59 54 54 54 56 66
64 64 65 65 66 67 65 65 66 67 68 67 66 64 64 64 63 64 64 65 65 65 65 66 67 67 68 69 69 70 71 71 72 72 72 72 72 72 72 72 72 72 72 72 72 72 71 71 71 71 71 70 70 70 70 70 68 61 54 53 54 55 59
64 64 64 65 66 66 64 64 65 66 67 67 68 65 65 65 65 65 65 65 64 65 65 67 68 68 69 69 69 69 70 71 72 72 72 72 72 72 72 72 73 72 72 72 72 72 71 71 70 70 70 70 70 70 70 69 64 62 55 54 53 54 56
63 63 63 64 64 65 65 64 65 65 66 67 67 68 67 66 65 65 65 65 65 65 66 67 68 68 68 69 68 69 70 71 71 71 72 72 72 72 72 72 72 72 72 72 72 72 71 71 71 70 70 70 70 70 70 70 66 60 60 54 53 52 54
63 63 63 64 64 65 65 64 64 65 66 66 67 67 68 68 67 66 65 65 67 69 69 67 67 68 68 68 68 69 69 70 71 72 72 72 72 72 72 72 72 72 72 72 72 71 71 71 70 70 69 69 69 69 69 69 67 61 58 58 53 53 53
62 63 63 64 64 65 65 64 64 65 65 66 67 68 68 68 68 68 67 67 69 68 68 68 68 68 67 67 68 68 68 69 70 71 72 72 72 72 72 72 72 72 72 72 72 71 71 71 70 70 69 69 69 69 68 68 67 65 60 57 54 53 53
63 63 64 64 65 65 65 65 65 65 65 66 67 67 67 67 67 67 67 68 69 70 69 68 68 68 67 67 67 68 68 68 69 70 71 72 72 72 72 72 71 71 72 72 71 71 71 70 70 69 70 69 69 68 67 68 67 66 64 59 57 55 54
62 63 64 64 65 65 65 65 65 65 65 66 67 67 67 67 67 67 68 68 69 70 71 70 68 68 68 68 68 68 68 68 67 68 70 71 71 71 72 72 72 71 71 72 72 71 71 71 70 70 69 69 68 68 68 67 67 66 63 61 60 59 57
62 63 64 64 65 65 65 66 65 65 65 66 67 67 67 67 67 67 68 68 69 70 71 71 70 69 68 68 68 68 68 68 68 68 68 70 70 70 71 72 71 72 72 71 72 71 71 70 70 69 69 68 68 67 67 67 66 65 63 61 60 60 58
62 63 64 64 65 65 65 65 66 66 66 66 67 67 67 67 68 68 68 68 69 70 70 70 70 70 70 69 69 69 68 68 67 67 69 70 71 72 72 72 72 72 72 73 72 72 71 71 70 70 70 69 68 67 66 65 65 64 59 61 56 59 59
62 63 64 64 65 65 65 65 65 66 66 66 67 67 67 67 67 67 67 68 68 68 69 69 70 70 71 71 70 69 69 68 67 68 68 69 71 71 72 68 64 68 72 71 67 64 63 64 69 69 70 69 68 67 66 65 66 57 52 52 51 51 53
62 62 63 64 64 64 64 65 65 65 65 66 66 66 67 67 67 66 67 66 66 67 68 68 69 69 70 70 71 70 70 70 69 69 69 68 68 70 71 69 65 54 53 60 64 61 57 58 59 59 63 67 68 65 61 59 55 51 51 50 49 49 50
61 62 63 64 64 64 64 64 64 65 65 65 66 66 66 67 67 67 66 66 65 65 66 66 67 67 67 67 67 67 68 70 70 70 70 70 70 70 71 70 69 65 52 51 55 57 54 54 53 55 57 58 61 62 63 55 52 48 47 48 48 48 48

ECMWFFLT1_sfc_dewp_027.txt.gz
Dewpoint
56 57 58 59 59 59 60 62 63 63 64 65 65 65 65 66 68 69 70 71 72 72 73 73 73 73 73 73 74 74 74 74 74 73 73 73 73 73 73 73 73 74 73 74 74 75 77 77 76 76 75 75 75 75 75 75 75 75 76 75 75 75 75
55 56 56 57 59 59 61 62 63 63 63 64 64 65 64 66 68 68 69 71 71 71 72 72 73 73 73 73 74 74 74 74 74 74 73 73 73 73 73 74 74 74 75 74 75 76 77 77 76 76 76 75 75 75 74 75 75 76 75 74 74 73 74
54 55 56 57 57 58 61 61 63 62 63 62 63 63 64 67 68 68 69 69 71 71 72 72 73 73 73 73 74 74 74 74 74 73 73 72 72 71 73 74 74 74 74 75 75 76 76 77 77 76 76 75 75 75 75 75 75 75 75 75 74 74 74
53 53 55 57 59 60 61 61 61 61 61 61 62 62 64 67 67 68 69 68 70 71 71 71 72 72 72 73 73 74 74 74 74 73 72 72 72 72 73 73 74 73 74 74 74 74 75 76 76 76 76 76 76 75 75 74 74 75 75 74 74 74 74
51 53 54 57 58 59 59 60 60 61 60 60 61 64 65 65 65 66 67 68 67 69 69 70 69 71 72 72 72 72 73 73 73 73 73 72 73 73 73 72 72 72 73 74 74 75 76 76 75 75 75 75 75 75 75 74 74 75 75 75 74 74 73
47 52 54 55 55 56 58 58 58 58 59 59 60 62 62 62 62 62 64 67 67 67 70 70 70 71 71 71 71 72 73 73 74 74 73 73 73 73 72 72 72 72 71 73 74 74 75 75 75 75 74 73 74 74 74 74 74 74 74 74 74 74 72
49 51 52 53 54 56 56 57 57 57 58 58 59 60 60 60 61 62 62 64 65 67 68 68 68 69 71 71 71 72 73 72 73 73 73 73 73 73 73 73 73 72 73 74 74 74 74 75 75 75 74 74 75 74 75 75 74 74 74 74 73 74 73
50 51 54 53 52 53 54 57 57 57 58 59 58 58 59 59 59 60 61 62 64 64 65 66 67 70 71 71 71 71 72 71 71 72 72 72 72 73 72 72 73 73 74 73 74 74 73 75 75 75 75 74 75 75 75 75 74 72 73 73 73 73 72
49 55 53 50 50 50 52 56 58 58 60 61 60 60 59 59 58 59 61 61 63 63 64 65 65 68 71 71 72 72 71 71 71 72 72 71 71 70 71 72 73 73 73 73 72 74 74 74 74 75 76 75 75 75 75 75 74 73 72 73 74 73 72
50 55 57 53 52 49 53 54 59 61 62 62 62 63 60 59 60 60 60 61 61 62 63 64 65 67 70 70 70 71 71 72 72 70 70 70 70 70 70 70 71 73 73 72 72 73 74 75 75 75 76 75 75 75 75 75 73 73 73 74 73 73 72
52 58 59 55 56 55 56 53 58 61 62 63 63 61 61 61 61 59 60 60 60 62 63 64 65 66 68 68 68 69 71 70 70 70 70 69 69 69 69 69 70 71 72 72 72 73 74 75 75 75 76 75 75 75 75 74 73 73 73 73 73 73 72
56 57 60 60 60 59 56 58 61 62 63 64 63 61 63 63 61 59 60 61 60 61 63 63 64 65 67 67 67 69 70 70 69 69 69 69 69 69 69 69 70 71 71 71 72 73 73 74 74 75 75 75 75 75 75 74 74 74 74 72 72 72 72
53 57 59 56 60 60 63 63 63 61 63 62 60 62 61 61 60 59 63 63 60 61 62 64 65 67 66 66 66 69 70 69 70 71 70 71 70 70 70 70 69 70 71 71 71 72 73 74 75 75 75 75 75 75 75 75 74 74 75 74 73 72 72
56 52 54 58 58 60 62 64 64 63 63 62 61 62 61 61 61 62 63 62 62 61 62 63 66 68 68 68 68 70 69 70 72 72 72 72 72 72 71 71 71 71 72 73 72 72 73 73 74 75 75 75 75 75 75 75 74 75 75 74 73 72 72
46 45 51 53 60 62 62 62 64 64 62 62 60 61 61 61 62 64 65 63 64 61 62 66 67 68 68 69 69 70 71 72 72 73 73 73 73 73 72 73 73 73 73 74 73 73 73 73 73 74 74 74 75 75 74 73 74 74 74 74 73 72 71
44 44 43 48 56 58 62 63 64 65 65 65 62 63 60 62 63 62 62 62 63 63 63 65 68 69 67 68 70 72 72 73 74 74 74 73 74 74 74 73 74 73 74 74 74 74 74 74 74 73 73 74 74 74 73 72 73 70 65 66 73 73 72
47 48 46 50 55 57 61 62 63 64 65 65 64 63 63 63 62 62 60 61 61 64 63 64 69 67 67 68 70 71 73 73 73 73 73 74 74 74 74 74 74 74 74 74 74 74 74 74 73 72 73 73 73 72 72 71 71 65 63 63 65 71 72
51 55 54 51 52 54 57 59 61 62 63 61 61 62 62 64 63 62 60 61 61 61 62 64 65 66 69 70 72 73 73 72 73 73 73 74 74 74 74 74 74 74 74 74 74 74 74 73 74 74 73 73 72 72 72 71 66 63 62 63 62 65 72
51 53 56 58 57 58 53 52 56 62 60 59 60 60 60 62 61 63 63 63 64 64 63 63 64 67 69 70 71 72 73 74 73 73 74 74 74 74 74 74 74 74 74 73 74 74 74 74 73 73 73 72 73 71 71 71 65 63 62 62 61 62 66
53 52 55 57 58 57 59 59 57 56 59 62 62 58 59 60 60 63 63 63 66 66 67 67 66 68 70 72 72 73 73 73 73 73 74 74 74 74 74 74 74 74 74 73 74 74 73 73 73 73 73 72 72 72 71 72 65 62 60 60 60 61 63
61 62 64 64 65 63 63 63 62 62 61 58 56 60 61 60 60 62 63 64 64 67 69 70 69 69 70 71 72 73 73 73 73 74 74 74 74 74 74 74 74 74 73 73 73 73 73 72 72 72 73 72 72 72 71 71 64 60 60 59 59 60 61
62 63 63 65 66 68 69 67 64 60 60 60 59 58 59 59 58 58 59 61 63 66 69 70 70 70 71 72 72 72 73 73 74 74 74 74 74 74 74 74 74 74 74 73 72 72 73 72 72 72 72 72 72 72 71 71 62 60 59 58 58 59 65
64 65 65 66 66 66 68 69 69 67 64 61 58 58 58 57 58 59 59 61 62 69 68 69 70 70 71 71 71 71 72 73 73 74 74 74 74 74 73 74 74 74 74 73 72 71 71 72 72 73 72 73 72 72 71 71 65 59 58 57 57 59 67
64 65 65 66 67 67 69 69 69 69 65 60 60 58 59 59 61 64 66 65 64 66 67 69 69 70 71 70 71 72 72 73 73 73 73 74 73 73 73 73 74 74 74 73 72 71 71 71 72 72 72 72 72 71 71 71 65 57 57 56 56 61 68
64 64 65 66 66 66 67 69 70 68 65 62 59 62 65 65 65 67 68 68 67 68 69 68 68 69 70 70 71 73 73 73 73 73 73 74 73 73 73 73 74 74 74 73 73 72 73 72 71 72 72 71 71 67 70 71 65 56 56 56 55 61 70
64 65 65 65 66 67 68 70 71 67 63 62 65 66 67 66 67 67 68 69 67 65 66 68 68 70 70 71 72 72 73 72 74 74 74 74 74 74 74 74 74 74 73 73 72 72 71 72 71 71 71 71 72 72 71 71 72 63 55 55 54 57 69
63 64 64 64 65 67 67 69 69 69 68 71 72 67 67 68 66 68 70 70 69 67 66 68 71 72 72 73 71 71 73 73 73 73 74 74 74 73 73 73 73 74 74 72 72 72 72 72 71 71 71 71 71 71 71 71 72 66 54 54 54 55 61
63 63 63 65 66 66 67 67 69 69 69 70 69 68 67 69 69 70 70 69 69 70 68 70 71 71 72 72 71 71 72 73 73 74 74 74 74 74 73 73 74 74 74 72 72 72 72 73 72 72 72 72 71 72 72 69 67 69 55 55 54 55 56
63 63 63 64 65 65 65 67 68 68 68 68 69 69 67 65 68 69 70 69 71 70 70 71 71 72 72 73 72 72 72 73 74 74 74 74 74 74 74 74 74 74 74 74 73 73 73 73 73 73 72 72 72 72 72 73 71 62 61 54 54 53 54
63 64 63 64 64 65 65 66 67 67 68 68 69 69 70 72 70 70 70 73 73 72 70 71 72 73 72 73 73 73 73 73 73 74 74 74 74 74 74 74 74 74 74 75 74 73 72 73 73 73 72 71 72 72 72 73 73 62 58 58 54 54 53
63 64 64 64 64 65 65 65 66 66 67 67 68 68 69 70 72 72 71 71 73 74 73 71 71 72 72 72 72 73 73 74 74 74 74 74 74 74 74 74 74 74 74 74 73 73 72 72 72 72 72 72 71 72 74 74 74 69 61 57 54 54 53
64 64 64 64 65 65 65 65 65 66 66 67 67 67 68 68 69 69 69 70 71 73 74 74 72 71 71 72 72 73 73 73 73 74 74 74 74 75 75 74 73 73 73 73 72 72 72 72 71 71 72 72 72 72 73 74 73 71 66 59 57 56 54
64 64 64 65 65 66 65 65 65 65 66 66 67 67 68 68 68 69 69 70 71 72 72 74 74 72 72 72 72 73 72 72 70 70 72 74 73 73 74 74 73 73 73 73 72 72 72 72 72 72 71 72 71 72 73 73 73 71 68 65 63 62 61
63 64 65 65 65 66 66 65 65 65 66 66 67 68 68 68 68 68 69 69 70 71 72 73 73 73 73 72 72 72 72 72 72 71 69 70 71 71 71 73 73 73 73 72 72 72 72 72 72 71 71 71 71 72 74 72 71 71 69 66 65 64 63
63 64 64 64 65 65 65 66 65 66 66 67 68 68 68 68 68 68 68 69 69 70 70 71 72 73 73 73 73 73 72 71 70 70 70 71 73 73 73 73 73 73 74 74 74 73 72 72 71 72 72 71 72 72 72 70 70 70 63 67 62 64 64
63 64 64 64 65 65 65 66 66 66 66 67 67 67 67 67 67 67 67 68 68 69 69 69 70 71 71 71 72 71 72 72 69 69 69 69 71 72 74 69 64 70 74 73 67 65 63 63 71 72 72 71 71 72 71 70 70 63 58 58 57 56 57
63 63 64 65 65 65 65 66 66 66 66 66 67 67 67 67 67 67 66 66 68 68 68 69 69 69 69 69 69 68 70 70 71 72 72 72 70 70 70 70 73 58 56 60 64 62 58 55 57 59 62 71 74 72 64 64 61 54 54 55 53 52 52
63 63 64 64 64 65 65 65 66 66 66 67 67 67 67 67 67 67 66 67 67 67 67 68 68 68 68 68 70 69 70 70 69 70 70 71 71 72 71 71 71 73 63 56 57 56 52 52 53 54 55 58 65 69 73 62 54 52 53 52 51 50 50

ECMWFFLT1_sfc_dewp_030.txt.gz
Dewpoint
53 56 58 60 61 61 62 64 66 66 67 68 68 69 68 69 70 71 72 73 74 75 75 76 75 75 75 74 75 75 75 75 76 75 75 75 74 74 74 73 74 74 73 73 74 73 75 75 75 76 76 77 76 76 77 77 77 76 76 76 76 75 75
50 52 55 57 60 61 63 64 66 66 66 68 68 70 68 69 70 71 72 73 74 74 75 75 76 75 75 74 74 75 75 76 76 76 75 75 75 74 74 75 74 75 75 74 73 75 75 75 75 76 76 77 76 76 75 76 76 76 75 76 75 75 75
49 51 54 57 58 60 64 63 65 65 66 66 67 68 68 70 71 72 72 72 74 75 75 75 76 75 75 74 75 75 75 75 75 75 74 74 75 73 74 75 75 74 74 74 75 74 75 76 77 77 76 76 75 76 76 76 76 76 76 76 75 74 75
51 51 54 57 60 62 63 63 64 64 64 65 66 67 68 71 71 72 71 72 73 74 74 74 75 74 75 75 75 75 75 75 75 74 73 75 75 74 74 75 75 74 74 74 73 74 74 76 77 77 77 76 76 75 76 75 75 76 76 76 75 74 74
50 52 53 56 58 61 61 62 63 65 63 63 65 68 69 69 69 70 70 71 71 73 72 73 72 74 75 75 74 74 75 76 75 75 75 75 75 76 75 73 74 74 74 74 75 75 75 76 76 76 77 77 76 76 76 76 75 76 76 76 75 74 73
46 52 54 55 57 58 60 61 61 62 62 62 64 66 66 67 67 67 69 70 70 71 73 73 73 74 74 74 74 74 75 75 75 75 75 75 75 74 74 74 74 74 72 74 74 74 75 76 76 76 75 75 75 74 75 75 74 74 75 75 75 74 72
42 52 54 55 56 57 59 60 60 60 62 62 62 64 65 64 65 65 66 68 69 70 70 70 71 72 74 73 74 74 75 75 75 75 74 75 75 75 75 75 74 73 74 74 74 74 74 76 76 76 76 75 75 74 75 75 74 75 75 75 75 74 74
39 47 55 56 54 55 56 60 60 60 61 62 61 61 63 63 63 64 65 66 67 66 68 68 69 72 73 74 73 74 74 74 74 75 75 75 75 75 74 74 74 75 75 74 74 75 74 76 75 75 76 74 75 76 75 76 76 74 74 75 74 74 73
40 51 54 53 54 52 55 59 61 61 62 63 62 62 62 63 62 63 64 64 65 66 66 66 67 69 73 73 73 74 74 74 74 74 75 73 73 72 72 73 74 74 74 73 72 75 75 75 75 76 76 76 75 76 76 76 75 75 74 75 75 74 74
44 55 58 55 54 51 56 56 60 63 62 63 64 64 63 62 63 62 63 63 63 64 64 65 66 68 71 72 72 73 73 74 73 72 72 72 72 71 71 71 73 74 73 73 72 73 75 75 75 76 77 76 76 76 76 76 75 74 74 75 75 75 75
53 58 59 56 55 55 56 55 60 64 64 67 66 62 64 63 63 62 62 62 61 62 63 65 66 67 69 70 70 70 72 72 72 71 72 71 71 71 71 71 71 72 73 72 72 72 74 75 75 76 77 76 76 76 77 76 76 74 73 74 75 75 75
59 57 61 61 60 57 56 59 61 66 66 67 64 63 65 65 63 61 61 62 61 61 63 64 65 66 68 69 69 71 71 71 71 70 71 70 71 70 70 70 70 70 72 72 72 73 73 75 75 75 76 77 76 76 77 77 76 75 74 73 73 75 76
54 59 59 57 61 60 62 62 62 65 68 65 62 63 63 62 62 61 64 63 61 61 62 65 66 67 67 68 68 70 71 70 71 72 70 71 71 70 70 69 68 69 70 72 72 72 72 74 76 76 76 77 77 76 77 77 76 75 75 74 75 75 76
61 51 55 57 61 64 64 64 64 65 68 65 63 64 63 63 62 63 63 63 63 61 61 63 66 67 68 69 69 70 69 70 72 73 72 72 73 72 71 71 71 71 71 73 73 72 72 73 75 75 75 76 76 77 77 77 76 75 75 74 74 75 76
38 36 52 58 64 66 66 65 67 67 65 64 62 62 63 62 62 63 64 64 64 61 61 64 66 67 67 68 70 71 72 72 73 73 73 73 73 73 73 72 73 73 72 73 73 73 73 73 74 75 75 75 76 76 76 76 75 74 74 74 74 74 74
33 27 27 39 62 64 67 66 67 68 67 67 63 63 61 62 64 62 62 62 62 64 62 64 66 68 68 68 70 72 73 73 74 74 74 74 74 74 74 73 74 73 73 73 73 74 74 74 74 74 74 75 75 76 76 75 76 71 64 67 74 74 74
30 32 37 44 57 60 63 67 66 68 69 68 66 64 63 63 64 63 60 61 60 63 63 62 67 67 68 69 70 72 73 74 74 75 75 75 74 75 75 74 74 74 74 74 74 75 75 74 74 73 74 74 74 74 75 75 74 66 63 64 66 73 75
39 40 40 37 50 54 61 62 66 67 67 66 65 65 64 66 63 62 60 60 61 61 62 62 64 66 70 69 72 73 74 74 75 75 75 75 75 75 75 75 74 74 74 74 74 75 75 74 74 75 74 74 74 73 74 75 68 64 63 63 64 67 74
35 34 34 43 57 62 54 50 54 66 63 61 63 63 63 64 62 64 63 63 63 64 62 61 62 67 71 71 72 74 75 76 75 76 76 76 75 76 76 75 75 75 74 74 75 75 75 75 75 75 74 74 75 73 73 73 66 63 62 63 63 64 69
35 35 35 36 51 54 58 61 59 57 60 63 62 59 62 64 62 63 63 62 64 64 65 65 64 68 71 72 73 74 76 76 75 75 76 76 76 76 76 75 75 75 75 74 75 75 75 74 74 74 75 74 74 75 74 74 66 62 60 61 62 63 66
41 46 52 54 57 55 62 66 66 66 65 60 57 60 62 61 61 62 62 63 62 64 70 68 68 69 71 72 73 74 75 75 75 75 76 76 76 76 76 75 75 75 75 73 74 74 74 74 73 73 74 73 72 72 73 72 65 60 59 59 60 62 63
39 40 45 54 64 70 72 68 68 65 64 64 62 58 58 60 59 58 59 60 61 64 67 69 69 68 70 72 72 73 75 75 75 75 75 75 75 75 75 75 76 75 75 74 73 74 73 73 74 73 72 72 72 72 72 71 63 59 59 59 59 60 68
48 62 65 67 65 66 70 72 71 69 70 69 64 60 57 56 58 58 57 60 61 66 66 68 69 69 71 73 72 73 74 74 74 74 74 75 75 75 74 75 75 75 75 74 73 73 73 74 72 72 71 72 73 72 72 71 66 58 57 58 58 61 71
61 63 63 65 68 68 70 71 71 71 70 69 69 64 61 59 60 62 63 62 62 64 67 68 69 70 72 72 72 72 74 74 74 74 74 75 75 75 74 74 75 75 75 74 73 72 72 73 73 73 72 72 72 71 71 71 67 57 56 57 57 63 71
63 63 65 66 66 66 68 71 72 71 71 71 68 66 64 64 63 63 64 64 64 65 67 68 68 69 70 71 72 73 74 74 74 74 74 75 74 74 74 74 74 74 75 74 74 73 73 73 72 72 72 70 70 66 69 71 67 56 56 56 56 63 72
66 65 65 65 65 68 70 72 73 73 69 66 68 66 66 64 64 65 64 64 62 62 65 68 68 70 70 71 71 73 73 74 75 75 75 75 75 75 75 74 74 74 74 74 73 73 72 71 71 72 71 70 71 70 71 70 72 67 56 56 55 58 72
64 64 65 64 65 69 69 70 71 70 69 72 72 69 67 66 64 65 67 67 66 65 65 68 70 70 71 72 71 71 74 74 75 75 75 75 75 74 73 74 74 74 74 73 72 73 73 72 70 70 70 70 71 70 71 71 71 73 54 55 54 56 62
63 64 64 66 68 68 67 68 71 71 70 71 70 69 68 68 68 68 69 69 68 68 66 68 70 71 72 73 72 71 73 74 75 75 75 75 76 76 74 74 75 74 74 72 73 74 73 73 72 70 70 71 70 72 72 69 66 72 56 55 54 55 57
64 64 64 66 66 66 65 69 69 69 70 69 70 69 67 66 69 69 69 70 70 69 69 68 70 73 73 74 72 73 74 75 75 75 75 75 75 75 75 74 74 75 75 75 75 74 74 74 73 71 71 71 71 72 73 73 73 63 65 54 54 53 56
65 65 64 63 64 65 65 68 69 70 71 70 71 72 73 69 70 71 70 70 75 72 71 72 73 74 74 74 74 73 73 74 74 75 75 76 75 75 75 75 75 75 75 75 74 73 72 72 73 72 71 70 71 70 71 73 73 66 61 61 53 54 54
63 64 64 64 63 66 66 67 68 69 69 69 71 72 73 74 74 74 74 75 76 75 73 73 73 74 73 73 73 73 73 73 75 75 75 75 75 75 74 75 75 74 76 75 74 72 72 72 72 72 72 70 72 71 71 72 73 74 68 58 54 54 54
63 64 63 64 65 65 66 65 67 67 67 69 70 70 71 72 72 73 73 73 74 75 75 74 73 73 73 73 73 74 73 74 74 75 75 74 74 75 75 75 74 73 74 73 71 73 73 72 71 70 72 71 72 71 72 73 73 73 74 61 57 56 55
65 65 65 65 65 66 66 66 65 66 67 68 69 69 69 70 70 71 71 73 73 74 75 75 74 73 73 73 73 74 74 73 71 71 73 74 73 73 74 74 74 74 73 73 72 72 72 72 71 71 70 70 71 72 72 72 72 73 74 68 65 64 62
65 65 65 65 66 66 66 65 66 66 67 67 68 69 69 69 69 70 71 71 72 73 74 74 74 73 73 73 73 73 74 74 73 72 70 71 72 71 71 73 73 73 73 72 72 72 71 71 71 70 70 70 70 71 72 72 72 72 72 69 66 66 66
64 65 65 65 66 66 66 66 66 67 67 68 68 69 68 68 69 70 70 71 72 73 73 74 74 75 74 73 74 73 74 73 73 71 71 72 73 72 73 72 71 72 73 73 73 72 70 71 70 71 71 70 70 71 71 71 71 72 65 72 61 66 66
64 65 65 66 66 66 66 67 67 67 67 68 69 68 68 68 68 69 69 70 71 72 72 72 72 72 72 72 72 71 72 71 69 70 70 70 70 72 72 70 64 71 75 72 68 64 62 61 70 70 69 69 70 71 70 70 71 63 59 59 56 56 57
64 65 65 66 66 66 66 67 67 67 67 68 68 68 68 67 67 68 68 69 69 70 71 71 70 70 71 71 70 69 72 71 71 72 73 72 70 71 70 69 74 60 59 62 65 63 59 53 55 57 59 71 72 70 63 61 60 58 57 55 54 54 54
65 65 66 66 66 66 66 67 67 67 68 68 68 68 68 67 68 68 67 68 68 69 69 70 70 70 70 70 70 70 70 70 70 71 72 73 73 73 72 72 72 73 67 58 56 55 52 51 51 51 52 53 56 60 70 65 58 54 53 52 53 53 53

ECMWFFLT1_sfc_dewp_033.txt.gz
Dewpoint
46 46 52 59 61 60 63 65 66 66 66 68 68 67 67 67 69 72 72 74 76 76 76 76 76 76 76 75 75 75 75 75 74 73 73 72 72 72 73 73 74 74 71 71 72 72 73 74 72 72 73 75 75 75 76 76 77 76 76 76 76 75 75
43 43 46 53 59 61 63 65 67 66 67 68 69 69 67 68 70 70 72 74 75 76 76 76 76 76 76 75 75 76 76 75 75 75 73 73 73 73 72 74 74 75 74 72 72 74 74 73 73 73 73 74 75 76 75 76 77 77 75 76 75 75 75
44 41 45 51 56 60 63 64 67 66 67 67 68 68 67 70 70 72 72 74 75 76 76 76 76 76 76 76 75 75 75 75 75 74 73 72 73 71 72 74 74 73 74 73 72 72 73 74 75 74 74 74 74 76 75 75 76 76 75 76 75 74 75
46 41 45 49 54 62 63 64 66 66 66 67 68 68 69 71 70 71 72 73 75 76 76 76 76 75 75 75 75 76 76 76 75 74 73 72 73 73 73 73 74 74 73 73 71 71 72 74 74 75 76 75 75 75 75 74 74 76 76 76 75 74 75
42 40 42 44 50 58 62 62 64 67 65 66 68 70 70 69 69 70 71 72 73 74 74 74 73 74 75 75 74 74 75 75 75 74 74 74 74 75 74 72 72 73 73 73 74 73 74 74 74 75 75 76 75 75 75 75 74 76 76 76 75 74 73
36 43 43 43 47 54 61 62 62 64 64 64 66 68 68 68 68 68 70 71 72 72 74 75 74 75 74 74 74 73 75 76 76 76 75 75 75 74 73 73 72 73 71 72 73 73 73 73 74 75 75 74 74 73 73 74 74 74 76 76 76 74 72
38 44 43 42 44 50 58 61 61 63 64 64 65 67 67 67 68 68 68 69 70 72 72 72 72 73 75 74 74 74 75 74 75 75 75 75 75 74 74 75 74 73 73 73 73 73 73 74 75 75 76 75 75 73 74 75 75 75 76 76 76 75 74
41 44 48 49 47 50 56 61 61 61 64 64 64 65 67 67 67 67 67 68 68 69 70 70 71 73 75 74 73 73 74 74 74 75 74 74 74 74 75 75 74 74 74 72 73 74 73 75 74 75 75 75 76 75 73 75 76 73 74 75 75 75 74
37 45 44 46 50 49 52 59 61 61 64 65 64 65 66 66 66 66 67 67 68 68 69 68 69 71 74 74 74 74 73 73 74 74 74 74 72 72 73 74 74 75 74 72 71 74 74 74 74 76 76 76 76 76 75 76 75 75 74 74 75 74 73
41 45 48 46 47 44 51 53 61 64 65 65 66 66 66 65 66 67 66 66 66 66 67 68 68 69 73 74 73 73 74 74 74 73 72 71 71 71 71 70 73 74 74 73 71 72 75 74 75 76 77 76 76 76 76 75 75 75 74 74 74 75 75
40 51 53 50 53 53 51 49 60 66 66 70 69 63 66 66 66 65 66 65 65 66 66 67 68 68 71 72 71 71 73 72 72 72 72 71 70 69 69 69 71 73 73 73 71 70 73 75 75 77 77 75 75 75 76 76 76 76 74 74 74 75 74
55 56 58 54 53 52 53 62 66 70 70 71 66 63 68 68 65 64 65 66 65 64 65 66 66 67 69 71 70 71 72 73 71 70 71 70 69 68 68 68 70 71 72 72 71 70 70 74 75 76 77 77 76 76 76 76 76 76 75 73 73 74 74
49 55 59 55 58 57 62 66 67 68 70 65 63 63 63 64 64 64 66 66 64 64 65 67 67 68 68 70 70 71 71 71 71 72 70 71 69 69 69 69 68 68 69 72 71 71 70 72 75 75 76 77 77 76 77 77 76 77 77 75 74 74 74
55 50 56 58 60 61 62 64 65 67 69 65 63 63 63 63 63 65 66 64 64 63 63 65 67 68 69 71 71 72 71 71 73 73 73 73 74 73 70 70 69 70 70 73 73 71 71 70 74 75 76 77 77 77 77 77 77 77 77 76 74 73 74
33 34 51 51 60 65 64 63 66 67 66 66 63 63 63 63 63 66 66 65 66 62 63 65 67 68 68 70 72 73 74 75 74 75 74 74 75 74 73 73 73 73 73 74 74 73 72 71 72 75 76 76 77 77 76 76 76 77 76 76 75 74 73
25 28 37 47 57 61 66 66 67 67 68 69 66 66 62 64 66 63 63 63 63 65 63 65 67 69 68 69 72 73 74 76 76 76 76 75 76 77 75 74 74 73 75 74 73 74 74 74 73 73 75 75 76 77 76 76 76 73 67 69 75 74 73
30 31 31 42 64 59 64 65 67 69 69 70 69 66 65 65 65 63 61 61 62 64 63 62 69 67 68 70 71 74 76 76 76 76 76 76 76 77 77 76 74 75 75 75 74 75 77 75 73 72 74 74 75 75 76 75 75 67 65 65 67 73 74
34 39 37 36 40 50 63 64 66 68 67 66 67 67 65 68 65 63 62 61 61 61 61 62 64 65 71 69 73 76 76 75 76 76 76 77 76 76 77 76 75 75 75 73 73 76 74 74 74 75 73 74 74 74 75 75 69 64 64 64 65 67 74
35 34 37 43 43 44 44 48 58 68 64 63 65 64 63 64 62 65 65 65 63 64 62 61 60 66 72 70 72 75 76 76 76 76 77 77 77 77 77 76 75 75 74 73 74 74 75 76 74 74 74 74 75 74 74 74 67 64 63 64 63 64 69
38 39 39 39 40 40 46 48 55 55 46 58 59 56 63 64 61 63 63 63 64 63 67 66 64 67 70 73 74 75 76 76 76 76 77 77 77 77 76 76 76 75 74 74 75 74 75 75 75 75 76 75 75 76 74 75 66 62 62 62 62 63 66
42 43 44 44 48 58 71 68 67 65 64 57 49 54 59 62 62 62 62 63 62 65 71 71 70 71 72 73 74 75 75 76 77 77 77 77 77 77 76 76 76 75 74 73 73 74 74 74 75 75 75 74 74 74 74 73 64 61 61 61 61 62 63
35 35 37 50 64 64 69 66 67 61 64 68 63 54 54 55 59 59 60 61 62 63 68 71 72 70 72 73 72 73 75 76 77 77 77 77 77 76 76 76 77 76 75 74 73 73 73 74 74 75 75 75 74 74 74 72 62 60 60 60 60 61 69
29 46 57 60 59 63 69 68 67 68 70 68 65 59 54 52 52 57 59 60 61 67 65 67 70 69 72 72 72 72 74 76 76 77 77 77 77 76 76 76 76 76 76 74 73 72 73 74 73 75 75 75 75 73 73 72 66 59 59 59 59 61 71
58 60 61 65 66 64 67 69 71 71 70 70 69 67 65 61 57 61 66 63 62 62 64 66 66 68 71 70 72 73 75 76 76 77 77 77 77 76 76 75 76 76 76 74 73 71 72 73 74 74 74 73 73 72 73 73 67 57 57 58 58 63 72
62 63 63 63 63 64 67 70 72 70 69 70 66 69 71 70 67 63 65 66 64 65 65 65 66 67 68 69 72 74 75 75 76 76 76 77 77 76 76 75 76 76 76 74 74 73 73 73 74 73 74 72 72 68 71 72 68 56 57 57 57 63 74
63 63 63 62 63 68 69 71 71 73 70 68 73 73 72 70 68 67 65 65 62 61 63 66 67 69 69 69 71 74 75 75 77 77 76 77 77 77 76 76 75 75 75 75 74 73 72 71 72 73 73 73 73 72 71 72 73 67 55 56 56 58 73
63 63 63 62 64 69 68 68 70 71 70 73 74 72 71 70 67 67 68 68 67 65 64 66 68 70 72 72 70 72 75 75 76 76 77 77 77 75 75 74 74 74 75 74 73 73 73 72 71 71 72 72 73 72 72 71 72 73 55 55 55 56 63
63 63 62 65 68 68 67 66 71 71 70 72 71 72 70 70 70 69 69 68 67 67 65 68 71 71 73 73 72 71 73 75 76 76 76 77 76 76 75 75 75 75 74 72 73 75 75 75 73 72 72 73 72 74 73 70 66 73 57 54 54 55 57
65 63 64 65 66 66 65 68 70 70 71 70 70 72 73 68 70 70 69 69 70 68 68 68 70 72 73 74 73 74 73 75 76 76 76 76 76 76 75 75 75 75 76 76 75 75 75 75 75 74 73 72 73 73 74 75 75 63 66 54 54 53 55
65 65 64 63 63 66 65 69 71 71 72 70 72 73 74 74 70 71 71 71 72 72 71 71 71 73 73 73 74 73 73 74 75 76 76 76 76 76 76 76 75 76 76 76 75 74 75 74 74 73 72 71 71 71 71 74 74 66 61 61 53 54 54
63 64 64 65 64 67 66 67 69 70 70 70 72 73 74 75 72 71 74 76 76 76 74 72 71 72 73 73 74 74 74 74 76 76 76 76 76 76 76 76 76 75 76 76 75 74 74 74 73 73 72 71 70 70 71 72 76 74 69 58 54 54 53
63 64 64 64 66 67 67 67 68 69 69 69 70 71 72 72 73 74 74 74 74 76 76 75 74 75 75 75 75 75 74 73 74 75 75 76 75 76 76 76 75 74 75 74 73 73 73 73 71 71 72 72 72 70 70 72 72 73 74 62 57 55 54
64 64 64 65 66 67 67 67 67 68 68 69 69 70 70 71 71 71 72 73 73 73 76 75 74 74 74 75 74 75 75 74 72 72 74 75 74 74 74 74 73 73 73 73 71 73 72 73 72 71 70 70 70 71 73 71 71 71 72 73 67 64 62
64 65 66 65 65 67 67 67 67 67 68 68 69 69 69 69 70 71 71 71 72 73 75 75 74 74 74 74 74 74 75 75 73 73 71 72 72 71 71 73 73 72 73 72 72 72 72 71 71 70 70 69 70 71 72 71 71 71 70 70 71 69 67
65 65 65 66 66 66 66 66 66 67 67 68 68 69 69 69 70 70 71 72 73 74 72 72 74 75 75 74 73 73 74 73 73 71 72 73 75 74 75 72 71 73 74 73 72 71 70 71 70 71 71 70 72 71 71 71 71 71 64 72 65 69 69
64 64 65 65 66 66 66 67 67 67 68 68 69 68 67 68 68 69 69 70 71 72 73 73 73 73 72 72 72 69 71 71 70 71 70 71 71 73 73 72 65 73 75 72 69 61 54 59 72 72 71 71 72 73 70 70 72 56 51 51 52 55 57
65 66 66 67 67 67 67 67 67 67 68 68 69 68 68 68 67 68 69 69 70 70 71 71 71 70 70 70 70 69 72 69 69 71 72 71 69 69 69 68 76 57 55 62 63 58 55 52 51 52 56 69 72 72 65 61 57 54 53 53 55 54 50
66 66 66 66 66 67 67 68 68 68 68 68 68 67 68 67 68 68 68 69 69 70 70 70 70 70 69 69 70 71 71 70 71 71 71 72 73 73 72 73 73 77 63 54 58 56 53 56 55 53 53 52 55 61 71 65 58 50 48 48 47 48 48

ECMWFFLT1_sfc_dewp_036.txt.gz
Dewpoint
47 55 54 56 57 56 57 61 63 64 65 66 68 67 67 69 71 72 73 74 74 75 75 75 75 75 74 74 75 75 75 75 76 75 74 73 73 72 74 74 74 75 74 74 74 74 75 75 74 74 76 76 76 76 78 78 78 77 78 78 78 77 76
44 47 56 57 57 57 58 63 64 63 63 66 68 69 68 69 71 72 73 74 75 75 75 75 75 75 75 75 75 75 75 75 76 75 74 74 74 74 73 75 76 76 76 75 75 76 76 75 75 74 75 76 76 76 76 77 78 78 77 78 77 78 77
43 40 55 55 55 56 61 62 63 62 66 63 67 67 67 70 71 73 74 74 75 75 75 75 75 75 75 75 75 75 75 75 75 75 73 72 73 70 73 74 76 76 76 76 76 76 75 75 75 76 75 75 74 76 76 77 78 77 77 78 77 76 77
46 42 47 57 60 61 60 61 63 64 64 66 67 67 68 71 71 73 74 74 75 75 75 75 74 74 75 75 75 75 75 75 75 73 72 72 72 71 72 73 75 75 76 75 73 74 73 74 75 75 76 75 75 76 76 76 76 77 77 78 77 76 77
47 44 42 55 56 58 59 61 62 64 62 64 66 70 69 70 70 71 73 74 74 75 75 74 73 75 75 75 74 74 75 75 75 73 73 72 73 72 71 70 72 73 74 75 75 74 76 75 74 75 75 76 75 76 76 76 76 77 77 77 77 76 76
46 45 47 54 54 56 58 60 61 62 61 62 65 68 67 67 67 68 71 74 74 74 75 75 74 75 75 75 74 75 75 75 75 75 73 73 74 72 71 71 71 72 71 74 74 74 74 76 74 75 74 74 74 74 75 76 75 76 77 77 76 75 74
45 45 47 55 56 58 57 53 55 60 58 63 66 68 67 66 67 67 69 73 73 74 74 73 74 74 75 75 75 75 75 74 75 74 74 73 73 73 73 73 72 72 72 74 74 74 73 74 75 75 75 73 74 73 75 76 75 75 76 77 76 76 75
46 46 47 48 48 50 53 58 61 63 65 64 62 66 67 66 66 66 68 71 72 73 73 73 73 74 75 75 74 73 74 73 74 74 73 73 72 72 72 73 73 73 74 73 74 74 73 73 73 75 76 75 75 75 76 76 76 75 76 76 76 76 75
46 48 44 42 45 43 51 59 61 61 65 67 64 66 67 66 65 66 68 69 71 72 72 72 72 73 75 75 74 73 74 74 74 73 73 71 70 69 69 72 73 73 74 72 72 74 73 73 72 74 76 76 76 76 76 76 76 75 75 76 76 76 74
50 49 48 45 45 44 54 56 60 64 64 65 67 69 68 67 67 67 67 68 69 70 71 71 71 72 73 74 73 72 73 74 74 72 70 70 71 70 68 70 71 73 73 72 71 72 74 74 74 75 76 76 77 77 76 76 76 75 75 76 76 76 75
50 52 50 47 53 54 59 61 63 65 64 68 69 67 69 69 68 66 67 67 68 69 70 70 71 71 72 72 71 71 72 71 72 72 72 71 69 70 69 70 71 72 71 71 71 72 73 74 75 76 76 76 76 77 77 76 76 75 74 75 76 76 75
53 52 52 52 56 56 57 61 63 65 67 69 68 66 70 70 68 67 67 67 67 68 69 70 70 70 71 72 71 71 72 72 70 70 72 70 69 69 69 70 69 71 72 72 71 72 72 74 75 76 76 76 76 77 77 76 76 76 75 74 74 75 75
57 56 54 53 58 58 63 65 65 64 66 68 66 65 67 68 67 67 69 69 67 67 68 70 69 70 70 71 70 71 71 71 70 71 71 71 70 69 70 70 68 69 72 72 71 71 70 73 75 75 76 77 76 76 77 77 76 76 76 75 74 75 75
58 50 54 59 62 65 62 66 67 68 69 67 66 66 65 66 67 68 70 68 68 66 66 67 69 70 71 72 72 72 70 71 72 72 72 72 72 72 71 70 70 71 72 74 73 72 71 72 74 75 75 76 76 76 77 77 76 76 77 76 75 75 75
43 44 50 51 62 63 69 65 71 72 71 69 66 66 65 65 66 69 70 69 69 66 66 68 70 70 70 72 73 73 72 73 73 73 73 73 73 73 72 71 72 72 72 74 74 73 72 71 73 75 75 75 76 76 76 76 76 76 76 76 76 75 74
37 42 46 52 59 58 67 70 74 73 73 72 67 68 64 66 68 68 67 67 66 68 67 69 70 71 69 71 73 74 74 74 74 74 73 73 74 73 73 72 72 72 72 74 75 74 74 73 71 73 74 75 76 76 76 75 75 72 67 70 75 75 74
33 39 44 51 63 61 68 70 72 74 75 74 72 70 68 67 68 66 64 64 64 68 67 67 71 70 70 71 73 74 75 75 75 75 74 74 74 74 74 73 73 73 73 73 74 75 75 74 72 70 72 74 74 75 76 75 74 67 65 66 68 73 74
37 50 48 51 55 63 66 66 69 71 71 69 68 71 69 71 68 64 63 64 64 64 64 66 69 69 71 71 74 76 76 75 76 76 75 75 75 75 75 73 73 73 73 73 73 75 75 74 74 73 72 74 74 75 76 76 69 65 65 65 66 68 74
36 36 44 57 58 62 58 60 62 70 65 64 66 66 65 69 64 67 66 67 67 66 64 63 63 70 72 71 74 76 76 76 76 76 76 76 75 75 75 75 74 73 73 72 73 74 75 75 74 74 73 73 75 74 75 76 68 64 63 64 65 65 69
33 33 36 39 47 56 65 67 65 65 61 68 67 61 62 65 65 68 66 65 69 67 67 67 66 69 73 73 74 76 76 76 76 76 77 77 76 76 76 75 74 73 73 73 74 74 74 74 75 74 74 74 75 76 75 75 68 63 62 63 63 64 67
44 45 47 52 55 65 70 71 70 69 66 54 53 66 67 64 62 66 65 66 66 68 72 71 70 70 74 73 74 76 77 77 76 76 77 77 77 76 76 76 75 75 74 73 73 73 74 74 74 75 74 74 73 75 75 74 67 62 61 62 62 63 64
33 34 43 61 68 70 70 64 65 58 67 70 62 54 51 60 61 59 60 62 64 66 70 73 72 70 75 74 74 75 76 77 77 77 77 77 77 76 76 76 76 76 75 74 72 73 73 75 74 74 75 75 74 73 74 74 64 61 60 60 61 62 68
61 62 62 63 61 65 71 71 71 71 71 69 67 61 56 52 53 59 59 60 61 69 69 70 73 71 73 75 73 74 76 76 76 77 77 78 77 77 76 76 77 77 76 74 73 73 72 73 72 74 74 75 75 74 73 73 67 60 59 59 59 62 70
61 62 60 61 65 67 70 70 68 66 65 65 64 64 65 63 64 72 73 65 65 66 67 69 70 72 72 74 74 74 76 77 77 77 77 78 78 77 76 76 77 76 76 74 73 71 71 72 72 73 73 73 74 73 73 73 69 58 57 58 58 63 71
61 61 60 62 66 65 65 68 69 69 71 70 70 72 70 71 72 73 73 74 66 67 67 67 69 71 71 73 75 75 76 76 77 77 77 78 78 77 77 76 77 77 77 74 74 72 73 73 73 73 73 72 73 69 73 73 69 58 57 57 57 62 72
62 62 60 61 64 64 67 70 70 71 68 70 73 73 74 72 73 74 75 75 68 63 66 68 69 72 72 73 75 75 76 76 77 78 78 78 78 78 77 77 76 76 76 75 73 73 72 72 73 73 73 73 73 73 73 73 74 68 55 56 56 58 71
62 63 61 60 61 70 67 66 70 70 69 73 74 71 71 72 71 74 75 75 74 69 65 69 72 73 74 74 73 74 76 76 77 78 78 78 78 77 76 76 76 75 76 74 73 73 74 72 72 72 73 73 74 73 74 74 74 73 55 55 55 56 62
63 63 63 62 67 67 66 66 70 70 70 72 71 72 74 75 74 75 75 74 73 73 71 78 73 74 75 75 73 73 75 75 77 78 78 79 79 79 78 77 77 76 76 74 75 75 75 75 73 72 72 73 74 75 75 73 68 74 58 55 54 55 56
63 63 63 64 64 66 64 66 69 68 71 70 70 70 73 74 75 72 73 73 73 73 75 77 76 75 76 76 74 74 76 77 77 78 78 78 78 78 77 77 77 77 77 77 77 77 76 76 75 74 73 74 74 75 76 77 75 64 66 54 54 53 55
63 63 63 63 64 66 65 66 69 69 71 70 71 72 74 74 75 71 72 75 78 75 75 78 74 78 76 76 76 76 75 77 77 78 78 79 78 78 78 78 77 78 78 78 77 77 77 77 76 75 74 72 73 73 73 77 77 69 62 60 53 54 54
62 63 63 63 63 66 65 65 68 69 70 70 71 72 73 73 75 74 75 76 78 77 78 78 77 78 77 76 76 77 76 77 78 78 78 78 78 78 78 78 77 77 78 78 77 77 76 77 76 76 75 74 74 74 76 76 78 78 68 58 54 53 53
63 63 63 62 64 64 65 66 67 67 68 69 69 70 72 72 71 73 73 74 75 76 78 78 77 77 78 77 77 78 77 77 76 78 77 77 77 78 78 77 76 76 78 77 76 76 76 76 75 75 75 75 75 75 74 76 77 76 75 62 57 55 54
65 64 64 64 64 65 65 66 66 66 67 68 69 69 70 71 71 72 73 74 73 74 76 77 77 77 77 78 79 78 78 76 72 72 74 76 75 75 77 77 76 75 76 76 75 75 76 75 75 74 74 74 74 74 75 74 75 76 76 75 67 63 61
65 65 65 66 66 65 66 65 66 66 68 68 68 69 69 69 70 71 72 72 73 74 74 75 75 75 76 75 77 78 78 78 76 74 71 72 73 72 73 75 76 76 77 75 75 75 74 74 73 73 72 72 72 73 74 74 74 76 70 70 72 71 68
64 64 65 66 66 66 67 67 66 67 68 68 68 69 70 70 71 71 72 72 73 76 75 76 74 76 74 74 76 77 78 76 74 73 76 75 75 77 78 75 75 76 77 76 76 75 72 72 73 73 73 72 74 73 72 74 72 64 56 63 56 63 69
64 65 65 67 67 67 66 66 67 68 68 68 68 68 68 68 69 70 69 71 73 73 74 75 76 74 73 73 72 69 72 72 70 72 72 73 76 76 76 66 59 75 75 71 63 59 60 63 71 72 73 73 73 73 71 69 64 49 46 46 46 47 48
65 66 66 66 67 68 68 69 68 67 67 68 68 68 68 68 67 69 69 72 73 72 73 73 75 75 72 72 70 70 73 71 72 74 77 77 73 76 74 72 69 52 57 62 61 55 50 50 51 53 58 70 70 64 52 51 46 44 44 45 45 45 45
65 65 66 66 66 67 67 67 68 69 68 68 68 68 68 67 68 69 68 70 70 72 73 73 74 72 72 72 72 73 73 73 73 74 75 75 75 76 76 76 75 71 57 50 52 50 48 48 48 49 50 53 58 64 66 55 47 45 45 45 45 44 45

ECMWFFLT1_sfc_dewp_039.txt.gz
Dewpoint
54 56 58 59 60 61 61 62 62 62 63 65 65 66 67 68 68 69 70 70 70 70 71 71 71 71 71 70 71 71 72 72 72 72 71 71 71 72 72 72 71 72 72 73 73 73 73 73 73 73 74 75 75 76 76 76 76 76 76 75 75 74 74
54 56 57 58 59 60 61 62 62 61 64 65 66 66 66 68 69 69 70 70 70 70 71 71 71 72 71 71 71 72 72 72 72 72 72 72 72 72 72 72 72 71 73 73 73 74 74 73 73 73 74 75 74 75 76 76 76 76 75 76 75 75 74
53 55 56 57 59 59 61 62 62 62 64 65 66 66 66 67 68 69 70 70 70 70 71 71 71 71 72 71 71 72 72 72 72 72 72 71 71 71 72 73 72 72 72 73 73 74 74 73 73 72 74 74 74 74 75 76 76 76 75 76 75 75 74
52 53 55 57 59 60 61 61 62 62 64 65 65 66 66 67 68 70 71 71 70 71 71 71 71 71 72 71 71 72 72 72 72 72 72 71 71 70 71 73 73 73 73 73 74 73 74 74 73 72 75 74 74 74 74 75 76 76 75 76 75 75 75
51 52 53 56 57 59 60 61 62 62 63 64 65 66 66 66 68 69 71 71 71 71 71 71 71 71 72 72 72 72 72 72 72 72 72 72 71 71 70 70 73 73 73 73 74 74 73 74 73 73 73 74 74 74 74 74 76 76 75 76 75 75 75
51 51 53 56 57 58 59 60 62 62 62 63 65 65 65 65 67 69 70 72 71 71 71 71 72 72 72 72 72 72 72 72 73 73 73 72 71 71 70 69 71 73 74 73 74 74 74 73 73 73 73 73 74 74 74 74 75 75 75 76 75 74 74
52 52 54 55 56 57 57 59 60 61 62 63 64 65 65 65 67 68 70 71 72 72 71 71 72 72 72 72 72 72 72 72 72 72 72 72 71 71 70 70 70 71 73 74 73 73 73 73 73 72 73 73 73 73 74 74 74 75 75 75 75 75 75
52 52 53 55 55 56 56 58 59 60 61 62 63 65 65 65 67 68 69 70 72 72 72 71 72 72 72 73 72 72 72 71 71 72 72 72 71 71 70 70 70 70 71 73 74 73 72 73 73 73 72 72 73 73 74 74 74 74 75 75 75 75 75
47 52 52 53 55 56 56 58 59 60 61 61 62 65 66 66 66 68 69 70 71 72 72 72 72 72 72 73 73 72 72 72 72 72 72 71 71 70 70 70 69 70 70 71 73 73 72 71 73 73 73 72 73 73 74 74 74 74 75 75 75 74 74
44 52 52 53 54 56 56 58 60 61 61 61 63 65 67 67 67 67 68 70 71 72 72 72 72 72 72 72 73 72 72 72 72 71 71 71 70 70 70 69 69 70 70 70 71 73 73 72 71 73 74 73 72 72 73 74 74 74 74 75 75 74 74
45 54 54 53 54 55 57 57 59 61 62 62 63 63 66 67 67 66 67 69 71 72 72 73 72 72 72 72 72 72 72 72 72 71 71 71 70 70 70 69 69 69 69 70 70 71 72 73 72 71 74 74 73 72 72 73 74 74 74 74 75 74 74
45 53 54 54 55 55 56 58 59 61 62 63 64 64 66 67 67 66 66 67 70 72 72 73 73 72 71 72 72 72 72 72 71 71 71 71 70 69 69 69 69 69 70 70 70 71 72 72 72 71 71 73 74 73 73 73 74 74 74 74 74 74 74
45 51 53 54 55 55 56 59 59 61 63 64 64 64 65 66 66 66 67 67 68 71 73 73 73 72 72 71 71 72 71 71 71 71 71 70 70 69 69 68 68 69 70 70 70 70 71 72 72 72 71 72 73 74 74 74 74 74 74 74 74 74 74
55 48 50 52 54 55 57 60 60 62 64 64 64 64 65 66 67 67 66 66 67 69 71 72 73 72 72 72 71 71 71 71 71 71 71 70 70 69 69 68 67 68 70 70 70 70 70 71 72 72 72 72 72 73 75 75 74 74 74 74 73 74 74
46 45 54 54 56 57 59 60 62 63 64 65 65 64 66 67 67 67 67 67 67 68 69 71 72 72 72 71 71 71 71 71 71 71 71 71 70 69 69 69 68 68 69 70 70 70 70 71 71 71 72 72 73 73 74 75 75 74 74 74 73 73 74
45 51 54 56 58 59 60 61 62 63 63 64 64 65 66 67 68 67 67 67 67 67 68 70 71 71 71 71 71 71 71 71 70 70 71 71 70 70 69 69 69 69 69 70 70 70 70 70 71 71 72 72 73 73 73 74 75 72 67 68 73 73 73
49 51 52 55 60 62 61 61 63 63 64 65 65 65 66 68 68 68 67 67 67 67 67 68 70 70 70 71 71 71 71 70 70 70 70 71 71 70 70 69 69 69 69 70 71 71 71 70 70 70 71 72 72 73 73 74 73 67 65 65 67 72 73
50 52 53 57 63 66 66 66 66 65 64 65 66 66 65 67 68 68 67 67 67 67 67 67 69 70 70 70 71 72 72 71 70 70 70 70 70 71 70 69 69 69 69 70 71 72 71 71 70 70 71 72 72 73 73 74 68 65 64 64 64 67 73
52 55 59 63 65 65 66 68 69 69 67 66 66 66 66 66 67 67 67 67 68 68 67 67 67 69 70 70 71 72 72 71 71 71 70 70 70 71 71 70 69 69 69 69 70 72 72 72 71 71 71 72 72 72 72 73 68 64 63 64 64 64 68
45 54 60 63 65 66 65 66 69 69 68 69 68 68 68 68 67 67 67 67 67 67 67 67 67 68 70 70 70 72 72 72 71 71 71 71 70 70 71 70 69 69 69 69 70 71 72 72 72 72 71 71 72 72 72 72 68 63 62 62 62 63 65
59 64 65 65 64 63 63 65 68 70 69 65 64 68 66 66 66 68 66 66 67 67 67 67 67 68 70 70 70 72 72 72 72 71 72 72 71 71 71 71 70 70 69 69 69 69 71 72 72 72 72 71 70 71 72 72 66 63 61 61 61 62 63
62 66 68 70 70 71 70 70 69 69 70 71 68 63 59 64 64 64 65 65 66 68 67 68 67 67 71 70 70 72 73 73 72 72 72 72 72 71 71 71 71 70 70 69 69 69 70 71 72 72 72 72 71 70 71 72 65 62 61 60 60 61 68
63 65 66 66 67 68 69 69 68 68 68 66 66 64 64 63 62 63 63 64 64 67 69 69 68 67 71 71 70 71 73 73 73 72 72 73 72 72 71 71 72 71 71 70 69 69 69 69 70 71 72 72 72 71 70 71 66 61 60 59 59 61 69
60 63 64 63 64 65 67 68 69 70 70 68 69 70 70 68 70 71 75 67 64 65 67 69 69 69 69 72 71 71 73 74 73 73 73 73 73 73 72 72 72 72 72 70 70 69 69 69 70 70 71 71 72 72 71 71 67 59 58 58 58 62 70
61 61 61 62 64 66 66 67 70 71 72 72 71 72 72 73 74 73 73 74 72 65 65 66 67 70 70 72 72 72 74 74 74 73 73 73 73 73 73 73 73 73 73 72 71 70 70 70 70 70 71 71 72 69 71 71 69 58 57 56 57 62 71
62 62 60 60 63 66 66 70 71 70 70 70 71 73 71 73 72 73 75 76 74 71 65 64 66 69 70 72 73 73 74 74 75 74 74 74 74 74 74 74 74 74 74 73 73 72 71 71 71 70 70 71 72 72 72 72 72 68 55 55 55 58 70
62 62 62 64 67 69 66 69 69 69 70 72 72 72 73 75 75 73 73 75 74 73 72 67 67 70 71 72 74 73 74 75 75 75 74 74 75 75 75 75 74 74 74 74 73 73 72 72 71 71 71 71 71 71 72 73 73 71 55 54 54 56 61
63 63 63 66 70 68 65 69 68 68 70 71 71 71 72 74 74 75 74 74 74 74 72 72 69 70 71 72 73 73 74 75 75 75 76 75 76 76 76 76 75 75 75 74 74 73 73 72 72 71 71 72 72 72 72 72 69 73 57 54 53 54 56
63 63 63 64 64 65 65 65 70 69 71 70 71 72 73 72 73 75 73 75 76 77 78 77 73 71 71 72 73 73 74 74 75 76 77 76 76 76 76 76 76 75 75 75 74 74 73 73 72 72 71 71 73 73 74 74 73 65 66 54 53 53 54
63 63 63 62 63 64 65 65 67 70 72 72 72 72 72 72 74 76 74 74 75 76 77 77 77 74 72 71 72 74 74 75 76 76 77 77 77 76 76 76 76 75 75 75 74 74 74 73 73 73 72 71 71 73 74 75 75 68 63 60 53 54 54
64 64 63 63 64 66 65 65 65 69 70 69 70 71 72 71 72 73 72 72 75 75 75 76 77 76 74 73 72 74 74 75 76 76 77 77 77 77 76 76 76 75 75 75 75 74 74 74 74 73 73 72 72 72 73 74 76 76 67 59 55 54 54
64 64 65 64 65 65 65 65 65 68 68 68 69 69 71 72 71 71 71 74 73 75 75 75 76 77 76 75 74 74 76 75 76 76 77 77 77 77 77 76 76 75 76 76 75 75 74 75 75 74 74 73 73 73 73 74 74 75 74 63 58 55 54
64 65 65 64 66 67 65 67 67 68 68 69 69 70 70 71 71 72 72 73 73 74 75 76 77 77 76 76 76 75 76 76 75 76 76 77 77 77 77 77 76 76 75 76 75 75 75 75 75 74 74 74 74 74 74 74 74 73 70 68 64 62 61
65 65 65 67 68 68 68 67 68 69 68 68 69 70 70 69 69 70 72 72 72 74 75 75 76 76 76 77 77 76 75 75 78 77 76 76 76 76 77 77 77 76 75 76 75 75 75 74 74 74 74 74 74 74 74 74 68 67 67 68 69 66 64
65 65 66 67 68 69 67 67 68 68 68 67 69 69 70 69 69 69 71 72 72 73 74 76 78 76 75 76 78 76 76 76 76 75 75 75 75 74 74 76 76 76 76 74 76 75 75 75 74 74 74 73 73 73 71 65 64 63 50 57 51 64 67
65 66 66 67 68 68 68 69 69 68 67 67 68 68 67 69 70 70 70 71 71 72 73 74 75 74 72 71 71 71 74 74 74 74 74 74 74 71 67 61 50 60 72 67 61 55 55 62 71 72 66 60 58 63 68 63 61 50 46 47 45 44 45
65 65 66 67 67 67 67 68 69 70 69 68 68 68 68 68 68 69 70 70 71 72 73 72 72 71 71 70 71 71 72 73 74 75 75 75 72 70 68 65 61 49 47 55 55 50 48 48 50 55 57 60 57 55 51 50 45 44 45 44 45 45 46
65 65 66 66 67 67 67 68 68 68 69 69 70 69 69 69 69 69 70 69 70 71 72 72 71 71 71 72 71 71 71 71 72 72 73 73 72 70 67 65 63 61 51 46 49 48 47 47 48 49 50 53 55 57 54 47 44 43 43 44 44 45 44

ECMWFFLT1_sfc_dewp_042.txt.gz
Dewpoint
56 57 59 60 60 60 60 60 60 61 62 62 64 64 64 65 66 66 67 68 68 68 69 70 70 70 69 69 69 70 70 70 70 70 69 70 70 69 69 70 69 69 70 71 72 72 73 73 73 73 75 75 75 76 76 76 75 75 75 75 75 74 74
55 56 58 60 60 60 61 61 61 61 62 62 64 64 64 65 66 66 67 68 68 68 69 69 70 69 69 69 69 70 70 70 70 70 70 70 71 70 69 69 70 70 70 71 72 72 73 73 73 73 74 75 75 75 76 76 76 75 75 75 75 74 74
55 56 57 59 60 61 61 61 61 61 62 62 63 64 64 65 66 66 67 68 68 68 69 69 70 69 69 69 69 69 70 70 70 70 70 69 70 70 70 70 70 71 70 71 72 73 73 73 73 73 73 74 75 75 75 76 76 75 75 75 74 74 74
55 56 57 59 60 61 61 61 61 61 62 62 63 64 65 66 66 67 67 68 68 68 68 69 70 69 69 69 69 69 69 70 70 70 70 70 70 70 71 71 70 71 72 71 72 73 73 73 73 73 74 73 74 75 75 75 75 75 75 75 74 74 74
55 56 57 58 59 60 61 61 61 61 62 63 63 64 65 66 67 67 67 68 68 68 68 68 69 70 70 69 69 69 70 70 70 70 70 71 70 70 71 71 71 70 71 72 73 73 73 73 73 72 73 73 73 74 74 75 75 75 75 75 74 74 74
55 55 56 57 59 60 60 61 61 61 61 62 63 64 65 66 67 67 68 68 68 68 69 69 69 70 70 70 70 70 70 70 70 71 71 71 71 70 70 71 71 71 70 71 73 73 73 73 73 72 72 73 73 73 74 74 75 75 75 75 74 74 74
55 55 56 57 58 59 60 60 61 61 62 63 63 64 65 66 67 67 68 68 68 68 69 69 69 69 70 70 70 70 70 70 71 71 71 71 71 71 70 71 72 72 71 71 72 73 73 73 73 72 72 72 73 73 73 73 74 75 75 75 74 74 74
54 55 56 57 58 59 60 61 61 61 62 63 63 64 64 66 67 67 68 69 69 69 69 69 69 69 70 70 70 70 70 70 71 71 71 71 71 71 70 70 71 72 72 71 71 73 73 73 73 73 72 72 72 73 73 73 73 74 75 74 74 74 74
53 55 55 56 57 59 60 61 61 61 62 63 63 64 64 65 66 67 68 69 69 69 69 69 69 70 70 70 70 70 70 70 71 71 71 71 71 71 70 70 70 71 72 72 72 72 73 72 72 73 73 72 72 73 73 73 73 73 74 74 74 74 74
52 54 55 56 57 58 60 60 61 61 62 63 64 64 65 65 65 67 68 69 69 69 69 69 70 70 70 70 70 70 71 70 71 71 71 71 71 71 71 70 70 70 71 72 72 72 73 73 72 72 72 72 72 72 72 73 73 73 73 74 74 74 74
52 54 55 56 57 58 59 60 61 62 62 63 64 64 65 65 65 65 67 68 69 69 70 70 70 70 70 70 70 70 70 70 70 70 71 71 71 71 71 70 70 69 69 70 72 73 73 73 73 73 72 72 72 72 72 72 73 73 73 73 74 74 74
52 53 55 56 57 57 58 60 61 62 62 63 63 64 65 65 64 65 66 67 69 70 70 70 70 70 70 70 70 70 70 70 70 70 70 70 71 71 71 70 70 69 69 69 69 71 73 72 72 73 73 72 72 72 72 72 73 73 73 73 73 74 74
51 53 54 55 56 57 58 59 61 62 62 62 63 64 64 64 64 64 66 67 68 70 70 70 70 70 70 70 70 70 70 70 70 70 70 70 70 71 71 70 70 69 69 69 68 69 71 72 72 72 72 73 72 72 72 72 73 73 73 73 73 74 74
58 52 54 55 55 56 57 58 60 61 62 62 62 63 64 64 64 64 66 67 68 69 70 71 71 71 71 71 71 71 71 71 71 71 71 71 71 71 70 70 70 70 69 69 68 68 69 71 72 72 72 72 73 73 72 72 72 73 73 73 73 73 73
51 51 53 53 55 56 57 58 60 60 61 61 62 63 64 65 65 65 66 67 68 69 70 71 71 71 71 71 71 71 71 71 71 71 71 71 71 71 70 70 70 70 70 69 69 69 69 69 71 72 72 71 72 72 73 72 72 72 73 73 73 73 73
50 51 51 52 54 55 56 58 59 61 61 61 61 62 64 66 66 66 66 66 68 69 70 71 71 71 71 71 71 71 71 72 72 72 72 71 71 71 71 70 70 70 69 69 69 69 69 69 69 70 71 71 71 71 72 73 73 70 65 67 73 73 73
49 50 50 51 53 54 56 58 59 61 62 62 62 62 63 65 66 66 66 66 67 69 70 71 72 72 72 71 71 71 72 72 72 72 71 71 71 71 71 70 70 70 69 69 69 69 69 69 69 69 70 71 71 71 71 72 72 66 64 64 66 71 73
48 50 51 52 53 54 57 58 59 60 61 62 62 62 63 64 65 66 66 66 67 68 70 71 72 72 72 72 72 72 72 72 72 72 71 71 71 71 71 70 70 69 69 68 68 69 69 69 69 69 70 70 70 71 71 71 66 64 64 64 63 66 73
49 51 52 53 55 57 57 58 59 61 61 62 62 63 63 64 65 66 66 67 67 67 68 70 71 72 72 72 72 72 72 72 71 71 71 71 71 71 71 70 70 69 68 68 68 68 69 69 69 69 69 70 70 70 71 71 66 63 63 63 63 63 67
62 62 63 62 61 61 63 64 63 62 63 63 64 64 64 66 65 66 66 67 67 67 67 68 70 71 72 72 72 72 72 72 71 71 71 71 71 71 70 70 69 69 68 68 68 68 68 69 69 69 69 69 70 70 70 71 66 62 61 62 62 63 64
67 67 67 67 67 66 67 67 66 66 66 65 65 66 66 67 67 67 67 67 67 68 68 68 69 70 71 72 72 72 72 72 72 71 71 71 71 70 70 70 70 69 68 68 68 68 68 68 69 69 69 69 69 69 70 70 65 62 61 60 61 62 63
62 63 64 65 66 66 66 66 66 66 67 67 64 63 66 67 67 68 67 68 68 68 68 68 68 69 70 71 71 72 72 72 71 71 71 70 70 70 70 70 70 69 69 68 68 68 68 69 69 69 69 69 69 69 69 69 63 61 60 60 60 61 67
63 63 64 65 66 67 68 70 70 70 71 71 71 71 70 68 64 67 67 67 67 68 68 68 68 68 69 70 71 71 72 72 72 71 71 70 70 70 69 70 70 70 69 69 68 68 68 68 69 70 70 70 70 69 69 69 65 60 59 58 59 60 68
63 64 66 67 68 69 70 71 71 71 71 71 71 72 72 72 73 73 72 68 67 68 68 68 68 68 69 70 70 71 71 72 72 71 71 71 70 70 69 69 70 70 70 69 68 68 68 68 68 69 70 70 71 70 70 70 67 59 57 57 58 62 69
64 65 65 66 67 68 68 70 71 71 71 70 70 72 74 74 73 73 73 74 71 67 67 67 67 68 68 69 70 71 71 72 72 72 71 71 71 70 70 69 69 69 70 69 69 68 68 68 68 68 69 70 71 69 70 71 68 56 57 57 57 62 70
64 65 65 65 66 67 68 69 70 70 70 70 71 72 73 73 74 75 74 73 74 71 66 66 68 68 68 69 70 71 71 71 72 72 71 71 71 71 71 70 70 69 69 69 69 68 68 68 68 68 68 69 70 70 71 71 71 64 56 56 56 58 69
63 64 64 65 65 68 65 67 69 70 70 71 71 72 72 73 74 74 74 73 73 73 74 73 69 68 70 70 71 71 71 72 72 72 72 72 71 71 71 71 70 70 70 69 69 69 69 68 68 68 68 68 69 69 70 71 71 67 55 55 55 56 61
63 63 63 65 68 67 64 65 66 69 70 70 71 71 71 73 74 74 73 73 73 74 76 76 75 70 69 70 71 71 71 72 72 73 73 72 72 72 72 72 71 71 71 70 70 70 70 69 69 69 69 69 69 70 70 72 69 72 56 55 54 55 56
63 62 63 63 64 66 65 65 65 68 70 70 70 70 71 71 72 73 72 71 72 73 75 75 76 72 69 70 72 72 72 73 73 73 74 73 73 72 72 72 72 72 72 72 71 71 71 71 70 70 70 70 71 72 72 72 72 65 63 55 54 54 54
63 63 63 64 64 65 66 66 66 68 69 68 69 70 71 71 71 72 72 70 72 73 74 74 74 73 70 70 72 72 73 73 74 74 74 73 73 73 73 73 73 73 73 73 72 72 72 72 72 71 71 70 71 72 73 73 73 66 61 61 54 54 54
63 64 65 65 65 66 66 67 67 68 68 68 68 69 69 70 70 71 70 70 72 72 73 74 75 74 71 70 72 73 73 74 74 74 74 74 74 73 73 74 74 74 74 74 73 73 72 73 72 72 72 71 71 71 72 73 74 73 66 59 56 54 53
64 64 66 67 67 67 67 68 68 67 67 67 68 69 69 68 68 68 69 71 72 72 72 74 74 75 72 71 72 73 74 74 75 75 75 75 75 75 75 74 75 74 74 74 74 74 73 73 73 72 72 72 72 72 72 73 74 74 72 65 59 56 54
64 65 65 66 68 68 67 67 67 67 67 67 67 68 69 69 68 68 69 70 70 71 72 73 75 76 74 72 73 74 74 74 75 75 76 76 75 75 76 75 75 75 74 74 74 74 74 73 73 73 73 72 73 72 72 72 72 69 67 65 65 64 62
64 64 65 66 67 68 68 67 67 67 66 66 66 67 67 68 68 68 69 69 70 71 72 74 76 75 73 73 74 74 74 74 78 76 76 76 76 76 76 76 76 75 75 75 75 74 74 74 73 73 73 73 73 73 73 71 68 68 68 66 64 64 63
64 64 64 65 66 67 67 68 68 67 66 66 66 67 66 67 68 68 69 69 70 71 72 74 75 73 71 72 74 75 75 75 77 75 76 73 63 58 54 55 65 73 74 67 67 75 75 74 74 74 74 74 74 74 71 67 66 65 52 57 55 63 64
63 64 64 66 66 66 67 69 68 68 67 67 68 67 67 68 68 68 69 69 70 71 71 71 71 71 71 71 71 73 74 75 76 75 75 71 65 62 58 56 48 50 61 61 58 52 55 66 73 73 67 62 57 62 70 69 65 50 46 44 43 42 41
63 64 65 66 66 66 66 67 68 68 67 67 68 67 67 67 67 68 68 69 70 71 70 70 70 70 70 70 71 71 73 73 74 74 74 71 68 65 62 59 56 47 46 51 53 50 46 47 51 54 57 61 58 54 50 50 46 44 44 43 43 43 42
63 63 64 65 65 65 66 66 67 67 67 67 67 67 66 66 67 67 68 69 70 70 70 70 70 69 69 70 70 70 71 73 73 73 71 69 67 65 63 61 59 57 50 46 48 48 47 46 47 47 49 51 55 56 56 49 45 44 44 44 43 43 42

ECMWFFLT1_sfc_dewp_045.txt.gz
Dewpoint
53 56 58 59 59 60 60 60 60 61 61 62 63 64 65 66 67 67 67 68 68 68 69 70 70 70 70 70 70 70 70 70 70 69 69 70 70 69 69 69 68 69 71 71 72 72 72 73 73 73 74 74 75 75 75 75 75 75 75 75 74 74 74
53 54 57 58 59 60 60 60 60 61 61 62 62 64 64 66 67 67 67 68 68 68 69 69 70 70 70 70 70 70 70 70 70 70 70 70 70 70 69 69 68 68 70 71 71 72 72 73 73 73 73 74 75 75 75 75 75 75 75 75 74 74 74
52 54 56 58 59 59 60 60 60 60 61 62 62 63 64 65 66 67 67 68 68 68 69 69 70 70 70 70 70 70 70 70 70 70 69 69 69 69 69 69 69 68 69 70 71 72 73 72 73 73 73 74 74 74 75 75 75 75 75 75 74 74 74
52 54 56 57 59 59 60 60 60 60 61 61 62 63 64 65 66 67 67 67 67 68 68 69 69 69 70 70 69 70 70 70 70 69 69 69 69 70 69 69 70 69 69 69 71 72 72 72 72 73 74 73 74 74 74 75 75 75 75 74 74 74 74
52 54 55 57 58 59 60 60 60 60 60 61 62 63 64 65 66 66 67 67 67 68 68 69 69 69 70 70 70 70 70 69 69 69 69 69 69 70 70 69 69 69 70 69 71 72 72 72 72 72 73 73 73 74 74 74 75 75 75 75 74 74 74
51 54 55 57 58 59 59 60 60 60 60 61 61 62 63 64 65 66 66 67 67 68 68 69 69 69 69 69 69 69 70 70 70 70 69 70 69 69 70 70 69 69 70 70 71 71 72 72 72 72 72 73 73 73 74 74 74 75 75 75 74 74 74
51 53 55 56 58 58 59 59 60 60 60 61 61 63 63 64 64 65 66 66 67 67 67 68 68 69 69 69 69 69 69 69 69 69 69 69 70 69 69 70 70 70 69 71 71 71 72 72 72 72 72 72 73 73 73 74 74 74 74 74 74 74 74
50 52 55 56 57 58 59 60 60 60 60 61 61 62 63 63 64 65 65 66 66 67 67 67 68 69 69 69 69 69 69 69 69 69 69 69 69 69 69 69 70 70 70 70 71 72 71 72 72 72 72 72 72 72 73 73 74 74 74 74 74 74 74
50 52 54 55 57 58 59 60 60 60 60 61 61 62 63 63 64 64 65 65 66 66 67 67 68 68 69 69 69 69 69 69 69 69 69 69 69 69 69 69 70 71 71 70 70 72 72 72 72 72 72 72 72 72 72 73 73 73 74 74 74 74 74
50 52 54 55 56 58 59 60 60 61 61 61 62 62 63 64 64 64 65 65 66 66 67 67 67 68 69 69 69 69 69 69 69 69 69 69 69 69 69 70 70 71 71 71 70 71 72 72 72 72 72 72 72 72 72 72 73 73 73 74 74 74 74
50 52 54 55 56 58 59 60 60 61 61 61 62 62 63 64 64 64 65 65 66 66 67 67 67 67 68 69 69 69 69 69 69 69 69 69 69 69 69 70 70 70 71 71 71 71 71 72 72 72 72 72 72 71 72 72 72 73 73 73 73 74 74
52 53 54 55 56 58 59 60 61 61 61 62 62 62 63 63 64 65 65 66 66 66 67 67 67 67 68 68 69 69 69 69 69 69 69 69 69 69 69 70 70 70 70 71 71 71 71 71 72 72 72 72 72 72 72 72 72 72 72 72 73 73 73
52 54 54 55 56 58 59 60 61 61 62 62 62 62 63 63 64 65 66 66 67 67 67 67 68 68 68 68 68 69 69 69 69 69 69 70 70 70 70 70 70 69 69 70 70 71 71 71 71 72 72 72 72 72 72 72 72 72 72 72 72 73 73
58 53 54 55 56 58 59 60 61 61 61 62 62 62 63 63 64 65 66 66 67 67 68 68 68 68 68 68 68 69 69 69 70 70 70 70 70 70 70 70 70 70 70 70 69 70 71 71 72 72 72 72 72 72 72 72 72 72 72 72 72 72 72
52 52 54 55 56 58 59 60 61 61 61 62 62 62 63 63 64 65 66 66 67 68 68 68 68 68 68 69 69 69 69 70 70 70 70 70 70 70 70 70 70 70 70 70 69 69 69 70 72 72 72 72 72 72 72 72 72 72 72 72 72 72 72
51 52 53 55 56 57 59 60 61 61 61 62 62 63 63 64 64 64 65 66 67 68 68 69 69 69 69 69 69 69 70 70 70 70 70 70 70 70 70 70 71 70 70 70 70 69 69 69 70 71 71 72 72 72 72 72 72 69 65 67 72 72 72
50 51 53 54 56 57 58 59 60 61 62 62 62 63 63 64 64 64 64 65 66 68 69 69 69 69 69 69 70 70 70 70 70 70 70 70 70 70 70 70 70 70 70 70 70 70 69 69 68 68 69 71 71 71 72 72 72 66 63 63 65 71 72
50 51 53 54 56 57 58 59 60 61 61 61 62 62 63 64 64 64 64 64 65 67 68 69 69 69 70 70 70 70 70 70 71 70 70 71 70 70 70 70 70 70 70 70 70 70 69 69 69 68 68 69 70 70 71 71 66 64 63 63 63 65 72
50 51 52 54 56 57 57 58 59 61 61 61 62 62 63 64 64 64 64 65 65 67 68 69 69 70 70 70 70 71 71 71 71 71 71 71 71 71 71 70 70 70 70 70 70 70 69 69 69 68 68 68 68 69 70 70 65 63 62 62 62 62 66
50 51 52 54 55 56 57 58 59 60 61 61 62 62 63 64 64 64 64 65 66 67 68 69 69 70 70 71 71 71 71 71 71 71 71 71 71 71 71 71 70 70 70 70 70 69 69 69 69 69 68 68 68 68 69 69 65 62 61 61 61 61 63
56 55 54 55 56 56 57 58 59 60 61 61 62 62 63 64 65 65 65 65 66 67 68 69 70 70 71 71 71 71 71 71 71 71 71 71 71 71 71 71 71 70 70 70 69 69 69 69 69 69 69 68 68 68 68 68 64 61 60 59 59 60 61
63 62 61 61 60 61 61 61 61 61 61 64 64 63 62 63 65 65 65 66 66 67 68 69 70 70 71 71 71 71 72 71 71 71 71 71 71 71 71 71 71 71 70 70 70 69 69 69 69 68 68 69 68 68 68 68 62 61 59 58 58 60 65
67 67 67 66 65 65 65 65 65 66 67 65 65 64 63 63 64 65 66 66 66 67 68 69 70 70 71 71 72 72 72 72 72 71 71 71 71 71 71 71 71 71 71 70 70 69 69 68 68 68 68 68 69 68 68 68 64 60 58 58 58 59 67
67 69 69 70 70 70 70 71 71 72 71 72 72 72 69 65 65 66 66 66 67 67 67 68 69 70 71 71 72 72 72 72 72 72 72 71 71 71 71 71 71 71 71 70 69 69 68 68 68 68 68 68 68 68 68 68 65 59 57 57 57 61 67
65 66 68 69 69 69 70 70 71 71 72 72 72 73 73 69 67 67 67 68 67 67 67 67 67 68 70 71 72 72 72 72 72 72 72 72 71 71 71 71 71 71 71 70 70 69 69 69 68 68 68 67 68 67 67 68 66 59 57 56 56 61 68
63 65 66 67 69 70 70 71 70 70 70 71 71 72 74 74 73 72 71 70 68 67 67 67 68 68 68 69 71 72 72 72 73 72 72 72 72 71 71 71 71 71 70 70 70 69 69 68 68 68 67 68 68 68 68 68 69 66 56 55 55 57 68
63 64 65 66 68 71 69 69 70 69 70 70 71 73 74 74 74 74 74 73 73 73 74 75 72 70 70 70 69 70 72 72 72 72 72 72 72 71 71 71 71 70 70 70 70 69 69 68 68 68 67 67 68 68 69 69 69 68 56 55 55 55 60
64 64 65 67 70 69 69 69 69 69 69 70 70 71 72 72 72 71 71 71 71 71 73 74 75 75 72 69 69 69 70 71 72 72 72 72 72 72 71 71 71 70 70 69 70 69 69 69 68 68 68 68 68 68 68 70 68 70 58 55 54 54 55
65 65 65 66 67 68 68 67 68 68 68 69 69 70 70 71 71 70 70 69 69 71 72 73 73 73 72 70 69 70 70 71 71 72 73 72 72 72 71 71 71 70 70 70 69 69 69 69 69 68 68 68 68 68 69 69 70 64 66 56 54 54 54
65 66 66 67 67 67 68 67 67 67 68 68 68 68 68 69 69 70 70 67 69 70 71 71 72 72 71 70 70 70 70 71 71 71 72 72 72 72 71 71 71 71 71 70 69 69 69 69 69 69 68 68 68 69 70 70 70 66 62 62 54 54 53
65 66 66 66 67 68 67 66 66 66 67 67 67 68 67 67 67 68 67 67 69 69 70 71 72 72 72 70 70 70 71 71 71 71 72 72 72 71 71 71 71 71 71 71 70 70 69 69 69 69 69 68 68 69 71 71 71 71 65 60 57 54 54
64 65 66 67 67 67 66 66 66 66 65 66 66 67 68 67 67 67 66 68 69 69 70 71 72 73 73 71 70 71 72 72 72 72 72 72 72 72 72 71 71 71 71 71 71 70 70 70 70 70 70 69 70 70 71 72 72 72 71 65 61 57 54
63 64 65 66 67 67 66 66 65 66 66 66 65 66 67 67 67 67 67 68 69 70 70 72 74 73 72 71 70 70 72 72 72 73 73 73 73 72 72 72 72 72 72 72 71 71 71 71 71 71 71 71 71 71 71 71 72 72 70 68 67 65 63
63 64 64 65 67 67 66 66 65 66 66 65 65 66 66 66 66 67 67 68 69 70 70 72 73 71 70 71 70 71 72 73 75 74 74 74 74 73 73 73 73 73 72 72 73 72 72 72 72 71 71 71 72 72 72 71 71 70 69 67 68 67 66
63 63 64 65 66 67 66 66 66 65 65 65 65 66 66 66 66 67 67 68 69 69 70 71 72 70 69 70 71 71 73 73 74 74 71 63 58 54 53 53 57 66 71 64 61 72 73 73 73 73 73 73 73 72 72 70 70 69 54 63 62 65 66
62 63 64 64 65 65 66 67 66 65 65 65 65 65 65 65 66 67 67 68 69 69 69 70 70 69 69 70 70 72 73 74 74 72 68 66 62 60 57 54 47 49 57 60 58 52 50 63 73 74 74 68 57 61 71 72 71 47 45 44 44 45 48
62 63 64 64 64 65 65 65 66 66 65 65 65 65 65 65 65 66 67 68 69 69 69 68 68 68 69 69 70 69 72 74 74 71 68 66 64 63 62 60 56 46 45 49 50 46 44 46 54 63 64 67 60 53 48 49 45 43 43 44 44 44 45
63 62 63 64 64 64 64 65 65 64 64 63 64 64 64 65 65 65 67 68 69 69 69 69 68 68 68 68 69 70 71 73 72 70 67 66 65 64 63 61 60 58 49 45 47 46 45 45 45 46 49 52 55 56 55 47 43 43 43 43 44 44 43

ECMWFFLT1_sfc_dewp_048.txt.gz
Dewpoint
56 57 58 59 59 59 60 61 61 61 62 62 63 64 65 65 67 68 68 68 69 69 69 70 70 70 70 70 70 70 70 70 70 70 70 70 70 70 70 70 70 71 72 72 72 73 73 74 74 74 74 75 75 75 75 76 76 76 76 76 76 75 75
54 56 57 58 59 59 60 61 61 61 62 62 63 64 64 65 66 67 68 68 68 69 69 70 70 70 70 70 70 71 70 70 70 71 70 70 71 71 70 70 70 70 71 72 73 73 73 74 74 74 74 75 75 75 75 76 76 76 76 76 75 75 75
53 55 56 58 58 59 60 61 61 61 62 62 63 63 64 66 66 67 68 68 68 69 69 69 70 70 70 70 70 70 70 70 70 70 70 69 70 70 70 71 70 70 70 72 72 73 73 73 74 74 74 74 74 75 75 76 76 76 76 76 75 75 75
52 53 55 57 59 59 60 60 61 61 61 62 62 63 64 66 66 67 67 68 68 68 69 69 70 70 70 70 70 70 70 70 70 70 70 70 70 70 70 70 71 70 70 70 71 72 73 73 73 74 75 74 74 75 75 75 76 76 76 76 75 75 75
52 53 54 56 57 59 60 60 61 61 61 61 62 64 64 65 66 66 67 67 67 68 68 69 69 70 70 70 70 70 70 70 70 70 70 70 71 71 70 70 70 70 70 70 71 73 73 73 73 73 74 74 74 74 75 75 75 76 75 75 75 75 75
51 53 53 54 56 58 59 60 60 60 60 61 62 63 63 64 65 66 66 67 67 68 68 69 69 70 70 70 70 70 70 71 71 71 70 70 70 70 70 70 70 70 69 69 70 71 72 73 73 73 73 73 73 73 74 74 75 75 76 75 75 75 75
50 52 53 54 55 57 59 59 60 60 61 61 62 63 63 64 65 65 66 67 67 67 68 68 68 69 70 70 70 71 70 70 70 70 70 70 70 70 70 70 70 70 70 71 70 71 71 72 72 73 73 73 73 73 74 74 74 75 75 75 75 75 75
50 51 53 53 54 56 58 59 60 60 61 61 61 62 63 63 64 65 66 66 67 67 67 67 68 69 70 70 70 70 70 70 70 70 70 70 70 70 70 70 70 70 71 70 70 71 71 72 72 72 73 73 73 73 73 74 74 74 75 75 75 75 74
49 51 52 53 54 55 57 59 60 60 61 61 61 62 62 63 64 65 65 66 67 67 67 67 68 69 70 70 70 70 70 70 70 70 70 69 69 69 69 70 70 71 70 70 70 71 71 71 71 72 73 72 73 73 73 74 74 74 75 75 75 75 74
48 50 52 53 54 54 57 58 60 61 61 61 62 62 63 63 64 64 65 66 66 66 67 67 68 68 69 69 69 70 70 70 70 69 69 69 69 69 69 69 70 71 70 70 70 71 71 71 72 72 72 72 72 73 73 73 73 74 74 74 74 74 74
47 50 51 52 54 55 57 58 60 61 61 62 62 61 63 63 63 64 65 65 66 66 67 67 68 68 68 69 69 69 69 69 69 69 69 69 69 69 69 69 69 70 70 70 70 70 71 72 72 72 72 72 72 72 72 73 73 73 74 74 74 74 74
48 49 51 52 54 56 57 59 60 61 62 62 61 61 63 63 63 64 64 65 66 66 67 67 67 68 68 68 68 69 69 69 69 69 69 69 69 69 69 69 69 69 70 71 70 70 70 71 72 72 72 72 72 72 72 73 73 73 73 73 74 74 74
46 48 50 51 54 56 58 60 60 61 62 61 61 61 62 62 63 63 65 65 65 66 66 67 67 68 68 68 68 69 69 69 69 69 69 69 69 69 69 69 69 69 69 70 70 70 70 71 72 72 72 72 72 72 72 72 72 73 73 73 73 74 74
55 48 49 52 54 57 58 60 60 61 61 61 61 61 62 63 63 64 64 65 65 65 66 67 67 68 68 68 69 69 68 69 69 69 70 70 70 70 70 70 70 70 70 71 70 70 70 71 71 71 72 72 72 72 73 72 72 73 73 73 73 73 73
43 47 48 50 54 57 59 59 61 61 61 61 61 61 62 63 63 64 65 65 65 65 66 67 67 67 67 68 69 69 69 69 69 70 70 70 70 70 70 70 70 70 71 71 71 70 70 71 71 71 71 72 72 72 72 72 72 72 72 73 73 73 73
35 46 48 50 53 56 58 60 61 61 61 62 61 62 62 63 64 64 64 64 65 66 66 67 67 67 67 67 68 69 69 70 70 70 70 70 70 70 70 70 70 70 70 70 70 71 71 71 71 71 71 71 72 72 72 72 72 70 65 67 72 73 73
38 47 49 52 54 56 58 59 61 61 62 62 62 62 62 63 64 64 64 64 65 66 66 66 67 67 67 67 68 69 70 70 70 70 70 70 70 70 70 70 70 71 71 71 71 71 71 71 70 71 71 71 71 71 72 72 71 65 63 64 65 71 73
45 50 51 52 54 56 58 59 61 61 61 61 61 62 62 63 63 64 64 64 65 65 66 67 67 67 68 68 69 69 70 70 70 70 70 70 70 71 71 71 71 71 71 71 70 71 71 70 70 70 70 71 71 71 71 72 67 64 63 63 62 65 72
49 51 52 54 55 57 57 59 60 61 61 61 61 62 62 63 63 64 64 65 66 67 67 67 67 68 68 68 69 69 70 70 70 70 70 71 71 71 71 71 71 71 71 70 71 71 71 71 70 70 70 70 70 70 71 71 66 63 62 62 62 62 66
50 51 53 54 55 56 58 60 60 61 61 62 62 62 62 64 63 64 64 66 67 67 68 68 68 68 69 69 69 70 70 70 70 70 70 71 71 71 71 71 71 71 71 71 71 71 71 70 70 70 70 70 70 70 70 70 66 63 61 61 61 61 63
51 53 54 55 56 57 59 60 61 62 62 61 62 63 63 64 64 65 65 66 66 67 69 69 69 69 69 70 70 70 70 70 70 70 70 71 71 71 71 71 71 71 71 70 70 71 71 70 70 70 70 70 70 69 69 68 63 61 60 60 59 60 62
54 53 53 55 57 58 60 60 61 61 62 63 63 63 63 63 64 64 64 65 66 67 69 69 69 69 70 70 70 70 70 70 71 71 71 71 71 71 71 71 71 71 71 71 70 70 71 71 70 70 70 70 70 69 69 69 62 60 59 59 59 60 66
66 56 56 58 57 59 61 61 61 62 64 63 62 63 63 64 64 64 64 64 65 67 68 69 69 70 70 70 70 70 71 71 71 71 71 71 71 71 71 71 71 71 71 71 70 70 70 70 70 71 70 70 70 70 69 69 65 59 58 58 58 59 67
68 67 62 61 62 61 62 62 63 65 62 63 63 63 63 64 65 65 65 65 66 66 67 68 69 70 70 70 70 71 71 71 71 71 71 71 71 71 71 71 71 71 71 71 70 70 70 70 70 70 70 70 70 69 69 69 66 59 57 56 56 60 68
67 69 68 64 62 63 63 64 64 64 64 63 62 63 65 65 65 66 66 66 66 67 67 68 68 69 70 70 71 71 72 72 72 71 71 72 71 71 71 71 71 71 72 71 71 71 71 71 70 70 70 69 69 68 69 69 67 59 57 56 55 60 68
66 68 69 69 69 67 67 69 68 65 64 63 64 64 65 65 66 67 66 67 66 66 66 68 68 69 70 70 71 72 72 72 72 72 72 72 72 72 72 72 72 72 72 72 71 71 71 71 71 70 70 70 70 69 69 69 70 68 57 55 55 56 68
67 68 69 69 70 71 69 69 68 68 68 69 70 66 65 66 66 68 68 68 67 67 67 68 69 70 71 71 71 71 72 72 72 72 72 72 72 72 72 72 72 72 72 71 71 71 71 71 71 70 70 70 70 70 69 69 69 69 57 55 54 54 59
66 67 67 69 70 70 70 70 70 71 71 72 72 69 67 67 68 69 70 68 68 69 73 73 71 70 71 71 71 71 72 72 73 73 73 73 73 73 72 73 73 72 72 71 72 72 71 71 71 70 70 70 70 70 70 70 67 69 60 55 54 53 55
66 66 66 66 67 68 68 68 68 68 69 70 71 71 70 69 70 71 71 70 71 72 73 74 75 74 72 71 71 72 72 73 73 73 73 73 73 73 72 73 73 73 73 72 72 72 71 71 71 71 70 70 70 70 71 71 70 63 67 56 53 53 53
66 66 66 66 66 66 67 67 67 67 67 67 68 69 70 70 70 70 70 69 71 72 73 74 74 74 74 72 71 71 71 72 73 74 74 74 73 73 73 73 73 73 73 72 72 71 71 71 71 71 70 70 70 70 70 71 71 65 61 63 54 53 52
65 66 66 66 66 67 66 65 66 66 67 67 68 68 68 69 69 70 69 69 71 71 71 72 74 74 73 73 72 71 71 71 72 73 73 73 73 73 73 73 73 72 73 72 72 71 71 71 71 71 70 70 70 70 70 71 71 71 66 60 56 54 53
65 66 66 67 66 66 66 66 66 66 66 66 67 67 68 68 69 69 69 69 71 70 71 72 73 74 74 72 72 72 71 71 71 72 72 73 73 74 73 73 72 72 72 72 71 71 71 71 70 70 70 70 70 70 70 71 71 71 71 65 61 58 54
65 65 66 66 67 67 66 66 65 66 66 66 66 67 67 68 68 69 70 70 70 71 71 73 75 74 73 73 72 71 71 71 70 70 71 72 72 73 73 73 73 72 72 72 71 71 71 71 70 70 70 70 70 70 71 71 72 72 72 71 69 67 64
64 65 66 66 67 67 66 65 65 65 65 65 65 66 67 67 67 68 68 69 70 70 73 75 74 71 71 71 72 71 71 72 73 72 72 72 72 72 72 73 73 72 72 72 72 71 71 71 71 70 70 70 70 71 71 72 72 72 73 72 70 69 68
63 64 65 65 66 66 65 65 65 65 65 65 65 66 66 66 67 68 68 69 70 70 72 73 73 71 70 71 72 73 73 73 74 73 70 63 58 54 54 55 60 71 70 65 65 72 71 71 71 71 71 71 72 72 72 72 72 72 66 72 65 69 69
63 64 65 65 65 65 65 66 65 65 65 65 65 65 66 66 67 68 68 69 70 70 71 72 70 70 70 70 71 73 74 74 73 69 66 63 60 58 56 52 46 49 65 64 59 53 55 65 72 73 72 72 65 65 72 72 74 51 54 54 55 56 58
63 64 64 65 65 65 65 65 66 65 65 64 65 65 65 66 66 67 68 69 69 69 69 69 69 69 69 70 71 72 74 73 70 68 67 65 65 65 64 61 58 45 44 48 50 46 44 48 54 60 64 70 64 53 46 48 45 44 43 44 44 44 46
64 64 64 64 64 65 65 64 64 64 64 64 64 64 65 65 65 66 67 69 69 70 70 69 69 68 68 69 71 73 73 71 69 67 66 66 66 65 65 65 64 59 48 44 46 45 43 42 42 46 52 56 57 56 55 47 43 43 43 44 44 44 44

ECMWFFLT1_sfc_dewp_051.txt.gz
Dewpoint
59 60 60 61 61 61 62 63 64 64 65 66 66 66 66 67 68 69 70 70 71 72 72 72 72 72 72 72 73 73 73 73 73 72 72 72 72 73 73 72 73 74 73 73 74 74 76 76 76 76 77 77 77 77 78 78 78 77 77 77 76 76 77
57 58 59 60 61 61 62 63 64 64 65 65 66 67 66 67 68 69 70 71 71 72 72 72 72 72 72 72 73 73 73 73 73 73 73 73 74 74 73 74 73 74 75 74 74 76 76 76 76 76 76 77 76 77 77 78 78 78 77 77 76 75 76
55 57 59 60 60 60 63 62 64 64 64 64 65 65 66 68 69 70 70 70 71 72 72 72 73 72 72 73 73 73 73 73 73 72 72 71 72 70 73 74 74 73 73 74 75 75 75 75 76 77 76 76 75 77 77 77 78 77 78 78 76 75 75
54 56 58 59 61 62 62 63 63 62 63 63 64 65 66 69 69 70 70 70 70 71 72 71 72 71 72 73 73 73 73 73 73 72 71 71 72 72 73 73 74 73 74 74 73 74 74 75 76 76 77 76 76 76 77 77 76 77 77 78 76 75 75
54 56 57 59 60 61 62 62 62 63 62 62 64 66 66 68 67 68 69 69 69 70 70 70 70 71 72 72 72 72 72 73 73 72 72 72 73 73 73 71 72 72 72 73 74 75 75 75 74 75 76 77 76 76 77 77 77 78 78 77 75 75 74
51 55 57 58 59 60 61 61 61 61 61 61 63 64 65 66 66 66 67 69 69 69 70 71 71 72 72 71 71 71 72 73 73 73 73 73 73 72 72 72 72 72 71 73 73 73 74 74 74 75 74 74 74 74 75 76 76 76 77 77 75 75 74
51 55 56 58 58 59 60 61 60 61 62 61 62 64 64 64 65 65 66 67 68 69 69 69 70 70 72 72 72 73 73 72 73 72 72 72 73 72 72 73 73 72 72 73 73 73 73 74 74 75 74 74 75 74 75 76 76 76 77 77 75 75 75
53 55 56 57 57 58 59 60 61 61 62 62 62 62 62 63 64 64 65 66 67 67 68 68 69 71 72 72 72 72 72 72 72 72 72 72 72 72 72 72 72 73 73 72 73 73 72 73 73 74 74 74 74 75 75 76 77 76 76 76 76 75 73
52 56 55 55 56 57 58 60 61 61 62 63 63 63 63 63 63 64 65 65 66 67 67 67 68 70 72 72 72 73 72 72 72 72 72 71 71 70 70 71 72 73 73 71 71 73 72 72 72 74 75 74 74 76 75 76 76 76 76 76 76 76 75
53 56 58 56 56 56 58 60 62 63 64 64 64 65 63 63 64 64 65 65 65 66 67 67 67 69 71 71 71 71 72 72 72 71 71 70 70 70 70 70 71 72 72 71 70 71 73 73 73 74 75 74 75 75 75 76 75 75 76 76 76 76 76
53 58 59 56 57 58 60 60 62 64 65 66 66 63 64 64 64 64 65 65 65 66 66 67 68 68 70 70 70 70 71 71 71 71 71 70 70 70 70 70 70 71 71 71 70 71 72 73 73 74 75 74 74 75 75 75 75 75 75 75 76 76 75
54 57 60 59 59 59 59 63 64 66 67 67 64 63 66 66 65 64 65 65 65 66 66 67 67 68 69 69 69 70 70 71 70 70 70 70 70 70 70 70 70 70 71 71 71 71 71 72 73 73 74 74 74 74 75 75 75 76 75 74 74 75 75
47 55 58 57 60 59 63 65 66 66 67 64 63 63 64 64 64 64 66 66 66 66 66 68 68 69 69 69 68 70 70 70 70 71 70 71 70 70 70 70 70 70 70 70 71 71 71 71 73 73 74 74 74 74 74 75 75 75 76 75 75 75 75
55 49 53 58 59 61 63 65 66 67 67 64 63 63 64 64 64 65 67 66 66 66 66 67 68 69 70 70 70 71 70 70 72 72 72 72 72 72 71 71 71 71 71 72 71 71 71 71 72 73 73 73 74 74 74 75 75 75 76 75 75 75 75
36 40 50 53 60 63 63 62 65 67 65 65 63 64 64 64 64 66 68 67 67 66 67 69 69 70 69 70 70 71 72 72 72 73 73 73 73 73 72 72 72 72 72 73 72 71 71 71 71 72 72 73 73 73 74 73 73 74 74 75 75 75 74
46 37 33 47 55 58 63 64 64 67 67 67 64 65 63 65 66 65 66 66 66 67 67 69 69 70 69 69 71 72 72 73 73 73 74 73 74 74 73 73 73 73 73 73 73 73 73 73 72 71 71 72 73 73 73 73 73 71 66 68 74 75 74
55 48 43 41 56 57 61 62 64 66 67 67 66 66 64 65 66 65 64 65 66 67 67 68 70 70 69 70 71 72 73 74 74 74 73 74 74 74 74 73 73 73 73 73 73 73 74 73 72 71 71 71 71 72 72 72 72 66 64 64 66 72 74
62 59 51 43 41 53 59 61 64 65 65 64 64 65 65 67 65 64 64 65 66 66 67 68 69 69 70 70 72 73 73 73 73 73 73 74 74 74 74 73 73 73 73 73 72 73 73 72 72 73 71 71 71 71 71 72 67 64 63 63 63 66 73
64 64 60 53 47 49 53 57 61 64 63 63 63 63 64 66 64 65 65 66 66 67 67 67 67 69 70 70 72 73 73 73 73 73 73 73 74 74 74 74 73 73 73 72 73 72 73 73 72 73 72 72 72 71 71 71 66 63 62 63 62 62 67
64 65 63 56 49 43 49 59 61 63 63 64 64 62 63 65 64 65 65 66 67 67 68 68 68 69 71 71 72 73 73 74 73 73 73 74 74 74 73 73 73 73 72 72 73 73 73 72 73 73 73 73 73 73 72 71 66 62 61 61 61 62 64
64 66 66 60 54 48 54 63 64 65 65 63 63 64 64 64 64 66 65 66 66 67 70 69 69 71 71 72 73 73 73 73 73 73 73 74 73 73 73 73 73 73 72 71 71 73 73 72 72 73 73 72 72 72 71 70 65 61 60 60 59 61 62
64 65 66 64 57 57 61 58 62 62 64 64 63 63 63 64 64 64 64 65 66 67 69 70 71 71 71 71 71 72 72 72 73 73 73 73 73 73 73 73 73 73 73 72 71 72 72 72 72 72 72 72 72 71 71 70 63 61 60 59 59 60 68
65 66 67 66 60 58 64 63 64 62 66 63 62 63 63 63 63 64 64 64 65 68 68 68 70 70 71 71 70 71 71 72 72 73 73 73 73 73 72 73 73 73 73 72 71 70 71 72 71 72 72 72 72 72 72 71 66 59 58 58 58 60 70
66 67 67 63 60 63 65 64 64 66 63 64 63 63 63 64 64 65 66 65 66 67 67 68 69 70 71 70 70 71 71 72 72 73 73 73 73 73 73 72 73 73 73 72 71 70 70 71 72 72 72 72 72 71 72 71 68 58 57 57 57 62 71
67 67 68 64 61 60 61 65 65 64 65 65 63 64 65 65 65 66 67 67 67 67 68 68 69 69 70 70 70 72 72 72 72 72 73 73 73 72 72 72 73 72 73 72 71 71 72 72 71 71 72 71 71 70 70 71 68 58 57 56 55 62 71
67 68 68 67 63 63 66 69 68 65 64 63 65 66 67 65 67 67 67 68 67 67 68 69 69 70 70 70 71 72 73 72 73 73 73 73 73 73 73 73 72 72 72 72 71 71 71 71 72 71 71 71 71 71 71 71 72 70 57 55 55 56 70
67 67 68 68 69 69 66 66 65 63 62 65 69 65 66 67 66 68 70 69 69 68 68 69 71 72 72 72 71 72 72 72 73 73 73 73 73 72 72 72 72 72 73 71 71 71 72 72 71 71 72 71 72 71 71 71 71 72 57 55 54 54 59
66 67 67 69 70 70 67 63 66 65 63 70 68 67 67 69 69 71 71 69 68 68 68 70 72 73 74 74 72 71 72 73 74 73 73 74 74 74 73 73 73 73 72 71 72 73 73 73 73 72 72 72 72 73 72 71 68 71 60 55 54 53 54
66 66 67 68 68 69 69 69 68 65 66 65 65 66 66 66 70 70 70 69 70 69 70 72 72 73 73 73 72 73 73 74 74 74 74 74 74 74 74 74 74 74 74 74 74 74 73 74 74 73 72 73 73 73 73 74 73 64 70 56 54 53 52
66 67 67 67 67 68 69 70 71 71 70 66 66 67 67 68 71 71 71 71 72 70 71 72 73 74 73 74 73 74 73 74 74 75 74 75 75 74 74 74 74 74 75 75 74 73 74 73 73 72 72 71 71 71 72 74 73 67 62 66 54 54 53
66 66 66 66 67 68 68 69 70 70 70 71 73 73 71 70 72 72 72 75 76 75 74 73 74 74 74 73 73 74 74 74 74 74 75 74 74 74 74 75 75 74 75 75 74 74 73 73 73 72 72 71 71 72 73 74 74 74 68 60 58 54 53
66 66 66 66 67 68 68 68 69 69 69 70 71 72 74 74 73 73 75 75 76 76 76 75 75 74 73 73 73 74 74 74 74 74 74 74 74 75 75 74 74 74 75 74 73 73 73 73 72 72 72 72 72 72 73 74 74 74 74 66 62 59 54
66 66 66 66 67 68 67 68 67 68 69 70 71 72 72 74 74 74 74 75 75 76 77 77 76 76 75 75 74 74 74 74 72 72 73 74 74 74 74 74 74 74 74 74 73 73 73 73 73 72 71 71 72 73 73 74 73 73 73 73 71 69 67
65 66 66 67 67 67 67 67 67 68 68 69 70 71 72 72 73 74 74 74 74 75 76 77 77 76 76 76 75 75 75 75 74 74 72 73 73 73 73 74 75 74 75 74 74 73 72 72 72 72 72 72 72 73 73 73 73 73 73 72 73 72 71
65 65 66 66 67 67 67 67 67 68 68 69 70 71 71 71 72 73 74 75 76 77 77 76 76 76 77 77 77 76 76 74 73 73 73 74 73 65 62 69 76 75 75 76 75 74 73 73 73 73 73 72 73 73 73 73 73 73 66 74 66 71 71
64 65 65 66 68 68 67 67 67 68 68 68 69 70 71 71 72 73 73 74 75 77 77 77 76 76 76 76 75 74 74 74 72 73 72 70 67 63 59 52 45 49 68 73 60 55 50 53 72 74 73 72 73 72 72 72 75 53 60 61 60 59 61
63 65 65 66 66 67 67 67 68 68 67 68 68 69 70 70 70 72 73 73 74 75 76 76 76 75 75 75 75 73 74 73 73 73 71 69 67 67 65 63 57 44 43 48 49 46 40 40 42 49 55 71 74 60 48 48 43 41 43 47 49 49 50
63 64 65 65 65 66 66 66 67 67 67 67 68 69 69 69 69 70 70 72 73 75 76 76 76 76 76 76 76 75 75 74 71 70 70 70 70 70 69 67 64 59 47 43 45 44 42 42 41 41 43 45 55 64 65 50 43 42 42 43 43 43 44

ECMWFFLT1_sfc_dewp_054.txt.gz
Dewpoint
55 58 60 62 63 63 64 65 66 66 67 67 68 68 68 68 69 70 71 72 73 74 74 74 74 74 74 73 74 74 74 74 75 74 73 73 72 72 72 71 71 72 69 69 71 71 73 74 73 74 75 75 75 75 76 77 77 75 75 76 75 74 74
51 54 57 59 62 63 64 66 67 66 67 67 68 69 68 69 70 70 71 72 73 74 74 74 75 74 74 73 73 74 74 74 74 75 74 74 74 73 73 73 72 73 73 70 70 73 74 74 74 75 74 75 74 75 75 76 77 76 74 75 75 74 74
48 52 55 58 60 62 65 65 66 66 67 66 67 68 68 70 70 71 71 72 73 74 74 74 75 74 74 74 74 74 73 73 73 73 73 72 73 71 73 74 74 72 72 72 72 72 75 75 76 75 74 73 72 74 75 76 76 76 75 75 75 73 75
47 49 53 57 61 63 64 64 65 65 65 66 67 67 68 70 70 71 71 71 72 73 74 74 74 73 74 74 74 74 74 74 74 72 72 73 73 72 73 74 74 73 72 72 71 72 71 74 74 76 76 75 74 73 74 74 74 75 75 76 74 74 75
44 47 50 56 59 61 62 63 64 66 65 65 66 68 68 69 69 69 70 71 71 72 72 72 71 72 73 74 73 73 73 74 73 73 73 73 74 74 73 72 73 72 71 72 73 74 74 75 74 75 76 76 74 74 75 75 74 75 76 76 75 73 73
38 43 44 50 57 59 61 62 62 63 64 64 65 67 67 67 67 67 69 70 70 71 72 72 72 73 73 72 73 73 74 74 74 74 74 74 74 73 73 73 72 72 70 72 72 73 74 74 73 74 74 74 72 71 72 73 73 73 75 75 75 73 71
41 43 43 45 53 58 60 62 61 62 63 63 64 66 66 66 67 67 67 69 69 70 70 70 70 71 73 72 73 73 74 73 74 74 73 73 73 73 74 73 73 72 72 73 73 73 73 74 74 74 74 72 73 71 72 74 73 73 74 75 75 75 74
41 42 47 49 50 55 58 61 61 62 63 63 63 64 65 65 65 66 67 67 68 68 68 69 69 71 73 73 72 72 73 73 73 74 73 72 72 73 73 73 73 74 74 72 74 74 73 74 73 74 74 73 73 74 73 75 76 72 73 74 74 75 72
39 46 48 48 51 51 56 61 62 62 63 64 64 65 64 65 64 65 66 66 67 67 67 67 68 70 72 72 73 73 73 72 73 73 73 72 71 71 71 72 73 73 73 71 72 74 73 73 73 75 75 74 74 75 75 76 75 75 73 74 75 75 73
40 46 53 51 51 51 57 60 63 64 64 64 65 65 65 65 65 65 65 65 66 66 66 67 68 69 71 72 72 72 73 73 72 71 71 71 70 70 71 70 71 73 72 72 71 72 74 73 73 74 76 75 75 75 76 76 75 75 75 75 75 75 75
38 50 55 52 53 55 58 59 62 64 64 67 66 63 65 65 65 65 65 65 65 65 66 67 68 68 70 71 71 71 72 72 71 71 71 71 69 70 70 69 69 72 72 71 71 71 73 74 74 75 76 75 75 76 76 76 76 76 74 74 75 75 74
55 54 60 61 59 57 57 61 64 66 67 67 65 63 66 66 65 64 64 65 65 65 66 66 67 68 69 70 70 71 71 72 71 71 71 71 69 69 69 69 69 70 71 71 71 71 71 73 74 74 75 76 76 76 76 76 76 76 75 73 73 74 74
44 52 56 58 61 60 62 65 66 66 67 65 63 64 64 65 65 64 66 66 65 65 66 67 68 69 69 70 69 71 71 71 71 72 70 71 70 69 69 69 68 68 70 71 71 71 70 72 74 75 75 76 76 75 76 76 76 76 77 75 74 74 75
56 41 50 55 58 60 61 64 66 67 67 65 64 64 64 65 64 65 66 65 65 65 65 67 68 69 70 71 71 72 71 71 72 72 72 72 73 72 70 70 69 70 71 72 72 70 70 70 73 74 74 75 75 75 76 76 76 77 77 77 74 73 74
52 40 44 50 58 62 62 62 67 68 67 66 65 64 64 64 65 66 67 67 67 65 66 68 68 69 69 71 71 72 73 73 73 73 73 73 74 73 72 72 72 72 72 74 73 71 71 71 71 73 74 74 75 75 74 74 75 75 76 76 75 74 73
49 49 46 40 55 59 63 64 67 69 69 69 66 66 63 65 66 65 65 65 65 66 66 68 69 70 70 70 71 72 73 74 74 74 75 74 75 75 74 73 74 73 73 74 73 74 73 73 72 71 73 73 74 74 74 73 73 73 68 71 75 75 73
58 59 60 61 58 51 61 63 64 68 69 69 67 66 65 65 66 65 64 65 65 66 66 67 69 69 70 71 72 72 74 74 74 75 75 75 75 76 75 75 74 74 75 74 74 74 75 74 72 71 72 72 73 73 73 72 72 68 65 65 67 74 75
61 63 63 63 64 65 58 58 62 64 67 66 65 65 65 67 66 65 64 65 65 65 65 67 69 69 71 71 73 74 74 74 75 75 75 76 76 76 76 75 75 75 75 74 74 75 74 73 74 74 72 72 72 72 72 72 69 64 64 64 65 68 74
61 62 63 65 65 66 65 60 56 63 64 64 64 63 64 65 65 66 65 67 66 67 66 66 67 70 72 71 73 74 75 75 75 75 76 76 76 76 76 76 76 75 75 74 75 75 75 75 74 74 73 72 73 71 71 72 67 63 62 63 63 64 68
62 63 64 64 65 65 67 67 64 56 62 65 65 62 63 65 65 66 65 66 68 67 68 68 69 71 72 72 73 75 76 76 76 76 76 76 76 76 76 76 76 75 74 74 75 75 75 74 75 75 75 74 73 74 72 72 66 62 61 62 62 63 65
63 64 65 65 66 66 68 70 68 62 57 61 62 64 64 64 64 66 65 66 67 67 70 69 70 72 72 73 74 75 76 76 76 76 76 76 76 76 76 76 76 75 74 73 73 75 75 74 75 75 75 74 73 73 72 70 63 61 60 60 60 61 63
63 63 64 65 66 67 69 68 68 62 54 59 63 61 62 63 64 64 64 65 66 67 69 70 72 71 73 73 74 75 75 75 75 76 76 76 76 76 76 76 76 76 75 74 72 73 74 74 74 74 74 74 74 72 73 71 63 60 59 59 59 61 69
57 62 65 66 66 67 69 70 69 65 58 56 61 60 61 62 63 64 63 64 65 68 68 69 71 72 73 73 73 74 74 75 75 75 76 76 76 75 75 75 76 75 75 74 72 71 72 73 73 74 73 74 74 74 73 72 66 59 58 58 59 61 72
57 61 65 65 67 68 69 68 65 62 56 58 62 61 61 62 64 65 66 65 66 67 68 69 70 71 73 72 72 73 74 75 75 75 75 75 75 75 75 74 75 75 75 73 72 70 71 72 73 73 73 73 73 73 73 72 68 58 57 57 57 64 73
55 59 65 66 67 67 67 65 63 60 59 61 61 60 62 64 65 65 66 66 66 68 68 69 70 71 72 72 72 74 75 74 74 74 75 75 75 74 74 74 75 74 74 73 73 72 72 72 72 72 73 71 71 72 72 72 68 57 57 56 56 65 74
56 62 66 66 66 67 69 69 65 63 58 61 63 61 65 64 65 66 66 67 66 67 68 70 70 71 72 72 73 74 74 74 75 75 75 75 75 75 74 74 74 74 73 73 72 72 70 71 71 72 72 72 72 71 71 72 73 68 56 56 55 58 73
58 65 65 65 65 70 67 66 64 61 60 63 66 63 64 65 65 67 69 68 68 68 68 70 71 72 73 74 72 72 74 74 74 74 75 75 75 74 73 73 73 73 74 72 71 72 72 71 71 71 72 71 72 71 71 71 72 75 55 55 54 56 62
61 67 66 66 68 68 68 64 65 64 61 64 64 64 65 67 68 69 70 68 68 68 68 70 71 72 73 73 72 72 73 73 74 74 74 75 75 75 74 74 74 74 73 72 72 74 73 73 72 71 71 72 71 73 73 73 70 73 58 55 54 55 56
61 67 67 67 67 67 67 66 63 62 62 63 64 63 64 65 69 69 70 69 70 69 70 70 71 72 73 73 72 73 73 74 74 74 74 74 75 75 74 74 74 74 75 75 74 74 74 74 74 73 72 73 73 73 74 75 75 65 68 55 54 53 54
58 67 67 67 66 66 67 71 72 65 64 64 65 65 66 67 70 71 71 71 72 70 70 71 72 74 73 73 73 73 73 73 74 75 75 75 75 75 75 74 74 74 74 75 74 73 73 72 73 73 71 71 71 71 72 74 74 68 63 64 53 54 53
59 67 67 68 67 68 68 69 71 71 65 66 68 68 69 69 72 73 72 73 73 72 72 72 73 74 74 73 72 73 74 74 75 75 74 74 74 74 74 74 74 74 75 75 74 74 73 73 73 72 72 71 71 72 72 73 74 75 70 62 56 54 53
57 66 66 67 68 69 69 67 69 70 71 71 68 68 71 70 72 74 73 73 73 73 73 74 74 75 75 74 74 74 74 74 73 74 74 74 74 75 75 74 73 73 74 73 72 73 73 73 71 71 73 73 72 72 72 73 74 75 75 66 61 57 54
57 66 66 67 67 68 69 69 67 69 70 71 72 72 70 71 72 74 74 75 73 72 75 75 76 75 75 75 74 75 74 74 72 72 73 74 73 73 74 74 74 74 74 74 73 73 73 73 73 72 71 72 72 73 73 73 74 73 74 74 72 70 65
57 66 67 67 68 68 68 69 69 70 70 71 72 73 74 75 75 75 75 74 72 72 75 75 75 75 75 75 74 74 75 74 75 73 72 72 72 72 72 74 74 74 75 74 74 73 73 72 71 71 72 71 71 73 73 73 73 74 74 73 74 73 72
60 66 66 67 67 68 68 68 69 70 70 71 71 72 74 75 75 76 77 76 74 75 75 75 75 75 75 74 74 74 75 74 73 72 73 73 75 70 63 68 77 74 75 75 74 73 72 72 72 72 72 72 72 72 73 73 74 75 62 78 63 78 73
60 65 65 66 66 67 67 68 68 69 70 71 72 72 72 72 73 74 74 76 77 77 76 76 75 74 74 74 72 71 73 72 71 71 71 72 74 68 61 52 45 50 63 73 58 50 47 57 75 73 73 71 72 67 74 73 73 49 52 53 50 48 49
59 63 64 65 66 66 66 67 68 68 69 70 71 71 72 72 73 74 75 75 75 76 76 77 75 74 73 73 72 70 72 70 70 72 73 73 73 70 69 67 61 45 42 48 51 46 41 42 44 46 51 75 71 58 48 49 46 46 45 46 48 48 46
58 61 62 63 64 65 66 66 66 67 67 68 69 70 70 70 72 73 73 75 76 77 76 77 75 73 71 72 72 73 75 74 73 73 73 73 75 73 72 71 69 64 48 43 45 44 42 41 41 43 46 52 64 67 64 49 44 45 46 46 46 48 48

ECMWFFLT1_sfc_dewp_057.txt.gz
Dewpoint
48 50 54 61 61 60 64 64 66 66 66 68 68 66 65 66 68 69 70 72 74 75 75 76 75 74 74 73 74 74 74 74 74 73 72 71 70 70 71 70 70 69 67 67 70 68 71 72 71 71 72 74 74 74 75 76 76 74 75 76 75 74 73
49 50 57 59 61 63 62 65 66 66 67 67 68 68 67 67 68 69 70 73 74 75 75 75 75 75 75 74 74 75 75 74 75 74 73 73 73 72 71 72 71 71 70 68 69 70 71 71 71 71 72 73 74 75 74 75 76 75 74 75 75 74 74
46 49 52 59 59 58 61 61 64 66 67 67 68 67 67 69 69 70 71 72 74 75 75 75 75 75 75 75 75 75 75 74 74 74 73 71 72 70 71 73 72 70 69 69 69 68 70 71 73 72 72 73 72 73 74 75 76 75 75 75 74 73 75
47 48 50 60 58 58 61 63 62 66 66 67 68 68 68 70 69 70 71 72 73 74 75 75 74 74 74 74 74 75 75 75 75 73 72 72 72 71 71 72 73 71 70 69 67 68 67 71 72 73 74 74 73 72 73 74 73 75 74 75 74 73 75
45 47 50 52 58 61 60 63 63 66 65 65 67 69 69 69 68 69 70 71 72 73 73 73 73 73 74 74 74 74 74 74 74 73 73 72 73 73 71 70 71 70 70 70 70 70 71 72 72 73 73 74 72 72 73 73 73 74 74 75 74 73 73
39 44 49 52 53 57 60 61 60 63 65 65 66 68 67 67 68 68 69 71 72 72 74 74 73 74 74 73 73 72 73 74 74 75 73 73 73 72 72 71 71 71 68 71 70 69 70 71 71 72 72 71 71 69 71 72 72 72 74 74 74 72 70
35 41 46 51 53 57 60 61 62 62 64 64 65 67 67 66 67 67 68 69 70 72 72 72 72 73 74 73 72 73 73 72 74 73 72 72 73 73 73 72 72 71 69 71 70 70 69 71 72 72 72 71 71 69 71 73 73 73 73 74 75 74 73
34 38 45 49 52 53 54 59 61 61 62 63 64 65 66 66 66 67 68 68 69 70 70 71 71 73 73 73 72 72 72 72 73 73 73 71 73 73 73 72 71 72 72 69 71 70 70 72 71 71 71 70 70 71 69 73 74 71 72 73 74 74 72
30 38 41 43 48 53 55 58 60 59 64 64 64 66 66 66 66 66 67 68 69 69 70 70 70 71 74 73 72 72 72 72 73 73 72 71 71 71 71 72 72 72 72 69 68 71 71 72 71 72 72 72 72 72 71 73 72 72 72 73 74 74 72
34 38 41 42 47 49 49 54 60 63 64 63 65 67 66 66 67 67 67 67 68 68 69 69 69 70 72 72 71 71 72 73 73 71 70 70 70 70 70 69 70 71 71 70 67 69 71 71 72 72 74 72 72 73 73 72 72 73 72 72 73 74 74
33 45 46 41 45 47 57 54 60 64 64 68 67 64 67 66 66 66 66 67 67 67 68 68 69 68 71 71 71 71 72 71 71 70 70 69 69 69 69 68 68 70 71 70 67 67 70 72 73 74 74 72 72 73 74 73 74 74 72 71 72 73 73
37 41 49 48 48 47 48 58 63 67 68 68 65 64 67 68 66 65 66 67 67 66 67 67 67 68 70 70 69 71 71 71 70 70 70 69 68 67 68 67 66 67 70 70 68 67 68 71 72 72 75 75 74 74 75 75 75 75 74 70 70 72 72
45 51 47 46 51 49 59 69 65 68 71 65 63 63 65 66 66 65 67 67 66 67 67 68 67 68 69 70 68 70 70 70 69 71 69 69 68 67 67 67 65 65 68 70 69 67 66 69 73 73 74 76 75 74 75 75 75 76 75 73 72 72 73
55 40 54 58 60 60 56 66 66 67 67 65 64 64 64 65 65 66 67 67 67 66 66 66 67 68 70 70 70 71 69 70 70 71 71 71 72 70 68 68 66 66 68 70 70 68 67 66 71 72 73 75 75 75 76 76 75 76 76 75 72 71 72
44 38 43 44 53 59 62 59 66 68 66 66 65 64 64 64 65 67 67 68 68 65 66 68 67 68 69 70 71 72 72 72 71 71 72 72 73 71 70 70 69 69 69 71 71 69 67 67 68 72 73 74 75 75 74 74 74 74 75 75 74 72 71
48 50 47 46 53 53 59 61 64 68 68 69 66 65 62 64 67 65 65 66 66 67 66 67 68 69 69 70 71 72 73 75 74 73 73 73 75 75 72 71 71 70 71 71 71 72 71 71 69 70 72 73 74 74 73 74 74 73 70 72 75 73 70
50 51 51 54 63 60 64 61 61 66 69 70 68 66 65 65 66 65 64 65 65 67 66 66 69 69 69 71 71 72 74 75 74 75 75 76 75 75 74 74 71 72 73 73 72 73 75 72 68 67 70 71 72 73 72 71 71 68 66 67 70 74 73
52 54 53 54 59 62 63 62 62 62 65 66 66 66 65 67 65 64 64 64 65 65 65 66 68 68 71 71 73 74 75 74 75 75 75 76 76 76 76 74 73 74 73 71 72 74 72 70 70 71 69 70 71 71 71 71 68 64 65 66 66 70 75
54 54 55 56 58 62 63 62 63 65 61 64 66 64 64 65 64 66 66 66 66 66 65 65 66 69 71 71 73 75 75 76 75 75 75 76 76 76 76 75 74 73 72 71 73 73 74 75 72 72 71 70 71 70 71 70 66 63 64 65 65 65 71
59 60 60 60 61 62 65 67 68 69 69 68 65 64 64 65 64 65 65 65 67 66 67 68 68 70 71 73 74 75 76 76 76 76 76 76 77 77 76 75 75 73 72 72 74 75 74 73 73 73 74 72 72 73 71 70 65 62 62 63 63 64 67
58 59 60 61 62 62 64 67 69 69 69 66 65 64 65 64 63 65 65 65 65 67 71 69 70 72 72 73 74 75 76 76 76 76 77 77 77 77 76 76 76 74 74 72 73 74 75 73 73 73 73 71 70 71 71 67 63 61 61 61 62 63 65
55 56 57 59 62 64 65 64 67 67 68 70 69 66 61 63 63 62 63 63 64 66 68 70 72 70 72 73 73 75 75 75 76 77 77 77 77 77 77 76 77 76 75 74 72 73 74 75 73 73 73 73 72 70 71 69 60 60 60 60 61 62 71
54 56 57 59 60 62 65 66 66 68 70 69 68 67 63 59 62 61 62 63 64 67 66 68 70 71 73 73 73 74 75 75 76 76 77 77 77 77 76 76 77 76 76 74 71 71 72 74 73 74 74 74 74 72 72 71 65 59 59 59 60 63 73
53 55 56 57 60 62 65 65 65 67 67 69 68 66 65 60 62 63 65 64 64 65 66 67 68 70 73 72 73 74 75 76 76 76 77 77 77 77 76 76 76 76 76 74 71 69 70 72 73 73 73 73 74 73 72 71 69 57 58 58 58 65 73
52 53 55 57 59 60 62 65 67 67 69 69 67 65 63 61 63 63 65 66 64 66 67 67 68 70 72 72 73 75 76 75 76 76 77 77 77 76 76 76 76 76 76 73 73 71 70 71 71 72 72 71 72 73 72 70 68 56 57 56 57 66 75
52 53 55 56 59 61 64 68 68 67 67 66 66 65 62 59 63 65 65 65 63 65 66 68 69 71 72 73 73 75 76 76 77 77 77 77 77 76 76 76 75 75 75 74 73 71 69 68 70 70 71 70 71 72 72 72 71 65 56 56 56 60 74
52 53 55 56 58 63 65 67 66 65 66 67 68 63 60 59 62 66 69 68 67 66 66 68 70 72 74 74 73 74 76 76 76 76 76 77 77 75 75 75 74 74 75 73 71 71 71 68 68 68 70 69 70 69 71 71 72 68 54 55 55 57 64
52 53 55 58 61 62 65 67 66 66 65 68 65 63 61 64 68 70 71 68 66 68 67 69 71 73 74 74 74 73 75 75 76 76 76 77 77 76 75 75 75 75 74 72 72 73 73 73 71 68 68 69 68 70 70 72 71 72 56 55 54 56 58
52 53 55 57 60 61 65 67 66 65 67 64 62 61 61 61 68 71 71 69 70 67 69 70 71 73 74 75 73 74 75 76 76 76 76 76 76 76 75 75 75 75 76 75 74 74 73 74 73 71 69 70 69 70 72 74 76 67 64 55 54 55 56
52 53 54 56 58 61 67 68 68 68 69 65 63 63 64 65 70 71 70 71 72 69 70 72 73 75 74 75 74 74 75 75 75 76 76 76 76 76 76 75 75 75 76 75 74 73 73 73 74 72 69 68 68 68 69 73 73 67 62 61 54 54 55
52 52 54 56 58 63 69 69 69 68 69 67 66 66 68 66 70 72 71 72 74 75 72 73 73 74 75 74 74 75 75 76 76 76 76 76 76 76 75 75 75 74 76 76 74 73 73 74 73 73 71 70 70 70 70 72 76 76 66 59 55 54 54
52 53 54 57 61 68 70 69 67 66 68 70 65 65 70 67 68 73 73 72 74 74 75 74 74 75 75 75 74 75 74 75 75 75 75 75 75 76 75 75 74 74 75 74 73 74 73 73 72 72 73 72 72 71 71 72 73 74 73 63 59 57 55
52 53 55 58 65 69 70 70 68 68 69 71 71 66 66 68 68 72 74 74 72 72 75 75 75 75 75 75 74 75 75 74 73 73 74 75 74 74 75 74 73 74 74 74 73 73 73 73 72 72 71 71 71 71 71 72 72 72 74 71 67 65 63
52 54 57 60 67 69 70 71 71 71 72 72 74 75 74 68 70 72 73 72 72 70 74 75 75 74 75 74 74 74 74 74 75 74 72 73 72 72 72 73 74 72 74 73 73 71 71 72 71 71 71 70 71 72 72 71 72 72 73 73 71 70 68
54 55 58 60 63 68 68 71 71 71 72 73 73 74 76 76 73 73 73 73 73 75 75 74 75 75 76 74 74 73 75 74 73 72 72 73 74 72 68 77 74 72 74 73 73 72 71 71 71 71 71 71 71 71 72 73 73 74 67 77 67 71 71
54 55 56 59 61 68 69 69 70 71 71 72 74 73 73 75 76 76 73 74 74 75 75 76 75 75 74 74 73 72 73 72 70 71 71 71 73 69 62 51 44 50 73 73 58 53 48 61 76 78 71 70 73 71 72 74 75 56 55 60 62 62 62
54 53 55 58 61 66 68 69 69 70 70 71 72 73 73 73 73 75 75 76 74 74 75 76 74 73 73 73 71 70 72 70 69 71 73 72 72 70 70 68 64 45 42 49 52 46 43 43 44 52 63 77 73 65 52 56 53 50 50 52 52 53 57
55 55 56 57 59 63 67 68 69 68 69 70 70 71 72 72 73 74 74 75 75 75 76 76 75 73 72 73 71 75 75 72 72 72 73 73 74 74 73 72 70 67 49 42 45 45 43 42 43 47 57 61 66 70 71 57 50 49 49 49 50 50 52

ECMWFFLT1_sfc_dewp_060.txt.gz
Dewpoint
55 59 61 62 62 62 64 65 65 65 66 67 68 66 65 65 67 68 69 72 73 73 73 73 74 74 73 72 73 73 72 72 72 71 70 69 68 70 72 70 70 71 69 70 71 72 73 74 74 74 75 77 76 77 78 78 78 76 79 79 78 78 78
58 58 59 61 63 63 64 66 66 65 67 68 68 68 66 66 67 68 70 72 73 74 73 74 74 74 74 72 73 74 73 73 72 72 70 71 71 72 72 73 72 73 73 71 73 73 74 72 75 73 75 76 75 77 76 78 78 78 76 78 78 78 79
55 55 58 61 62 62 64 63 64 64 67 65 67 67 67 68 68 69 70 72 74 74 73 74 74 74 74 73 73 73 73 73 73 72 70 69 70 65 70 74 73 73 71 71 74 72 72 72 75 74 74 74 73 76 77 77 78 77 78 78 77 76 78
56 55 58 59 60 63 65 66 66 65 67 68 69 69 68 69 69 69 70 71 73 74 74 73 73 74 74 74 73 73 74 73 73 71 69 69 69 68 69 73 74 72 72 70 69 71 68 72 73 75 75 75 75 75 75 76 75 77 77 78 77 77 78
53 52 53 54 57 63 64 65 65 67 67 66 68 69 69 69 68 68 69 70 72 73 73 72 72 73 74 73 72 72 73 73 73 72 71 70 71 70 69 68 71 70 71 70 70 73 74 73 72 74 74 76 75 75 76 76 75 77 77 77 77 76 76
51 51 54 59 60 61 62 63 64 64 64 65 66 68 68 70 70 72 66 69 71 72 73 74 73 73 73 72 72 72 74 74 74 74 73 72 73 71 69 70 70 70 69 71 69 70 74 72 72 72 72 73 72 72 73 74 74 75 76 76 76 75 73
42 58 57 58 58 58 60 61 63 65 65 66 66 67 69 68 68 70 68 68 70 72 72 73 72 72 73 73 73 74 74 72 73 72 72 70 72 72 71 71 71 70 70 72 71 69 69 72 72 73 73 72 73 71 73 74 74 74 76 76 76 77 76
45 62 58 58 58 59 58 60 61 61 63 63 65 68 69 69 68 68 71 68 70 71 72 72 72 73 74 74 72 72 73 72 72 72 72 70 70 71 72 71 71 72 72 70 72 71 68 71 71 73 73 72 73 73 73 75 76 73 74 75 76 75 73
39 49 58 56 59 58 60 60 60 62 64 65 65 68 68 68 67 68 68 70 70 71 72 72 72 72 74 73 73 73 73 73 72 72 71 69 69 69 69 70 70 72 72 69 69 72 70 70 70 73 74 73 73 74 73 75 74 74 74 75 75 75 73
39 46 58 56 57 55 58 56 61 63 66 65 65 66 68 68 67 67 67 66 68 70 71 71 71 72 73 73 72 72 73 73 73 71 70 70 68 69 69 70 69 71 71 69 68 70 71 71 71 73 74 73 74 74 73 75 74 73 73 75 75 75 75
37 45 49 53 58 57 58 59 61 64 64 66 65 63 66 67 67 65 66 66 68 69 70 71 72 71 72 72 71 71 72 71 71 70 70 68 67 68 69 69 70 70 70 69 68 69 70 72 72 74 75 73 74 74 73 74 73 73 72 73 74 75 74
51 47 49 48 57 62 63 64 64 66 66 66 64 62 65 66 67 66 65 66 67 67 70 71 71 71 72 72 71 71 71 70 69 69 69 68 68 68 69 69 70 69 70 70 69 69 69 71 72 73 74 74 74 74 73 74 74 74 73 71 72 74 74
46 57 50 49 55 60 61 64 65 67 67 64 62 63 64 65 65 65 67 67 66 68 69 71 71 72 72 72 70 70 70 69 70 71 70 69 68 68 69 68 69 69 69 69 69 67 68 69 72 73 74 74 74 73 74 74 73 75 74 73 72 73 73
56 38 48 56 56 60 63 65 65 66 67 65 63 61 61 65 64 65 67 66 68 69 69 69 71 72 72 72 71 71 70 70 70 71 71 70 71 70 69 69 69 70 70 71 70 67 67 68 71 73 73 74 73 74 74 75 74 75 75 75 73 73 73
48 50 54 56 61 65 68 63 66 68 66 65 62 61 62 63 65 66 68 68 69 68 68 70 71 71 71 72 72 72 71 72 71 72 73 72 72 71 71 71 70 71 71 72 71 69 67 68 69 71 72 73 73 73 73 73 73 74 75 75 74 73 72
49 50 52 55 59 59 65 66 65 71 70 68 64 64 62 64 67 66 66 67 67 69 68 70 71 71 71 71 72 72 72 74 73 73 73 73 73 73 72 71 71 71 71 72 71 72 71 69 71 70 71 72 74 74 73 73 73 72 69 71 73 73 70
54 52 54 55 60 57 61 62 64 70 68 68 71 68 66 67 67 67 65 66 66 68 68 69 71 70 71 72 71 73 74 74 74 73 74 74 74 73 73 73 72 72 72 73 72 72 73 71 70 70 71 71 72 73 73 72 72 69 66 67 69 72 72
55 57 57 58 59 60 58 60 66 66 69 69 69 69 71 70 69 66 64 65 65 66 66 67 69 69 71 72 73 74 74 74 74 74 74 74 74 74 74 73 73 73 73 72 72 73 72 71 70 71 71 71 72 73 73 73 70 65 65 66 66 69 73
53 54 56 57 58 59 59 62 63 66 67 67 64 65 69 71 69 71 66 66 66 67 66 66 66 69 71 71 73 75 75 75 74 74 74 74 74 74 74 74 73 72 71 71 72 72 73 72 71 71 71 72 73 72 73 73 67 63 63 65 65 65 71
54 55 56 57 58 58 61 63 64 63 65 68 69 66 66 66 64 66 66 66 68 67 69 68 68 70 71 72 74 75 75 75 75 74 74 75 75 75 74 73 73 72 71 70 72 73 73 72 72 72 72 72 73 74 72 72 66 62 62 63 64 65 67
53 54 55 57 58 58 61 63 64 65 65 64 66 69 69 67 61 62 65 72 67 69 71 70 71 72 72 73 74 76 76 75 75 75 75 75 75 75 74 73 74 72 71 68 70 72 73 72 71 72 72 71 72 73 71 70 63 61 61 62 62 64 66
52 53 54 55 57 59 61 60 62 62 64 67 66 65 65 66 66 60 58 62 63 66 68 71 72 72 72 74 74 75 75 75 75 75 75 75 75 75 74 74 74 74 72 69 68 71 73 73 71 72 72 71 70 70 71 69 61 60 60 61 62 63 71
52 53 53 55 56 57 60 61 62 63 65 65 65 65 61 61 63 63 59 61 60 62 66 67 72 73 73 73 74 75 75 75 75 75 76 75 75 75 74 74 74 74 73 71 69 68 70 72 71 73 71 71 72 71 72 71 63 58 59 60 61 64 73
52 52 53 54 56 57 59 60 61 62 64 65 67 68 68 69 65 64 64 61 60 62 65 66 68 73 73 72 73 74 75 75 75 76 76 76 75 75 74 74 74 73 73 71 69 68 69 72 73 72 72 71 71 70 72 71 67 57 58 59 59 65 73
51 51 52 54 55 56 57 59 62 63 65 67 67 68 67 67 68 67 65 65 62 64 64 66 68 71 73 72 72 74 76 76 76 76 76 76 75 75 75 74 74 73 74 71 70 71 72 73 73 72 72 70 70 71 71 70 69 55 58 57 58 65 73
51 51 52 53 54 56 58 61 62 63 64 65 67 67 67 66 68 68 69 65 64 62 63 65 67 70 72 72 73 75 76 75 77 77 76 77 77 77 76 75 73 73 72 72 71 70 70 72 72 72 71 71 71 73 71 70 73 62 56 56 56 60 74
51 51 52 52 54 58 57 58 59 61 63 66 69 68 67 68 67 68 69 69 65 63 62 65 69 70 73 74 72 73 76 76 76 76 77 77 77 76 75 74 74 74 74 72 71 70 70 70 71 71 72 71 71 71 72 71 72 66 54 55 56 58 65
50 50 51 54 56 56 56 56 59 62 64 67 67 68 68 70 71 71 70 69 67 66 64 67 70 71 73 75 73 72 75 75 76 76 76 77 77 77 76 76 76 76 74 72 72 72 71 71 70 70 71 71 71 72 72 73 70 68 55 55 55 56 60
50 50 51 52 53 54 55 57 59 62 65 67 68 68 68 68 70 70 69 69 71 67 68 70 71 72 74 75 74 74 75 76 76 76 76 76 77 76 76 76 76 76 76 75 75 74 72 72 72 71 70 71 71 71 73 74 74 65 62 55 54 55 57
50 51 51 51 52 53 55 57 59 62 65 68 70 70 70 71 72 70 69 70 73 70 69 73 73 74 75 75 75 75 75 76 76 77 76 77 77 77 77 76 76 76 77 76 75 74 73 73 72 71 69 69 69 69 70 73 75 65 61 60 53 55 56
51 50 50 51 52 54 55 56 58 61 65 68 70 70 71 73 72 72 72 73 75 73 72 74 74 74 75 75 75 75 75 76 76 76 76 76 76 76 76 76 76 76 77 76 75 74 73 73 73 72 70 69 69 70 71 73 77 72 63 58 55 55 55
50 51 51 52 52 53 54 55 57 61 66 69 71 69 75 76 73 72 74 76 76 74 75 75 75 75 75 75 75 75 75 76 75 76 76 76 76 77 77 76 75 75 76 75 74 74 73 73 72 72 71 71 71 70 70 73 73 75 68 61 58 57 55
52 52 52 53 53 54 54 56 58 60 64 69 72 73 74 75 76 72 76 78 76 74 76 76 76 75 75 76 75 76 75 74 73 74 74 75 75 75 76 76 75 74 75 74 73 72 73 73 73 72 71 71 70 70 70 71 72 75 71 67 64 63 62
53 53 53 54 53 54 54 55 58 60 63 68 72 73 74 75 77 77 77 75 73 72 77 76 76 75 76 76 75 75 75 75 75 74 74 74 73 74 74 75 75 74 75 74 73 72 73 73 72 72 72 71 70 70 71 70 71 73 74 69 67 66 66
54 54 55 54 53 54 53 56 58 60 64 69 72 73 75 76 77 77 78 77 74 75 77 77 75 76 76 76 75 75 75 75 75 74 74 74 75 76 78 77 74 75 75 75 74 73 72 72 72 72 72 72 71 71 71 71 71 71 69 72 64 67 68
54 55 55 55 53 53 54 57 59 61 65 70 72 73 74 75 75 77 77 76 78 77 77 78 76 75 75 74 73 72 73 74 73 74 73 73 75 68 62 51 43 50 77 73 64 58 58 65 72 72 71 71 71 72 71 72 71 64 61 60 58 58 60
54 55 55 55 53 53 54 56 59 62 67 70 72 73 73 74 75 76 76 77 77 76 78 78 76 75 74 74 73 70 72 72 72 74 74 74 71 69 68 66 64 46 42 49 53 47 45 48 55 63 66 72 75 68 56 63 62 58 55 56 56 56 56
54 55 56 55 54 55 56 57 59 64 66 69 71 71 72 72 73 74 74 75 76 77 78 79 77 75 74 74 73 72 72 73 73 73 73 75 72 72 71 70 69 66 51 44 46 45 44 43 44 50 60 65 67 70 72 58 52 51 52 54 54 55 54

ECMWFFLT1_sfc_dewp_063.txt.gz
Dewpoint
60 60 60 61 60 60 61 61 61 60 61 62 63 63 64 64 66 67 68 69 68 69 70 71 72 71 69 69 69 69 68 67 68 66 66 67 67 65 65 67 68 68 69 70 71 71 72 72 72 74 75 74 75 76 74 76 75 75 76 76 76 75 74
59 59 59 60 61 61 60 61 62 61 61 63 64 64 64 64 66 67 68 69 69 69 69 70 72 71 70 69 69 69 68 67 68 68 66 67 69 67 65 66 67 69 69 69 70 72 72 72 72 74 74 75 74 76 75 76 75 75 75 75 74 75 76
58 58 59 60 61 61 61 61 62 61 61 63 65 64 64 65 65 67 68 69 69 69 70 69 71 71 70 69 69 69 69 67 67 67 65 65 67 68 67 67 66 68 69 69 70 71 72 72 72 73 73 74 74 75 76 75 76 76 75 75 75 74 75
57 57 58 59 61 62 62 62 62 62 62 63 64 65 65 65 65 67 68 69 70 70 70 69 70 71 70 69 69 69 69 68 67 67 66 65 65 68 68 69 67 68 69 69 70 69 71 71 73 72 76 74 73 74 75 75 75 75 76 75 75 75 75
56 56 57 59 61 62 63 63 63 63 62 64 65 66 65 65 65 66 68 69 70 70 70 69 69 70 71 70 69 69 69 68 67 67 66 65 65 65 69 69 69 68 69 69 70 70 69 70 72 72 74 73 73 74 75 75 75 75 75 76 74 75 75
55 56 57 59 61 62 63 63 64 63 63 63 65 66 65 65 65 65 67 69 70 70 70 70 69 71 71 70 69 69 69 69 68 67 66 65 66 64 66 70 70 69 69 68 70 70 69 70 70 72 73 73 73 73 74 74 75 75 75 75 74 74 75
55 57 58 60 60 62 63 63 64 64 63 64 65 66 66 65 65 65 66 69 70 70 70 70 69 70 71 70 69 69 69 68 68 68 67 66 66 65 64 67 70 70 70 70 68 70 69 69 69 72 72 72 73 73 74 74 74 75 75 75 74 74 74
55 57 58 60 61 62 62 63 64 64 64 64 65 66 66 65 65 65 66 68 70 70 70 70 70 70 70 71 70 68 68 68 68 68 68 66 66 66 65 65 68 70 70 70 68 68 70 70 69 71 71 71 72 73 73 74 74 74 74 74 74 74 74
56 57 58 59 60 61 62 63 63 63 64 65 66 66 66 66 66 66 67 68 69 70 70 70 70 70 71 71 70 69 68 68 68 69 68 67 66 66 65 65 66 69 69 69 69 68 68 71 70 71 71 71 72 72 72 73 73 74 74 74 74 74 74
55 56 58 58 59 59 61 62 64 64 65 65 66 67 66 66 66 66 67 68 69 70 71 71 71 71 71 71 71 70 69 69 69 69 68 67 67 67 67 66 66 69 69 69 69 68 67 70 70 71 71 71 71 72 72 72 73 73 73 74 74 74 73
54 55 56 57 57 59 61 62 63 64 65 66 66 66 66 66 66 66 67 68 68 71 71 72 72 71 71 71 71 70 70 69 69 68 69 68 67 68 68 67 67 68 69 69 69 69 68 69 70 71 71 71 71 72 72 72 73 72 72 73 73 74 73
54 54 55 56 57 59 61 62 63 64 65 65 65 65 66 67 66 66 66 67 68 69 71 72 72 72 72 71 71 71 70 70 69 69 69 69 68 67 68 68 68 68 69 69 68 69 69 68 69 71 72 71 72 72 72 72 73 72 72 72 73 73 73
57 58 60 59 58 58 60 61 62 63 65 65 65 65 66 67 66 66 66 66 67 68 70 71 71 72 72 72 71 71 70 70 70 69 69 69 68 67 67 68 68 68 68 70 69 68 69 68 68 71 72 72 72 72 72 72 73 73 72 72 72 73 73
62 57 58 61 64 64 62 63 62 63 64 64 64 65 66 67 66 66 66 66 67 68 68 70 71 71 72 72 72 71 70 70 70 70 69 69 68 68 67 68 68 68 69 70 69 68 69 69 68 69 71 71 71 72 72 72 72 72 72 72 72 72 73
54 55 57 60 63 65 66 65 66 68 66 65 64 65 66 66 66 66 66 66 67 67 68 69 70 71 71 71 72 72 71 71 71 71 70 69 69 68 68 68 69 69 69 70 69 69 68 69 69 69 70 71 71 72 72 71 72 72 72 71 71 71 72
54 55 57 59 60 64 66 66 65 67 68 68 68 67 65 67 67 66 66 66 66 67 67 68 69 71 71 71 72 72 71 71 71 71 71 70 69 69 68 68 69 70 70 70 69 69 69 69 69 69 70 71 71 71 72 72 71 71 68 69 71 71 71
53 54 55 57 60 60 62 65 66 66 68 69 69 69 68 67 68 69 69 70 69 66 67 68 69 70 71 71 72 72 72 72 71 71 70 70 69 69 69 69 69 70 70 70 70 69 69 69 69 69 70 70 71 71 71 72 71 67 65 66 68 71 71
52 53 53 55 56 59 60 61 63 66 67 68 68 68 68 70 72 70 70 70 70 72 72 72 69 69 70 71 72 73 72 72 71 71 70 70 70 69 69 69 69 70 70 70 70 70 69 68 69 70 70 70 71 71 71 71 69 64 64 65 65 68 72
52 52 52 54 55 57 59 60 60 64 67 68 68 69 70 70 71 72 73 72 71 72 72 73 72 71 71 71 72 72 72 72 71 71 70 71 70 70 69 70 70 69 70 70 70 70 69 69 69 69 70 70 71 71 71 71 67 63 63 64 64 65 70
51 51 52 53 53 55 57 61 60 60 62 67 70 69 71 68 68 66 71 72 73 73 72 72 72 71 70 72 72 72 72 72 71 71 71 71 71 70 70 70 70 69 69 70 70 70 70 69 68 70 70 70 70 71 71 71 67 62 62 62 63 64 67
50 51 51 52 52 54 56 57 57 58 60 62 65 67 68 67 66 65 67 69 71 71 71 71 71 71 71 70 71 72 72 72 71 71 71 71 71 71 70 70 70 69 69 69 70 70 70 69 68 69 70 70 70 71 72 72 66 61 61 61 61 63 65
50 50 51 51 52 53 55 55 56 57 59 65 62 66 68 65 65 67 66 68 69 69 69 69 70 69 69 69 70 72 72 72 72 72 71 72 72 71 70 70 70 70 69 69 70 70 70 70 69 69 70 71 71 71 71 72 64 61 60 60 60 62 68
49 50 51 51 51 52 54 55 56 57 59 59 60 62 64 66 66 67 65 68 67 67 68 68 68 68 68 69 70 72 72 72 72 72 72 72 72 71 71 70 70 70 70 69 69 70 69 69 69 69 69 70 71 71 71 72 65 61 59 59 60 62 70
49 50 50 50 51 52 53 54 55 57 58 58 59 61 63 66 67 68 68 68 66 66 67 67 67 68 68 68 70 72 72 72 72 72 72 72 71 71 71 71 70 70 71 69 68 69 69 69 69 69 69 68 69 71 71 71 66 59 58 58 59 64 71
48 48 49 50 51 51 53 54 55 57 57 58 59 60 62 64 65 67 68 68 68 65 66 66 67 67 68 69 70 72 72 72 72 72 72 72 72 71 71 71 70 70 71 70 68 68 69 70 69 69 69 69 68 69 70 71 67 57 58 57 57 63 71
48 48 49 50 50 52 53 55 55 55 56 57 58 60 62 64 66 68 68 69 68 66 63 64 65 66 66 68 71 72 73 72 72 72 72 72 72 72 72 72 71 70 70 70 69 67 68 70 69 69 69 69 69 69 69 69 71 63 56 56 57 59 71
49 49 49 50 50 55 52 53 54 54 55 56 58 59 60 63 65 68 68 69 69 68 67 63 62 63 64 69 71 72 73 73 73 72 72 72 72 72 72 72 71 71 70 70 69 68 68 69 69 69 69 69 70 69 69 69 70 65 55 55 55 57 64
48 50 49 51 52 53 52 52 53 54 54 55 56 58 59 61 64 67 69 69 69 69 68 68 64 63 65 72 71 71 73 73 73 73 73 73 73 72 72 72 72 71 70 70 69 69 68 69 70 70 70 70 70 70 70 70 67 69 56 54 54 55 58
49 51 51 49 49 51 53 52 53 53 54 54 56 57 59 60 63 66 69 70 70 70 70 69 67 65 66 71 72 72 73 73 73 73 74 73 73 73 72 73 72 72 71 71 70 69 69 70 71 71 71 71 71 71 71 71 70 65 63 54 53 54 55
51 51 51 50 50 51 53 52 53 53 53 54 56 57 59 60 63 65 68 70 71 71 71 70 68 67 65 68 72 72 73 74 74 74 74 74 74 73 73 73 73 72 72 71 70 69 69 69 71 71 71 71 71 71 71 71 71 65 61 59 53 53 54
50 51 52 52 52 53 53 52 52 52 53 54 55 57 59 61 62 65 68 72 74 74 73 71 69 67 67 66 69 72 72 74 74 74 74 75 74 74 74 74 73 73 72 72 71 70 69 69 69 70 70 71 71 71 71 71 72 71 63 58 55 54 54
51 52 52 52 52 53 54 52 52 52 53 55 56 57 59 60 62 64 68 72 75 76 75 73 70 69 68 68 69 71 72 74 74 74 74 75 75 75 75 74 74 73 73 72 71 71 70 69 69 69 69 70 70 70 70 71 72 72 68 61 58 56 54
50 51 52 52 53 55 53 53 52 53 54 56 57 58 59 60 62 65 68 72 75 76 76 74 71 70 70 69 71 71 72 73 74 74 74 75 75 75 75 75 74 74 73 73 72 71 71 70 69 69 68 68 69 70 70 70 71 72 70 67 64 62 61
50 51 52 53 54 55 53 52 52 54 55 57 58 59 59 61 63 66 70 73 75 76 76 74 72 70 70 70 71 72 72 73 73 74 74 74 74 75 75 75 75 74 74 74 73 72 71 71 70 69 68 67 68 69 69 69 70 72 71 68 67 65 64
51 51 53 53 54 55 53 53 55 55 57 58 59 59 61 64 66 69 72 74 75 76 76 74 72 71 71 71 72 72 72 73 73 73 74 74 74 75 75 75 75 75 74 75 75 74 72 72 71 70 69 68 67 67 68 69 69 72 65 68 62 65 65
51 52 53 54 54 54 53 54 54 56 58 59 60 62 65 65 67 70 72 74 75 75 75 75 73 72 71 72 72 72 72 73 73 74 73 74 74 74 71 59 50 58 74 74 71 67 65 65 70 71 70 69 68 68 67 68 69 63 60 58 56 56 58
52 53 53 54 53 52 53 54 57 58 59 60 62 64 65 65 67 71 72 72 73 75 75 76 74 72 72 72 72 71 72 72 73 73 74 74 74 74 72 67 61 47 44 50 58 64 60 57 59 61 63 69 69 67 62 61 60 57 57 55 54 53 54
53 53 54 53 53 53 53 55 56 58 60 60 61 62 63 64 66 67 69 72 73 73 72 74 77 75 73 73 73 72 72 73 73 74 74 74 74 74 71 69 68 65 51 44 46 52 57 58 58 58 57 60 64 69 69 62 58 53 53 54 53 53 52

ECMWFFLT1_sfc_dewp_066.txt.gz
Dewpoint
60 60 60 60 60 60 60 59 60 61 61 60 61 61 60 61 63 62 64 65 65 66 67 68 69 68 68 68 68 67 66 66 66 67 65 63 64 65 65 65 67 69 69 70 70 70 73 74 74 75 75 74 74 74 74 75 74 74 74 73 74 75 74
60 60 60 60 60 60 60 59 60 61 61 61 61 62 61 61 63 63 63 65 65 66 67 67 69 68 67 68 68 67 66 65 66 68 67 65 65 65 66 66 66 69 70 70 70 70 72 73 74 74 74 74 74 75 74 74 74 73 74 74 73 74 74
60 60 60 59 60 60 60 60 59 60 61 61 62 62 62 62 63 64 64 65 65 65 67 67 68 68 67 67 67 68 66 65 66 66 66 64 64 63 65 66 67 68 69 70 71 71 72 72 73 74 74 74 74 75 74 74 74 73 74 74 73 74 73
60 60 60 60 60 61 60 60 60 60 61 62 61 62 62 63 64 64 65 65 65 66 66 67 68 68 68 67 67 67 67 66 65 65 66 65 64 63 64 65 67 68 69 70 70 71 71 72 72 73 76 74 74 74 75 74 74 74 74 74 73 73 74
59 60 60 59 60 61 61 60 59 60 60 62 62 63 63 64 64 65 65 65 65 66 66 67 68 69 69 68 67 67 67 66 65 65 65 65 66 65 63 63 64 66 68 69 70 71 72 72 71 72 74 74 73 73 74 75 74 74 74 74 73 73 73
58 59 59 59 60 60 61 61 60 59 60 61 62 62 63 63 64 65 65 66 66 66 67 67 68 69 69 68 67 67 67 67 66 66 65 64 65 66 65 63 63 64 66 67 69 70 71 71 71 71 72 73 73 73 73 74 74 74 74 74 73 73 73
58 59 59 59 59 60 60 61 61 60 60 60 62 63 64 63 64 65 66 66 66 66 66 67 67 69 69 69 68 68 67 67 66 65 65 64 64 65 66 65 64 63 63 67 68 68 68 70 71 71 72 72 73 72 73 74 74 74 74 74 73 73 74
57 58 58 59 59 60 60 61 61 61 61 60 61 63 63 63 64 65 66 67 67 66 66 67 67 68 69 69 69 68 67 67 67 66 65 65 64 64 65 66 66 65 64 65 67 68 67 67 69 71 71 72 72 72 72 73 74 74 74 74 74 73 74
57 57 58 58 59 60 60 61 61 61 61 61 61 62 63 64 64 64 65 66 67 67 67 67 67 68 69 69 69 68 68 67 67 67 65 65 64 63 63 65 66 67 65 65 65 68 68 67 67 69 71 72 72 72 72 73 74 74 74 74 74 73 73
58 57 57 58 58 59 60 61 62 62 62 61 62 63 64 64 64 64 65 66 67 68 68 67 67 68 68 69 69 69 68 68 67 67 66 65 64 63 63 62 64 68 67 66 66 66 68 68 67 68 69 71 72 72 72 73 73 74 74 74 74 73 73
58 59 60 57 58 59 61 62 62 63 62 62 62 63 64 64 64 64 64 66 67 68 68 68 68 68 68 68 68 68 68 67 67 67 66 65 64 64 63 62 62 65 67 67 67 67 67 69 69 68 69 70 71 71 72 72 73 73 74 74 74 74 73
62 63 63 63 63 63 62 64 64 64 64 63 63 63 64 65 64 64 64 65 67 68 68 68 69 68 68 68 68 68 68 67 67 67 67 66 65 64 63 63 62 62 65 68 68 68 67 67 69 69 69 69 70 71 71 72 72 73 73 73 74 74 73
58 59 60 61 62 63 63 64 65 66 65 64 63 63 64 65 64 64 64 65 66 68 68 69 69 69 68 68 68 68 68 67 67 67 67 67 66 65 64 63 62 62 62 66 67 68 68 67 68 70 69 69 69 70 71 71 72 72 73 73 73 73 73
58 56 57 59 59 60 62 62 63 64 65 67 65 65 64 65 65 65 65 65 66 67 68 69 69 69 69 69 69 69 69 68 68 67 67 67 67 66 65 64 64 63 63 65 66 67 68 68 67 68 70 70 70 70 70 71 71 72 72 72 72 73 73
52 53 54 56 58 59 60 60 63 64 65 66 66 66 66 66 66 66 66 65 66 68 69 69 69 69 69 69 69 69 69 70 69 68 68 68 68 67 66 66 65 65 64 65 66 67 67 68 68 67 69 70 70 70 70 70 71 71 72 72 72 72 72
51 51 52 54 56 57 59 58 60 63 65 66 67 66 67 68 68 69 66 66 66 67 69 71 70 70 70 70 70 70 70 71 70 70 69 68 68 68 67 67 67 66 66 66 66 67 67 68 68 67 68 69 70 70 70 71 71 70 67 69 72 72 72
51 50 51 53 54 55 57 58 58 60 63 64 67 68 68 68 68 69 70 68 66 67 68 70 71 71 71 72 70 70 70 70 71 71 70 70 69 69 68 68 67 67 67 67 67 68 68 68 68 68 67 68 69 70 70 70 70 67 65 65 67 71 71
53 50 50 52 56 56 56 57 57 58 60 62 63 65 67 68 69 69 69 69 70 69 70 71 71 71 70 70 69 70 70 70 70 71 71 71 70 69 69 68 68 67 68 68 68 68 68 68 68 68 68 68 68 69 70 70 68 64 64 64 64 67 71
50 51 50 50 51 55 57 57 57 57 59 61 62 64 66 68 69 69 69 70 70 71 70 70 70 70 70 70 70 70 70 70 70 70 71 71 71 70 70 69 68 68 67 67 68 68 69 69 68 68 68 68 68 68 70 70 67 63 62 63 63 64 68
50 50 50 50 50 51 53 56 58 58 57 60 61 63 65 67 70 70 71 71 70 70 70 70 70 70 70 70 70 70 70 70 70 70 71 71 71 71 70 69 68 68 67 68 68 69 69 68 68 68 69 69 68 69 69 70 67 62 61 62 62 63 65
51 49 50 50 50 51 52 54 55 55 56 58 59 61 63 63 65 70 72 70 70 69 69 69 70 70 70 70 70 70 70 70 70 71 72 72 71 71 70 70 69 68 68 67 68 68 69 68 68 68 69 69 69 69 69 69 65 61 60 60 60 62 64
53 49 50 50 50 51 51 52 53 55 57 58 57 58 61 61 62 62 65 70 68 69 69 68 69 70 70 70 69 69 69 69 70 71 72 72 71 71 70 70 69 69 68 68 68 68 69 69 69 68 68 69 69 69 69 69 63 61 60 59 60 61 66
52 51 49 50 50 50 51 52 53 54 56 55 56 56 60 62 63 61 61 64 66 68 68 68 69 69 70 70 69 69 69 69 70 71 72 72 71 71 70 70 70 69 69 68 68 68 69 69 69 69 68 69 69 69 69 69 65 60 59 59 59 61 67
52 52 50 49 50 50 51 52 53 54 55 54 55 55 56 58 62 60 61 63 65 67 68 68 69 69 70 70 70 70 70 70 70 71 72 72 71 71 71 70 70 69 69 68 68 68 68 69 69 69 69 68 69 69 69 69 66 59 58 58 58 62 68
53 51 52 51 49 49 50 51 53 54 54 54 54 55 55 56 57 59 60 63 64 67 68 68 68 69 69 69 70 70 70 70 71 71 72 72 71 71 71 70 70 69 69 69 68 68 68 69 69 69 69 68 69 69 69 69 67 58 58 57 57 62 69
53 52 51 54 52 52 52 53 52 52 52 52 53 54 55 56 58 59 60 61 62 64 67 68 68 68 68 68 69 69 70 70 71 72 72 72 72 71 71 71 70 70 69 69 68 68 68 69 69 69 69 69 69 69 69 69 69 66 57 57 56 58 69
53 52 52 53 51 55 52 52 52 52 52 53 54 54 55 56 57 59 60 61 62 63 67 69 72 70 68 68 68 68 69 70 70 71 72 72 72 71 71 71 70 70 69 69 69 68 68 68 69 69 69 69 69 68 69 70 70 69 57 56 56 56 61
53 52 51 54 54 53 51 52 53 52 52 53 53 54 55 56 57 59 60 61 61 62 64 67 69 71 71 69 67 67 68 69 70 71 72 72 72 72 71 71 71 70 70 69 69 69 68 68 68 68 69 69 69 69 68 69 68 70 59 56 55 55 56
51 53 52 52 52 51 52 51 52 53 53 52 53 54 55 56 57 59 60 60 61 62 64 65 68 71 72 71 68 67 67 69 70 71 72 72 72 71 71 71 71 71 70 70 69 69 69 69 68 68 68 69 69 69 69 69 70 66 66 56 55 55 55
51 52 52 52 53 52 52 51 53 53 53 53 53 55 56 57 58 59 60 60 62 63 64 66 68 72 74 73 71 68 67 68 70 71 72 72 72 72 71 71 71 71 71 70 70 69 69 68 68 68 68 68 68 69 69 69 69 65 62 62 55 55 54
50 52 52 52 53 53 52 51 52 53 53 53 54 55 57 59 59 60 60 61 62 63 64 66 68 71 73 75 74 72 69 68 69 71 72 72 72 72 71 71 71 71 71 71 70 69 69 69 68 68 68 68 68 68 69 70 70 69 64 60 56 55 54
50 51 51 50 51 53 54 54 52 52 52 53 54 56 58 59 60 60 61 62 63 64 65 67 69 71 73 74 74 74 72 70 69 70 72 72 72 72 72 71 71 71 71 71 70 69 69 68 68 68 68 68 68 68 69 70 70 70 69 63 59 56 54
49 50 51 51 51 52 53 52 51 52 52 53 55 57 59 60 61 62 63 64 65 66 67 68 70 72 74 74 74 74 73 71 69 70 71 72 72 72 72 72 71 71 71 71 70 70 69 69 68 68 68 68 68 69 69 70 70 70 70 68 65 62 60
49 50 51 51 52 53 53 52 51 51 52 53 55 57 58 59 61 62 62 63 65 67 69 71 72 73 73 74 74 73 73 71 70 70 71 72 72 72 72 72 72 71 71 71 71 70 69 69 69 68 68 68 68 69 69 70 70 70 70 70 68 66 64
49 50 51 51 52 54 53 52 52 51 52 54 56 57 57 58 60 60 61 62 64 66 67 68 71 72 73 73 73 73 72 71 69 70 72 72 72 72 72 72 72 72 72 72 71 71 70 70 69 69 68 68 68 69 69 70 70 70 65 69 63 66 66
49 50 51 52 53 53 52 53 53 52 53 54 56 56 56 58 59 60 61 61 63 64 65 66 68 71 71 72 73 73 72 71 69 70 71 72 73 73 70 60 52 58 72 72 68 65 63 63 69 70 69 68 69 69 69 69 70 63 59 58 57 56 58
49 50 51 52 52 52 51 51 54 54 54 55 57 56 56 58 59 59 60 60 61 62 64 64 67 69 71 71 72 71 72 71 70 69 71 72 72 72 66 67 67 59 49 52 55 62 58 57 59 61 63 68 69 67 62 62 61 60 57 55 54 54 54
50 51 52 53 52 52 52 52 52 53 54 55 57 56 56 58 58 59 59 60 60 61 62 64 66 69 70 71 69 69 70 71 71 71 71 69 68 68 68 68 69 69 58 48 53 55 57 54 54 56 57 59 63 67 69 60 55 55 54 54 54 53 53

ECMWFFLT1_sfc_dewp_069.txt.gz
Dewpoint
60 60 60 60 60 59 59 59 59 59 59 59 60 59 59 60 61 63 64 65 65 65 66 66 67 67 67 67 66 67 67 66 66 65 64 65 65 66 67 68 69 70 71 71 72 72 73 74 74 74 74 74 75 74 74 74 74 75 74 74 73 74 74
60 60 60 60 60 60 59 59 59 59 59 59 59 59 59 60 61 63 64 64 65 65 66 66 67 67 67 67 67 66 66 66 67 67 65 65 66 65 66 66 68 69 70 71 71 72 72 73 74 74 74 74 74 74 74 74 74 74 74 73 73 73 74
60 60 60 60 60 60 60 59 59 60 60 59 59 59 59 60 61 62 64 64 65 65 66 66 67 67 67 67 67 66 66 66 66 66 66 64 64 64 65 65 66 68 69 70 71 71 72 72 74 74 74 74 74 74 74 74 74 74 73 73 73 73 73
60 60 60 60 60 60 60 60 60 59 60 59 59 59 59 60 61 61 63 64 64 65 66 66 67 67 67 67 67 66 66 66 66 66 66 65 64 63 65 65 65 66 68 69 70 71 71 72 73 74 76 74 74 74 74 74 74 74 73 73 73 73 73
60 60 60 60 60 60 60 60 59 59 60 60 60 60 59 59 60 61 62 64 64 64 65 66 67 67 67 67 67 67 66 65 65 65 65 66 65 64 64 65 65 65 67 68 70 71 71 71 72 73 74 74 74 74 74 74 74 74 73 73 73 73 73
59 60 60 60 60 60 60 60 59 59 60 60 60 60 60 59 60 60 61 63 64 64 65 66 66 67 67 67 67 67 67 66 65 66 65 66 66 64 63 64 65 65 66 68 70 70 70 70 71 72 73 74 74 73 73 74 74 74 73 73 73 72 73
59 59 60 60 60 60 60 60 60 59 60 60 60 61 61 60 60 61 61 62 63 63 64 65 65 67 67 67 66 67 67 66 66 65 65 65 65 65 63 63 65 65 66 68 69 70 70 70 70 71 72 73 73 73 73 73 74 74 74 73 73 72 72
59 59 60 60 60 60 60 60 60 60 60 60 60 61 61 61 60 61 61 61 63 63 63 64 65 66 67 67 66 66 66 66 66 65 65 64 64 65 65 64 63 64 66 67 68 69 69 70 70 71 71 72 73 73 73 73 73 73 74 73 73 72 73
58 61 61 61 60 60 60 60 60 60 60 60 61 61 61 61 61 61 62 62 62 63 63 64 64 65 66 67 67 66 66 66 66 66 65 64 64 64 64 65 64 64 64 64 66 68 69 69 70 70 71 71 72 72 72 73 73 73 73 73 73 73 73
59 60 60 59 61 61 62 62 62 61 60 60 61 61 61 62 62 62 62 62 63 63 63 64 64 65 66 67 67 66 66 66 66 66 65 64 64 63 63 64 65 66 64 63 63 66 68 68 69 70 70 71 71 72 72 72 72 73 73 73 73 73 73
55 58 59 60 63 64 64 64 63 64 62 61 61 61 62 62 62 62 62 63 63 63 64 64 65 65 66 67 67 67 66 66 65 65 65 65 64 64 63 63 63 64 65 64 63 63 65 68 68 67 68 70 71 71 72 72 72 72 73 73 73 73 73
53 54 56 57 58 60 63 64 65 66 67 65 62 61 62 63 62 62 63 63 64 64 64 64 65 65 66 67 67 67 67 67 66 65 65 65 65 64 64 63 62 62 64 65 65 64 64 65 67 67 67 67 69 70 71 72 72 72 72 73 73 73 73
51 52 54 55 56 57 58 59 62 64 66 67 66 62 61 62 63 63 63 64 64 65 65 65 65 66 66 66 67 67 67 67 67 67 66 66 65 65 64 64 63 62 62 64 65 65 64 64 65 67 67 67 67 68 70 71 72 72 72 72 73 73 73
53 50 51 53 54 55 56 56 58 59 61 64 66 67 66 64 63 63 63 64 64 65 66 66 66 66 66 66 67 67 68 68 68 67 67 67 67 66 65 64 64 63 62 63 64 65 65 65 65 65 67 67 67 67 69 70 71 72 72 72 72 73 73
48 48 49 50 52 53 55 55 56 57 59 60 61 64 67 68 69 67 64 64 65 65 66 67 67 67 66 67 67 67 68 68 68 68 68 68 67 67 66 66 65 64 63 63 63 64 65 66 66 66 66 67 68 68 68 69 70 71 72 72 72 72 73
47 47 48 49 50 52 54 54 55 56 57 58 59 61 64 67 68 69 71 71 69 69 69 70 68 68 67 67 67 67 68 69 69 68 68 68 68 67 67 66 66 65 64 64 63 63 64 65 66 66 66 66 67 68 69 69 69 69 67 69 72 72 72
47 47 48 49 50 51 53 53 54 55 56 57 59 60 62 64 67 69 70 71 71 71 72 71 70 71 70 68 68 68 69 69 69 69 68 68 68 68 67 67 67 66 65 65 64 63 63 65 65 66 66 66 66 67 68 69 68 66 64 65 67 71 72
47 47 48 49 50 51 51 53 53 54 56 57 59 59 60 63 66 68 69 70 71 71 71 70 70 70 70 71 71 70 70 70 70 69 69 69 68 68 68 67 67 67 66 65 64 64 64 63 64 65 66 66 66 66 67 68 66 63 63 63 64 67 72
49 48 48 48 49 51 51 52 53 54 56 57 58 59 60 62 63 64 67 70 70 70 70 70 71 70 70 70 70 70 71 70 70 70 69 69 69 68 68 68 67 67 66 65 65 65 65 64 64 65 65 66 66 66 67 68 65 63 62 62 63 63 68
50 49 48 48 48 49 51 53 53 55 56 58 60 60 60 61 62 63 65 70 71 69 69 69 70 70 71 71 70 70 71 71 70 70 70 70 70 69 69 68 68 67 67 67 66 66 66 65 65 65 66 66 66 67 67 67 65 62 61 61 61 62 65
51 51 50 48 48 48 49 50 53 54 55 57 58 59 61 61 60 61 61 62 68 70 70 70 69 70 71 71 71 71 71 70 70 70 70 70 71 71 70 69 68 68 68 67 66 66 66 66 66 66 67 66 67 67 67 67 63 61 60 59 60 61 63
53 53 51 50 48 49 49 50 50 52 53 54 53 54 57 59 60 60 60 60 62 67 70 70 70 69 70 70 70 70 70 70 70 70 70 70 70 71 71 70 69 69 68 68 67 67 67 67 67 67 67 67 67 67 67 67 62 60 60 59 59 60 66
54 55 54 52 50 49 50 51 51 51 53 52 52 52 54 57 59 60 60 61 61 63 65 69 69 69 69 70 70 70 70 70 70 71 70 70 70 70 71 71 70 70 70 69 68 67 67 67 67 68 67 68 68 68 67 68 64 59 58 58 58 60 67
54 56 55 54 51 50 50 50 51 52 52 52 52 52 53 54 57 58 60 62 64 62 63 64 68 69 69 69 69 69 69 70 70 70 71 71 70 71 71 71 71 70 70 69 68 68 67 67 67 67 68 68 68 68 68 67 65 58 57 57 57 62 67
55 53 53 55 55 51 50 51 51 52 52 52 52 53 53 54 54 57 59 61 60 61 61 63 64 68 70 69 69 70 70 70 70 70 70 70 70 71 71 71 71 71 71 70 69 69 68 68 67 67 68 68 68 68 68 68 65 58 57 56 56 61 67
51 53 52 53 54 53 52 53 51 50 50 51 52 53 53 54 55 56 58 59 60 61 61 62 63 65 66 68 70 70 70 70 70 70 70 70 70 71 71 72 71 71 71 70 69 69 68 68 68 67 67 68 68 68 68 68 68 66 57 56 55 57 68
50 52 53 52 52 55 53 51 50 50 50 51 53 53 54 54 55 57 58 59 60 60 61 62 63 64 65 66 68 70 70 70 70 70 70 70 70 70 71 71 71 71 71 70 70 69 69 68 68 68 68 68 68 68 68 68 68 68 57 55 55 55 61
49 50 51 54 55 54 53 52 51 50 50 51 52 53 53 54 55 57 59 59 60 61 61 62 63 63 64 65 67 68 71 71 70 70 70 70 70 70 71 71 72 71 71 70 70 70 69 69 68 68 68 68 68 69 68 69 66 68 59 56 54 54 56
48 49 50 51 53 52 53 52 51 51 51 51 51 52 52 54 56 57 59 60 60 61 62 62 63 64 65 65 66 69 71 73 71 70 70 70 70 70 70 71 71 71 71 71 70 70 69 69 69 68 68 68 68 69 69 69 69 64 66 56 54 53 54
47 48 49 51 51 53 54 52 52 53 52 51 51 51 52 54 56 57 58 59 61 62 63 64 64 65 65 67 67 69 71 74 73 71 70 70 70 70 71 71 71 72 71 71 70 70 69 69 69 68 68 68 68 68 69 69 69 65 62 62 54 54 53
46 47 48 50 51 52 53 52 52 52 53 52 51 52 53 54 56 56 56 58 61 62 62 63 65 66 67 67 68 69 71 74 74 74 71 70 70 70 71 71 71 71 71 71 70 70 69 69 69 68 68 68 68 68 69 69 69 69 65 60 57 54 53
46 47 47 48 50 51 53 53 53 53 52 52 52 52 54 54 55 56 56 58 60 60 61 63 65 66 68 69 69 71 73 74 74 74 74 72 71 71 71 71 71 71 71 71 70 70 70 69 69 69 68 68 68 68 68 69 69 69 69 64 61 57 54
46 46 47 48 49 51 51 52 52 52 52 52 52 52 53 54 55 56 57 58 59 60 61 62 63 65 66 67 69 72 73 73 73 73 73 73 71 71 71 72 71 71 71 71 70 70 70 69 69 69 68 68 68 68 68 68 69 69 69 68 67 64 62
45 45 46 47 49 51 51 52 52 51 52 52 51 52 54 54 55 56 56 57 59 59 60 61 62 64 64 65 67 70 72 72 72 73 73 73 72 71 71 71 72 71 71 71 71 70 70 69 69 69 68 68 68 68 68 68 68 69 69 69 68 67 66
45 45 46 47 48 52 51 51 53 53 52 51 51 53 54 55 56 56 56 57 58 59 59 59 61 62 63 65 67 68 70 71 71 72 72 72 72 72 71 71 71 71 71 71 71 71 70 70 69 69 69 69 68 68 68 68 68 68 63 68 62 65 66
44 45 46 48 50 50 51 53 53 53 52 52 53 54 54 55 56 57 57 57 58 59 58 59 59 60 62 64 66 67 69 70 70 70 71 71 71 71 71 67 62 67 71 71 68 65 63 63 69 70 69 69 69 69 68 68 68 62 59 58 57 57 58
44 45 47 49 50 50 51 51 53 53 53 53 54 54 55 56 57 57 57 57 58 58 58 58 59 60 62 63 65 67 69 70 69 70 70 70 71 71 70 70 68 57 58 64 66 62 58 57 58 60 63 68 69 67 62 61 60 58 55 55 55 54 54
45 47 49 51 51 52 52 53 53 53 53 51 53 54 56 57 57 57 56 57 57 58 58 58 59 60 61 62 64 67 69 70 69 69 70 70 71 71 71 71 70 69 58 52 56 58 56 55 55 55 56 58 62 67 69 60 55 56 53 54 53 53 53

ECMWFFLT1_sfc_dewp_072.txt.gz
Dewpoint
59 59 59 59 60 60 60 60 60 59 60 61 61 61 61 62 63 64 65 66 67 67 67 68 68 68 68 68 68 68 68 67 67 66 66 66 67 68 70 71 71 72 72 73 73 74 74 75 75 75 76 76 75 75 75 76 76 76 76 76 75 75 75
59 59 59 59 59 60 60 61 60 59 60 60 61 62 61 61 63 63 65 66 66 66 67 67 68 68 68 68 68 68 68 67 67 68 67 67 68 68 69 70 71 71 72 72 73 74 74 74 75 75 75 75 75 76 75 75 76 76 75 75 75 74 75
59 59 59 59 59 59 60 60 60 59 59 60 61 61 61 62 62 63 64 65 66 66 66 67 68 68 68 68 68 68 68 67 67 67 66 65 66 65 68 69 70 70 71 72 72 73 74 74 75 75 75 75 75 75 75 75 76 75 75 75 75 74 74
59 59 60 60 60 60 60 60 60 59 59 59 60 60 61 62 62 63 64 65 65 66 66 66 67 67 67 68 68 67 68 68 67 66 66 65 65 66 67 68 69 70 70 71 72 72 73 73 74 75 76 75 75 75 75 75 75 75 75 75 75 74 74
59 60 60 60 60 60 60 60 60 60 59 59 60 61 61 61 61 62 63 64 64 65 65 66 66 67 68 68 67 67 67 67 67 67 67 66 67 66 66 66 66 67 69 70 71 72 73 73 73 74 75 75 75 75 75 75 75 75 75 75 74 74 74
58 60 60 60 60 60 60 60 59 59 59 59 59 60 60 60 60 61 62 64 64 65 65 66 66 67 67 67 67 67 67 67 68 68 67 67 67 65 65 66 66 66 66 68 71 71 72 72 72 73 74 74 74 74 74 75 75 75 75 75 74 74 74
57 59 61 61 60 60 60 60 60 60 60 60 59 60 61 60 60 60 61 62 63 64 64 65 65 66 67 67 67 68 67 66 67 66 67 66 67 66 65 66 67 66 66 68 69 70 71 71 72 73 73 74 74 74 74 75 75 75 75 75 74 74 74
55 56 58 61 62 61 61 62 61 60 61 60 60 59 60 59 59 60 61 61 63 63 64 64 65 66 67 67 67 67 67 67 66 66 66 66 66 67 66 65 66 66 67 66 68 70 70 71 71 72 73 73 74 74 74 74 75 74 75 74 74 74 73
53 54 55 57 59 62 61 62 62 61 61 61 61 60 60 60 59 59 60 61 62 63 63 64 65 66 67 67 67 67 67 67 67 66 66 65 65 65 65 65 65 66 66 66 66 69 69 70 70 71 72 73 73 74 74 74 74 74 75 75 74 74 74
51 53 54 55 56 57 59 62 63 64 66 62 62 62 61 60 60 59 60 60 61 62 63 63 64 65 66 67 66 67 67 67 67 66 65 65 65 65 65 65 65 66 65 66 66 67 70 70 70 71 72 72 72 73 74 74 74 74 74 74 74 74 74
49 51 52 53 54 56 57 57 59 61 63 65 65 61 62 61 64 61 60 60 60 61 62 63 64 64 65 66 66 66 66 66 66 66 66 65 64 64 64 64 65 65 64 64 65 66 68 70 71 71 71 71 71 72 73 73 73 74 74 74 74 74 74
48 49 50 52 53 54 55 56 57 58 59 61 63 65 65 63 62 62 60 60 61 61 62 63 63 64 65 65 66 66 66 66 66 66 66 65 65 64 64 64 64 65 66 65 64 65 66 68 69 70 71 71 71 71 72 73 73 73 73 73 73 74 74
48 49 50 50 52 53 54 55 56 57 58 58 59 61 65 67 64 62 62 61 61 61 62 63 63 64 64 64 65 66 66 66 66 66 66 66 66 65 65 64 63 63 64 66 65 64 64 65 68 70 69 70 71 71 72 72 73 73 73 73 74 74 74
53 49 49 50 50 51 53 54 55 56 57 57 58 59 61 63 66 68 65 62 62 62 62 63 64 64 65 65 65 66 66 66 66 67 67 66 67 67 66 65 64 64 64 65 66 65 65 64 65 67 68 68 69 70 71 72 72 73 73 73 73 73 73
47 49 50 49 50 50 52 52 54 55 56 57 57 58 59 60 62 63 67 70 65 63 63 64 64 64 64 65 66 66 67 67 67 67 67 67 67 67 67 66 66 66 65 65 65 65 65 65 65 65 66 67 68 68 69 70 71 72 72 72 73 73 73
47 47 48 50 51 51 52 52 52 53 55 56 57 57 58 59 60 61 62 66 69 67 64 65 65 65 65 64 65 66 67 68 69 68 68 68 68 68 67 67 67 66 66 65 65 65 66 66 66 65 65 66 67 68 68 68 69 69 67 68 72 73 72
48 48 47 47 50 51 52 53 53 53 54 55 56 57 58 59 59 60 61 63 67 70 71 68 67 66 66 65 66 67 68 69 69 69 69 69 69 69 69 68 67 67 67 66 66 66 66 66 65 65 65 65 66 66 67 67 67 65 64 65 66 71 72
49 49 48 47 48 49 50 53 53 53 54 55 56 56 57 59 59 59 61 62 64 70 71 72 70 68 68 68 69 69 69 69 69 69 69 69 69 69 69 69 68 68 68 67 66 67 65 65 65 66 65 65 66 66 66 67 65 62 62 63 64 66 72
49 49 48 48 48 49 49 50 50 52 54 56 56 56 57 60 59 60 61 62 63 69 70 70 71 70 70 70 69 69 70 69 69 69 69 70 70 70 69 69 69 68 68 67 67 66 66 66 65 65 65 65 66 66 66 67 64 62 61 62 62 63 68
50 50 50 49 49 48 49 50 51 51 54 56 56 55 57 60 60 60 62 63 64 67 69 69 69 70 71 70 70 69 69 70 69 69 70 70 70 70 70 69 69 68 68 67 68 68 67 66 66 65 66 65 66 66 66 66 64 61 60 60 61 62 65
49 51 51 50 50 49 49 49 50 51 52 56 56 55 54 55 56 59 61 62 63 64 66 69 69 69 70 71 71 70 70 70 70 70 70 70 70 70 70 70 69 69 68 68 67 68 67 66 66 66 66 65 65 65 65 65 62 60 59 59 59 61 63
50 51 51 51 51 51 50 49 49 49 51 53 51 53 54 54 55 57 59 62 63 64 64 65 68 69 70 70 71 72 71 71 71 71 71 70 70 70 70 70 70 69 69 69 68 68 67 68 67 66 66 66 65 65 65 65 60 59 58 58 58 60 66
49 52 52 51 52 52 52 51 51 51 52 51 51 52 53 55 56 56 58 60 62 64 64 64 66 68 70 70 71 71 72 71 71 71 71 71 70 70 70 70 70 70 70 69 68 67 67 67 67 68 67 66 66 66 66 65 62 58 57 57 58 60 67
47 49 51 50 51 51 52 52 52 52 52 51 50 51 52 53 55 56 58 60 61 62 63 64 65 67 68 70 71 71 71 71 71 71 71 71 70 70 70 70 71 70 70 69 68 68 67 67 68 68 68 67 67 66 66 66 64 58 56 56 57 61 67
46 47 48 50 51 50 51 52 53 53 51 50 50 51 52 53 53 54 57 59 60 60 62 62 63 64 64 65 66 68 71 71 71 71 71 71 71 71 71 71 71 71 71 70 69 69 69 69 68 68 68 67 67 67 67 67 64 58 56 56 55 61 68
46 46 46 47 48 51 53 54 53 52 51 50 50 51 52 52 53 55 57 59 60 61 61 63 64 64 65 64 64 66 67 68 71 71 71 71 71 72 72 71 71 71 71 71 71 70 70 69 69 68 68 68 68 68 67 67 68 67 56 55 55 57 68
46 46 46 46 46 52 51 52 52 51 51 51 52 51 52 52 52 54 56 58 59 59 60 61 63 63 64 65 65 65 66 67 68 70 71 71 71 71 72 72 71 71 71 71 71 71 71 70 70 69 69 68 68 68 68 68 68 68 57 55 54 55 60
45 45 45 48 49 49 48 50 53 52 52 52 52 52 51 52 53 55 56 56 57 57 58 59 61 62 64 65 66 67 67 67 68 70 72 71 71 71 71 72 72 72 72 71 71 72 71 71 70 70 69 69 69 69 69 69 66 68 60 56 54 54 55
45 45 45 46 46 47 48 48 50 51 51 52 52 52 51 51 53 55 56 56 57 57 57 59 60 61 62 64 66 67 68 69 69 71 71 70 71 71 70 71 71 71 72 72 72 72 71 71 71 70 70 70 70 70 70 70 70 63 67 57 54 53 53
45 46 46 46 46 47 48 47 48 49 51 51 52 52 52 52 53 54 55 56 57 57 58 59 60 61 61 63 65 67 69 70 71 72 71 71 71 71 71 71 71 71 72 72 72 72 71 71 71 71 70 69 69 69 70 70 70 66 61 63 55 53 53
44 45 46 46 46 47 48 47 47 47 49 50 52 53 53 53 53 54 55 56 57 58 58 58 59 60 61 62 63 65 67 69 72 72 70 70 71 71 71 71 71 71 72 72 72 72 71 71 71 71 70 70 70 70 70 70 71 70 66 59 58 54 53
44 45 46 45 45 45 47 46 46 46 48 50 51 52 54 53 53 54 55 56 57 58 58 58 59 60 61 62 63 64 65 66 69 74 72 71 72 72 72 71 71 70 71 71 71 72 71 71 71 70 71 70 70 70 70 70 70 70 70 64 61 57 54
44 45 45 45 45 47 45 45 46 47 48 50 51 52 53 53 53 54 56 57 57 57 58 58 59 60 60 61 61 63 64 65 66 69 70 72 72 73 74 73 72 71 70 70 71 71 71 71 71 71 70 70 70 70 70 70 70 70 70 70 69 66 63
44 44 45 45 45 46 46 46 46 47 48 50 50 51 52 53 53 53 55 56 57 57 58 58 58 59 59 60 60 61 63 64 67 68 69 69 70 71 73 74 72 71 70 69 69 70 71 71 71 70 70 70 70 70 70 70 70 70 70 70 70 68 67
44 44 44 44 45 47 46 46 47 48 49 50 51 52 53 53 53 54 55 57 58 58 57 57 58 59 59 59 59 60 63 64 65 67 68 69 71 71 72 72 72 71 71 71 71 70 70 71 71 71 71 70 70 70 70 70 70 70 64 70 63 67 68
43 44 44 44 45 45 45 47 48 49 50 50 52 53 53 53 53 54 55 57 58 58 57 57 58 58 58 59 59 60 62 63 64 66 68 68 69 69 70 68 63 68 71 70 66 64 63 63 70 71 71 70 71 71 70 70 70 63 59 57 57 57 59
44 44 44 45 45 45 45 46 49 50 51 52 54 53 54 53 53 53 54 57 58 57 57 57 58 58 58 59 60 60 62 63 63 65 67 68 68 69 69 70 69 56 57 63 66 63 59 57 58 60 62 70 71 70 63 62 61 59 55 54 54 54 55
44 44 45 46 45 46 46 47 49 51 53 53 53 53 53 53 53 53 54 57 57 57 57 57 58 58 58 58 59 61 62 62 64 65 67 69 70 70 70 70 70 71 59 56 57 58 55 54 55 55 56 57 63 68 71 61 56 55 53 53 53 53 53

ECMWFFLT1_sfc_dewp_075.txt.gz
Dewpoint
61 61 62 62 62 62 62 63 63 62 64 65 65 65 65 65 67 68 68 70 71 72 72 73 72 72 72 72 72 73 72 72 72 71 70 70 71 72 73 72 73 75 74 74 75 76 77 77 77 77 77 77 77 77 78 78 78 77 78 79 78 78 77
59 60 61 61 62 62 63 63 64 63 63 64 65 66 65 65 67 67 68 70 71 71 72 72 72 72 72 72 72 73 73 72 72 72 71 72 72 72 72 74 74 75 76 75 75 77 77 77 77 77 77 77 77 78 77 78 78 78 77 78 77 77 77
58 59 60 61 61 61 63 63 64 63 63 63 64 64 65 67 67 68 68 69 70 71 71 71 72 72 72 72 72 73 72 72 71 71 70 68 69 67 70 73 74 73 73 75 76 75 76 76 77 77 77 77 76 78 78 78 78 77 77 78 77 76 78
58 59 61 61 62 62 63 63 63 62 62 62 63 63 64 67 67 68 68 68 69 70 70 70 71 70 71 72 72 72 72 72 71 70 69 68 69 69 70 72 73 73 73 73 73 74 73 75 76 77 77 77 77 77 77 77 76 77 77 78 76 76 77
57 59 61 61 61 62 62 62 62 63 62 61 63 65 65 65 65 66 66 67 66 68 68 68 68 69 71 71 70 70 71 71 71 70 70 69 70 70 69 68 70 70 71 72 74 75 76 76 75 76 76 77 77 77 77 77 77 78 78 78 77 76 75
55 57 59 60 61 61 61 61 61 62 61 61 62 63 63 63 63 63 64 66 66 67 68 69 68 70 70 70 69 69 71 71 72 72 70 71 71 69 68 69 69 69 69 71 72 73 74 74 74 75 75 75 75 74 75 76 76 76 77 77 77 76 74
55 56 57 58 60 61 61 61 61 61 62 62 61 62 63 62 62 62 63 64 65 66 66 67 67 68 70 70 70 70 71 70 71 70 70 69 70 69 69 69 70 68 69 71 72 72 72 73 74 75 75 74 75 74 76 77 76 77 77 78 77 77 77
53 54 56 57 58 58 60 62 61 61 62 62 61 61 62 61 61 61 64 63 64 65 65 65 66 68 69 70 69 69 69 69 69 70 70 69 69 69 68 69 69 69 70 69 71 72 71 73 72 74 74 74 75 76 76 77 78 76 76 77 77 76 75
51 53 54 55 56 57 58 60 62 63 64 63 61 61 62 63 68 67 70 71 71 64 65 64 65 66 69 69 70 70 69 69 69 69 69 68 67 67 66 67 68 69 69 67 67 71 70 71 71 74 75 74 75 76 76 77 76 76 76 76 77 76 75
50 51 53 53 55 56 57 58 60 62 62 63 66 63 61 63 64 64 65 68 68 65 63 65 65 65 68 68 68 68 69 69 69 67 67 67 67 67 66 66 66 68 67 67 66 67 70 71 71 73 75 74 74 75 75 76 75 76 76 76 76 76 76
49 51 51 52 53 55 56 57 58 60 61 62 62 64 65 64 63 62 63 64 65 63 64 64 65 65 66 67 67 67 68 68 68 67 67 66 66 66 66 66 66 67 67 66 66 66 68 71 72 73 74 72 73 74 75 75 75 76 75 75 75 76 75
50 50 50 51 52 53 54 56 56 59 60 60 59 61 63 65 63 62 65 64 63 62 63 63 64 64 65 66 65 67 67 68 67 67 67 66 66 66 66 66 66 66 66 66 66 67 67 69 70 71 73 73 72 73 74 75 75 76 75 74 74 75 75
49 50 50 51 52 52 54 55 55 56 58 57 57 59 60 61 62 65 66 65 62 62 62 64 64 66 65 65 65 67 67 67 67 68 67 67 67 66 66 66 65 65 65 66 66 66 66 67 70 71 71 73 72 72 73 74 74 75 76 75 74 75 75
50 48 50 49 51 52 52 53 54 55 56 56 56 58 59 62 61 62 64 64 67 66 61 63 65 66 66 66 66 67 66 67 68 69 69 68 69 69 67 66 66 66 67 67 67 66 66 66 68 69 70 71 71 72 73 74 74 75 75 75 74 74 74
47 47 47 48 49 52 54 52 53 54 55 56 56 56 57 59 60 62 63 65 65 67 70 64 65 66 66 66 67 68 69 69 68 69 70 70 70 70 69 68 68 68 68 69 68 66 66 66 66 68 69 69 71 71 71 71 71 72 73 74 74 74 73
47 47 47 47 48 49 50 52 54 54 54 56 55 56 56 58 59 60 61 63 64 66 68 72 66 66 65 65 67 69 69 71 71 70 71 70 71 72 71 70 69 68 69 68 68 68 69 68 67 66 67 68 70 70 70 70 70 71 67 69 73 73 71
48 48 48 49 49 49 50 50 51 53 55 55 56 56 56 57 58 59 60 62 64 66 67 70 73 69 66 66 67 69 70 72 71 71 71 72 72 72 72 71 70 70 70 69 69 69 70 69 67 66 65 66 67 68 67 67 67 66 64 65 66 71 73
48 48 49 49 50 50 50 50 50 51 52 54 55 55 56 57 58 59 60 62 63 65 67 70 72 73 71 69 70 70 71 71 71 71 72 72 72 72 72 71 71 71 71 69 68 70 68 67 67 68 66 65 66 65 66 66 65 62 62 63 63 66 71
46 48 48 49 49 50 51 51 50 51 52 54 54 55 56 57 57 59 60 62 63 64 66 68 71 72 73 74 71 71 71 72 71 72 71 72 72 72 72 72 71 71 70 68 69 68 69 69 67 68 67 66 67 65 65 65 63 61 61 61 62 62 67
46 46 47 48 48 48 50 52 52 52 52 54 54 54 54 56 58 58 60 62 64 64 66 67 69 70 71 72 73 74 73 72 72 72 72 72 73 73 72 71 71 70 69 68 69 70 69 68 69 68 69 68 67 68 66 66 63 60 59 59 60 61 63
44 45 45 47 47 47 49 51 52 53 53 53 52 53 52 53 55 57 59 61 62 63 65 65 67 69 70 71 72 72 72 73 73 72 72 72 72 73 72 72 72 71 70 68 68 70 70 68 68 68 69 67 67 67 66 64 62 59 58 58 58 60 61
45 44 44 44 45 47 48 47 49 50 53 53 51 51 51 51 53 54 57 61 62 63 64 64 66 67 69 70 70 71 71 71 72 72 73 73 73 72 72 72 73 72 71 70 68 69 69 69 68 68 68 68 67 66 66 65 60 58 58 57 58 59 65
44 45 46 45 43 44 47 48 48 50 53 52 52 51 51 53 53 54 56 59 61 62 62 63 65 65 67 68 68 68 68 70 71 72 72 72 72 72 72 72 73 73 72 71 70 68 68 69 68 70 68 68 68 67 67 66 63 57 57 56 57 59 67
43 44 44 44 45 44 46 47 48 49 50 51 51 52 52 52 53 54 56 58 61 61 62 63 63 65 65 66 66 67 67 68 68 69 71 73 72 72 72 71 71 71 72 71 70 68 68 69 69 69 69 68 68 67 67 67 65 57 55 55 56 61 68
41 41 43 44 43 43 44 47 49 49 49 49 49 51 52 52 52 52 53 56 57 59 60 60 60 61 63 64 65 66 68 68 68 69 69 70 71 72 71 72 70 71 71 70 70 70 70 70 69 69 70 68 68 68 67 67 65 58 56 55 55 61 69
41 42 42 42 43 45 47 50 49 46 45 47 50 51 51 52 53 53 54 55 55 56 57 58 60 60 62 63 65 66 67 68 69 69 69 69 70 71 72 72 72 71 71 71 70 70 69 69 69 69 69 69 69 68 68 68 69 69 55 54 54 55 68
41 41 41 41 42 49 46 46 46 46 45 47 51 49 49 51 52 53 54 54 54 55 54 56 59 60 62 63 63 64 66 69 69 69 70 70 71 71 71 71 71 71 72 71 70 71 70 70 70 69 69 69 69 69 68 68 69 69 56 54 53 54 59
41 41 42 44 46 46 45 44 46 46 45 46 46 48 48 51 52 54 54 54 54 54 54 57 58 60 61 62 63 64 65 67 70 71 71 71 72 72 71 72 72 72 71 71 71 72 72 72 71 70 70 70 70 70 70 69 66 69 60 55 53 53 53
43 42 43 44 43 43 43 44 45 44 45 45 44 45 47 48 52 54 54 54 55 54 55 57 58 59 60 62 62 63 64 66 68 70 71 72 72 71 70 71 72 73 74 75 74 74 73 73 73 72 71 71 71 71 72 72 72 63 69 57 53 52 52
43 43 43 42 41 42 44 45 46 45 45 44 47 47 48 50 51 52 54 55 56 56 56 57 58 60 60 61 62 62 64 65 67 68 70 71 72 71 71 71 72 73 75 73 72 72 72 72 73 72 71 71 70 70 70 72 72 67 61 65 54 53 52
43 43 43 43 42 44 45 44 45 45 44 45 47 48 51 51 51 52 53 55 56 56 56 57 58 59 60 61 61 62 63 64 65 67 68 69 71 71 70 71 71 71 72 72 71 71 70 71 72 72 71 71 71 71 71 71 72 73 69 60 58 54 52
44 44 43 43 44 44 45 44 44 44 44 45 46 47 50 50 50 51 52 54 55 56 56 58 58 59 59 60 61 62 62 62 62 64 66 67 72 71 71 71 72 72 72 71 70 71 71 71 71 71 72 72 71 70 71 72 73 73 74 66 62 58 54
44 45 45 45 45 46 45 45 43 44 45 45 47 47 48 50 50 51 52 54 54 54 56 58 58 58 59 60 61 62 62 62 61 62 64 65 66 69 73 73 73 73 72 73 71 70 71 71 71 71 71 71 70 71 72 72 73 73 72 73 72 69 65
45 45 46 46 46 47 46 45 45 45 46 47 47 49 49 48 50 52 52 53 54 54 55 57 58 57 57 58 60 61 61 61 62 63 63 64 65 66 67 72 74 73 73 72 72 71 71 71 71 70 70 70 70 71 71 71 72 73 72 72 72 72 70
45 45 45 45 46 47 47 47 47 47 47 47 48 48 49 50 50 52 54 55 55 56 56 56 57 58 58 57 58 59 61 61 61 62 63 64 66 67 69 70 70 72 74 75 75 73 72 72 71 71 71 72 71 71 71 72 72 72 66 74 65 71 71
44 44 44 45 45 45 46 47 47 48 48 47 48 48 49 50 51 54 54 54 55 55 56 57 57 56 55 56 58 58 60 60 61 62 63 63 64 66 66 66 61 65 68 69 66 63 61 61 70 71 72 72 71 72 70 72 72 66 62 59 58 58 59
44 43 43 43 43 44 45 45 47 47 48 48 49 49 49 50 52 54 54 54 53 53 55 57 56 56 55 56 56 58 60 60 61 62 63 64 64 65 66 66 68 56 54 58 62 60 57 54 54 56 59 69 71 71 64 62 60 60 59 55 55 54 54
42 43 44 44 44 45 46 47 47 47 47 48 49 49 50 50 51 52 52 53 53 54 56 57 56 55 55 56 57 59 60 60 61 62 63 64 65 66 66 67 68 69 60 54 55 55 53 53 53 53 54 54 59 65 71 65 57 54 56 52 52 53 53

ECMWFFLT1_sfc_dewp_078.txt.gz
Dewpoint
57 61 63 63 64 63 63 63 65 64 64 65 66 66 65 66 68 69 70 73 74 75 75 76 75 75 75 74 74 74 74 74 74 73 72 71 70 71 71 69 70 72 71 70 72 72 74 74 74 74 75 75 75 75 77 77 77 77 78 80 77 77 77
58 60 61 62 63 64 64 64 65 64 64 65 66 67 66 66 68 68 70 73 74 74 75 75 75 75 74 74 74 74 75 74 74 73 72 72 72 72 71 72 71 72 73 72 72 74 75 74 74 74 74 75 74 75 75 77 77 77 76 78 77 77 77
59 60 60 63 63 63 66 64 65 64 66 64 65 66 66 68 68 70 70 71 73 74 74 74 75 74 74 75 74 74 74 73 73 72 71 69 71 68 70 72 71 70 70 71 72 72 73 75 75 75 74 74 72 74 75 76 76 76 77 79 77 76 78
59 60 61 61 65 65 65 65 64 64 64 64 65 65 66 68 68 69 70 71 72 73 74 73 73 73 73 74 74 74 74 74 73 71 69 68 69 69 69 70 71 70 69 70 69 70 68 72 74 75 75 74 74 74 74 74 74 76 76 77 76 76 78
59 60 61 61 61 62 64 65 64 65 64 64 65 67 66 66 66 67 69 69 68 70 71 71 70 72 73 73 72 72 73 73 72 71 70 69 70 70 70 68 69 69 68 69 71 72 73 73 72 73 74 74 73 74 74 74 74 75 76 76 75 75 75
57 58 59 60 60 61 62 63 64 63 64 63 64 64 64 64 65 65 66 68 68 68 70 71 71 72 72 72 72 71 73 73 73 73 71 71 71 69 69 69 68 69 66 68 68 70 72 72 70 71 71 71 70 70 71 72 72 74 75 76 75 74 72
55 57 58 59 59 60 62 65 64 63 64 64 64 64 64 64 64 65 65 65 66 67 67 68 69 69 72 72 72 72 72 71 73 71 71 70 70 70 70 70 70 67 67 68 69 69 69 71 71 72 70 68 70 68 71 73 72 73 75 76 76 75 75
53 54 57 57 57 58 60 62 63 64 65 65 65 62 64 63 63 64 64 63 64 64 64 66 67 70 71 72 71 71 71 71 71 72 71 69 69 70 70 69 70 70 69 67 69 70 68 70 69 71 71 69 69 71 69 72 74 70 71 74 75 75 72
51 53 54 55 56 56 58 61 62 63 64 66 67 64 63 63 63 63 65 67 65 64 65 64 65 67 70 71 72 72 71 71 70 71 71 69 67 67 66 68 69 70 69 67 65 69 69 67 68 70 72 71 71 73 71 73 72 71 70 71 73 73 70
50 51 52 53 54 54 56 58 60 61 62 63 66 68 68 65 64 63 63 64 64 64 64 64 64 64 68 69 70 70 70 71 70 69 69 67 66 66 66 64 66 69 68 67 64 64 69 68 68 69 73 73 72 73 74 73 72 72 71 72 72 73 73
49 51 51 51 52 53 54 55 57 59 60 62 63 64 67 68 65 63 64 64 64 64 64 64 65 64 65 66 67 68 69 69 69 68 68 67 65 65 64 64 63 67 67 67 65 64 65 69 69 70 72 72 71 73 73 73 73 73 70 70 71 71 70
48 49 50 51 52 53 54 55 55 57 58 60 60 61 64 66 68 64 64 65 65 64 64 63 64 64 65 64 65 68 68 68 68 67 68 67 66 65 64 64 64 64 66 67 66 65 63 67 69 69 71 73 71 71 73 74 73 74 72 68 68 69 69
47 49 49 49 51 52 54 54 54 56 57 55 56 58 60 62 64 67 67 66 65 65 65 65 64 65 65 64 64 67 67 67 68 68 67 68 67 66 65 64 63 63 64 67 66 65 63 64 69 70 70 72 71 69 71 73 72 74 74 71 69 69 70
50 48 49 49 50 51 52 53 54 54 55 55 55 56 57 59 60 63 67 67 67 67 64 63 65 66 67 66 66 67 66 66 68 69 70 69 70 69 67 66 65 66 66 67 68 65 64 63 65 68 69 69 69 70 71 72 73 74 75 74 71 69 69
46 47 48 48 50 51 52 51 53 54 54 55 55 55 56 57 59 61 62 66 67 66 68 69 72 65 65 66 67 68 69 69 67 68 70 70 71 71 70 68 68 68 68 69 68 66 66 65 64 66 68 68 68 68 68 66 69 70 72 73 72 71 68
46 46 48 48 50 50 52 52 53 53 54 55 54 54 55 55 57 58 60 62 65 67 68 69 71 72 67 65 67 68 69 70 71 70 71 71 72 73 72 70 70 69 70 69 69 70 70 69 68 65 66 67 68 68 66 65 64 69 67 69 71 71 66
47 47 47 48 50 51 52 52 53 53 54 55 54 54 55 56 57 58 58 61 65 68 68 69 71 72 72 68 66 68 70 71 72 72 71 72 73 73 74 73 71 71 71 71 70 71 72 70 68 66 65 66 67 67 65 64 63 65 63 64 66 69 70
45 46 46 46 49 50 51 51 52 53 54 55 55 54 54 55 56 57 58 61 64 66 69 70 71 72 73 73 71 70 70 71 73 73 72 72 73 74 74 73 72 72 72 71 70 72 70 69 70 70 67 65 66 66 66 66 65 61 62 63 63 67 69
42 43 43 45 44 47 48 48 49 52 55 56 54 54 54 54 54 56 57 60 63 65 67 68 70 72 72 73 74 73 71 72 72 72 72 73 74 74 74 74 74 72 71 70 71 70 72 72 70 70 69 68 68 66 66 65 64 61 61 62 62 63 67
44 43 43 43 43 42 46 47 47 48 52 56 56 55 53 54 54 55 57 59 63 64 66 67 69 71 71 72 71 72 73 74 72 71 71 73 73 74 74 73 73 72 70 70 71 72 71 70 71 70 71 70 70 69 67 67 64 60 59 60 61 62 64
45 45 45 45 45 44 47 47 48 47 49 52 54 55 52 53 54 55 55 57 61 63 65 66 67 68 69 70 71 72 72 73 73 73 72 71 72 72 72 72 72 72 71 68 69 70 71 70 70 71 70 69 69 69 67 65 62 60 58 58 58 60 63
45 45 44 44 45 46 48 46 46 44 48 49 46 50 51 51 52 53 54 55 57 61 62 64 65 66 67 66 68 69 71 71 72 71 72 73 72 72 72 72 73 72 72 71 68 69 69 70 71 70 70 70 69 68 68 67 61 59 58 57 57 59 66
43 44 44 44 43 43 47 46 46 46 49 46 44 44 47 52 53 54 53 55 55 59 60 62 63 64 65 66 67 68 70 71 72 72 73 72 72 72 71 72 72 72 73 72 71 69 68 69 69 71 70 70 70 70 69 68 64 58 57 56 56 59 68
40 42 41 42 44 43 46 46 46 46 46 45 45 45 45 45 50 54 56 56 55 56 58 59 60 62 63 63 65 66 68 69 70 71 71 72 72 72 72 73 73 73 72 72 71 70 69 69 69 70 71 70 70 68 69 69 67 58 56 55 55 62 68
39 39 41 41 41 41 42 46 49 48 47 46 44 46 47 45 46 48 53 55 53 53 55 55 56 59 61 62 63 66 67 68 69 70 71 72 71 71 72 73 73 74 74 72 71 71 72 72 71 70 71 68 69 70 69 69 67 59 56 55 54 62 70
41 41 40 40 40 43 46 49 49 46 44 42 47 48 46 45 46 48 51 53 53 54 54 55 56 57 60 61 63 64 65 67 69 69 70 71 71 72 74 74 74 72 72 72 71 71 70 71 71 71 70 70 70 68 68 69 70 74 56 54 54 56 69
40 40 41 40 41 47 44 44 43 43 44 46 49 47 46 46 46 49 51 52 52 54 54 55 56 57 59 61 61 63 64 66 68 68 69 70 70 71 71 72 72 72 71 71 70 71 70 71 71 70 70 70 70 69 69 68 69 71 57 54 53 54 59
41 41 41 43 46 45 43 40 44 44 42 46 45 45 45 47 48 51 52 50 50 51 53 56 57 57 59 61 62 64 65 66 67 68 69 70 70 71 71 72 71 71 74 72 72 72 72 73 72 71 71 70 70 71 70 71 68 69 60 55 53 53 53
43 43 43 44 44 42 41 42 42 43 45 43 43 45 46 46 50 52 52 52 53 51 52 54 56 58 59 60 62 64 62 65 66 67 69 70 71 70 70 70 70 70 73 73 74 74 73 73 73 73 72 71 73 71 71 72 72 64 70 55 53 52 52
44 44 43 41 40 42 42 44 45 45 45 44 46 46 48 50 52 53 53 54 55 53 52 54 56 59 59 59 60 61 63 64 66 67 68 69 69 69 70 71 72 72 73 73 73 73 72 72 73 72 72 72 72 71 70 72 72 69 63 67 53 52 51
44 44 44 43 41 44 44 44 45 44 44 43 46 48 50 50 52 54 55 55 55 55 53 54 56 57 58 59 58 59 61 62 65 66 67 67 68 69 70 71 72 72 73 72 72 72 72 72 72 72 72 71 71 72 72 71 72 72 71 61 56 53 52
45 45 44 43 44 45 45 44 44 44 44 45 45 45 49 49 50 52 54 54 55 56 55 54 56 57 58 58 58 59 59 59 59 62 64 64 65 68 70 70 71 72 73 74 72 71 72 72 71 71 71 71 71 71 72 73 73 73 75 68 62 57 53
46 46 47 46 46 47 45 45 43 45 45 46 48 47 46 49 49 51 53 54 52 53 55 55 56 58 58 58 57 59 59 59 58 59 61 63 63 63 66 70 71 71 72 73 74 73 72 71 71 71 70 70 69 71 73 73 75 74 72 75 74 68 65
45 45 46 46 47 48 48 46 47 47 47 48 49 50 49 48 48 50 52 51 51 51 54 56 57 56 57 57 57 58 58 58 60 61 60 61 62 62 63 66 69 70 71 72 72 73 72 72 72 71 71 71 72 75 74 73 72 72 73 77 76 73 72
45 45 45 45 47 48 48 49 48 49 49 49 49 50 51 52 52 51 51 52 53 55 55 55 56 57 57 57 56 56 57 57 56 57 59 61 64 65 66 66 66 68 70 72 73 73 72 72 74 74 73 74 76 73 71 71 71 73 63 71 64 71 72
43 43 44 44 45 46 47 48 49 49 49 49 50 50 51 51 52 53 50 52 53 54 55 55 55 54 54 54 53 52 53 53 52 55 58 59 62 63 64 64 58 63 66 65 65 62 58 59 70 72 74 74 73 73 71 71 74 64 58 55 55 58 59
41 41 42 43 44 45 46 47 47 47 48 48 49 49 50 50 51 52 52 52 53 53 54 55 54 54 53 54 52 52 54 54 54 55 58 59 60 61 62 62 64 56 54 56 60 59 57 55 54 54 56 68 70 69 62 60 58 55 53 54 54 52 54
43 43 44 44 43 45 45 45 47 47 47 47 48 48 49 49 49 51 50 52 52 53 53 54 54 54 54 54 54 55 57 57 58 59 59 60 61 62 63 63 63 64 58 53 54 55 54 53 53 52 52 52 56 63 69 64 57 55 55 55 55 53 51

ECMWFFLT1_sfc_dewp_081.txt.gz
Dewpoint
59 63 64 64 66 66 67 67 69 69 66 67 65 64 64 65 66 68 69 72 74 74 74 75 74 74 74 72 72 73 73 72 72 71 71 70 68 69 69 67 69 71 71 70 71 71 72 74 74 74 74 74 75 76 78 78 78 77 78 78 77 76 77
56 60 63 63 64 66 70 70 70 70 69 66 67 66 65 66 67 67 70 72 74 72 75 75 75 74 74 73 72 73 74 73 73 73 71 71 70 69 68 69 69 70 73 71 72 73 73 72 74 74 74 75 73 76 75 78 78 78 76 77 76 78 77
62 60 62 64 65 65 69 66 67 69 68 65 67 66 66 69 67 70 72 73 74 74 74 74 76 74 74 74 73 73 73 72 72 71 70 67 69 66 68 70 69 68 69 72 73 72 73 72 73 73 74 73 71 73 75 74 77 76 77 78 76 76 78
64 63 64 65 66 67 69 69 69 69 69 68 65 66 66 68 66 68 71 72 73 74 74 71 74 73 73 74 73 74 74 73 72 70 68 66 67 66 67 68 70 69 69 69 70 72 70 73 72 73 74 73 73 73 73 74 75 75 77 79 76 76 78
63 61 61 62 64 68 67 69 69 70 70 68 65 67 67 69 67 67 70 69 71 72 73 73 71 71 72 73 71 71 73 72 71 70 69 67 68 68 66 65 67 66 67 67 69 70 72 72 72 72 72 74 72 73 73 73 74 75 75 77 76 75 76
58 59 60 61 66 66 68 68 71 71 72 70 68 71 70 68 67 66 68 69 68 70 72 72 70 71 71 71 70 69 73 73 73 72 70 68 68 66 66 66 65 65 63 66 66 68 70 70 70 71 71 70 69 69 71 72 71 72 74 75 75 73 73
56 58 59 60 64 68 69 69 69 69 71 67 69 71 72 70 70 71 68 67 70 72 71 70 66 69 71 71 71 70 72 71 72 70 69 67 68 68 67 67 67 64 64 67 66 67 68 70 71 71 70 69 69 67 71 73 71 72 74 75 75 74 74
55 57 58 58 59 61 63 70 70 70 70 70 68 70 71 72 72 71 71 72 68 70 72 68 66 69 71 70 69 69 70 70 71 71 69 67 66 68 66 66 67 66 66 64 66 67 66 70 70 69 69 68 69 69 68 72 73 70 71 73 74 74 71
54 56 56 56 57 58 59 62 65 68 69 69 70 70 71 70 71 72 73 74 74 73 71 70 67 68 72 70 71 71 69 69 70 70 68 66 64 64 63 65 66 67 66 63 63 66 67 66 67 69 70 70 69 71 70 72 71 71 70 72 73 74 72
53 54 56 56 57 57 59 60 62 62 65 67 69 69 68 70 70 71 72 71 70 71 73 73 69 68 72 71 70 70 70 70 69 67 67 64 63 62 62 61 63 66 65 64 60 62 67 67 67 67 71 70 70 70 71 71 70 70 70 70 71 72 72
51 53 54 54 55 57 58 58 59 60 60 62 64 65 67 69 70 69 71 69 68 70 71 73 64 64 67 70 69 69 70 69 68 66 66 65 62 61 60 59 59 62 65 64 61 60 63 67 68 69 70 69 70 70 71 70 70 71 69 68 69 70 69
51 51 52 53 54 55 56 57 58 58 59 60 59 60 64 66 67 67 68 69 69 68 70 70 67 64 65 66 67 69 69 69 68 66 66 65 63 61 60 58 58 59 62 63 62 61 58 64 65 66 69 71 71 71 71 72 71 71 70 67 66 67 68
50 51 51 51 53 54 56 57 57 57 57 56 57 58 59 61 63 65 68 68 67 67 67 70 70 69 64 64 65 69 68 67 67 68 66 66 65 63 62 61 58 57 58 61 62 61 58 59 65 67 67 70 70 70 71 71 71 72 72 70 67 66 67
53 50 51 51 53 53 54 56 57 57 56 56 55 56 57 59 60 62 65 66 67 67 68 68 69 66 66 66 66 67 66 67 68 68 70 68 69 67 63 62 61 61 60 62 62 60 60 58 61 65 66 67 69 70 70 71 71 72 72 71 67 65 65
48 48 50 50 52 54 54 54 56 57 56 55 55 55 56 57 58 61 63 66 67 67 68 69 70 71 69 67 67 68 68 70 69 69 70 70 71 70 68 66 65 66 65 65 63 61 60 59 58 62 65 66 68 68 67 65 67 68 70 71 71 67 63
44 45 46 48 49 50 53 54 56 57 57 57 56 56 54 56 57 59 61 63 65 67 68 70 70 71 71 72 70 68 70 71 72 71 71 71 72 73 71 70 69 66 66 65 63 66 66 65 62 59 62 65 66 66 64 62 61 69 68 70 70 69 63
44 44 44 47 49 48 49 51 54 56 57 57 57 56 56 57 57 58 60 63 65 67 68 70 71 70 71 72 74 74 74 74 73 72 72 73 73 74 74 72 70 70 71 69 67 69 72 68 64 61 60 61 63 64 62 59 58 65 63 64 67 69 68
45 45 44 44 48 49 48 47 49 52 55 56 57 56 57 58 59 59 60 63 65 67 68 68 70 71 72 71 73 73 73 74 73 74 74 74 73 74 74 73 73 72 71 69 68 71 67 66 67 68 63 61 61 61 61 60 62 60 62 63 63 67 69
44 44 44 45 46 49 50 48 47 50 53 54 54 56 56 57 56 58 60 61 64 67 67 67 68 69 71 72 72 72 73 73 73 73 73 74 75 75 75 74 74 73 70 68 69 68 70 72 68 69 68 66 66 62 61 61 62 59 60 62 62 63 67
45 44 44 44 44 46 48 49 49 49 50 51 52 53 53 55 57 58 59 61 63 66 67 67 68 70 70 71 71 72 71 71 72 72 73 74 75 75 75 74 74 75 72 70 70 71 70 69 70 70 71 70 69 69 65 64 63 59 59 60 61 62 65
45 46 45 45 46 46 48 48 49 49 50 49 48 48 47 50 53 57 58 59 60 62 64 66 67 68 67 67 69 70 70 71 72 72 72 73 74 73 72 74 73 74 75 75 74 71 71 70 70 71 71 70 69 69 67 64 62 59 58 58 59 61 64
45 43 43 43 45 48 48 45 46 44 48 48 44 45 45 45 45 51 55 56 57 58 60 62 63 64 66 66 66 67 68 69 70 72 72 72 72 72 73 74 74 73 75 74 75 73 74 72 71 71 70 70 70 68 69 66 61 59 57 57 58 60 67
43 44 43 44 42 43 48 47 46 47 48 45 44 43 45 48 46 48 52 55 55 58 57 58 60 61 63 64 63 64 66 68 69 70 71 73 73 72 72 73 73 74 75 75 72 72 70 70 70 72 70 70 71 70 70 68 65 58 56 56 57 61 69
41 43 41 42 43 43 46 46 46 46 46 46 45 46 45 45 48 49 52 52 53 56 59 57 58 58 60 61 61 63 64 66 67 68 69 71 71 71 72 74 74 73 75 72 71 71 71 70 70 71 70 70 70 69 70 69 68 58 55 55 56 63 70
40 40 42 42 41 43 43 46 48 47 46 45 44 47 47 45 45 45 48 50 47 49 53 56 57 57 59 58 60 62 63 64 65 66 66 68 70 73 71 71 73 73 75 72 72 72 72 71 70 70 71 68 68 72 70 69 67 59 56 55 54 63 71
42 42 41 41 41 44 45 48 47 44 42 41 47 47 46 45 47 49 50 50 46 48 48 53 55 58 59 60 60 61 62 63 65 66 66 67 68 71 74 74 73 73 73 73 72 71 71 70 71 71 70 69 69 68 69 69 70 72 56 54 54 56 71
40 40 41 40 42 47 44 43 42 42 42 45 49 45 45 47 46 50 52 52 49 49 48 50 53 54 57 60 59 60 62 63 63 63 65 66 67 70 70 69 72 73 74 73 72 70 71 70 70 70 71 70 70 69 69 69 69 71 56 53 53 54 60
41 40 40 44 46 45 43 41 44 44 42 45 44 44 45 47 49 52 54 53 52 52 49 51 52 52 55 58 59 60 62 64 64 64 64 66 68 69 68 68 69 69 74 74 73 72 71 72 71 71 71 71 71 72 70 70 69 70 59 55 53 53 54
44 43 44 44 44 42 41 43 43 43 44 42 42 43 44 45 50 52 53 54 55 54 54 54 52 53 55 56 57 59 58 61 63 64 65 67 66 65 66 67 68 69 70 71 71 71 70 72 72 73 73 73 74 73 72 72 73 66 70 55 53 52 52
45 45 43 41 40 42 43 44 46 46 45 43 46 46 46 48 50 52 53 55 56 56 57 56 55 55 54 55 54 55 56 56 60 63 64 66 67 67 67 66 68 69 70 70 71 72 71 71 72 73 73 72 72 72 72 75 73 70 64 67 53 52 51
44 45 44 44 43 47 46 45 45 44 44 44 47 48 49 49 50 51 52 54 55 56 56 56 56 56 55 55 55 56 55 56 58 60 61 62 63 66 67 67 68 69 71 72 71 72 73 73 73 73 72 72 71 73 74 74 75 76 73 64 58 52 52
46 46 45 44 46 47 47 45 46 44 43 45 45 45 50 49 49 51 52 52 54 55 55 55 56 56 57 56 56 56 55 54 52 52 55 56 59 62 65 64 65 66 69 70 69 71 71 70 71 72 72 73 72 74 74 74 75 76 74 73 67 59 52
47 48 48 48 48 48 47 47 45 46 47 47 48 47 46 49 49 51 53 53 51 51 53 54 54 55 56 57 57 57 57 57 52 49 50 51 50 51 57 62 64 66 68 69 69 69 70 71 71 71 71 72 72 74 73 72 74 74 73 77 77 75 68
48 48 48 48 48 49 48 47 48 48 48 49 50 50 50 49 50 51 53 52 52 51 53 55 55 54 55 55 56 56 56 55 57 56 51 50 50 50 55 60 63 65 65 65 66 68 67 67 68 69 70 70 73 73 72 73 72 75 73 75 76 76 76
47 46 46 47 47 48 48 48 48 50 49 49 50 50 51 52 52 52 53 53 54 55 55 54 56 57 56 55 54 55 57 55 53 52 52 52 55 58 62 62 61 60 61 63 66 66 65 65 65 67 69 72 73 73 72 71 72 73 65 69 60 69 73
45 44 44 45 45 46 47 48 48 49 49 49 50 50 50 50 51 52 51 53 54 54 55 55 54 54 52 52 51 50 50 50 48 50 52 51 52 55 56 61 56 61 61 60 62 59 56 55 62 63 64 65 66 69 70 71 74 64 55 55 56 54 54
44 44 44 44 44 45 46 46 47 48 48 49 49 49 50 50 50 51 51 51 52 51 53 54 54 53 52 52 51 50 51 50 50 52 55 54 52 52 52 54 61 51 51 55 58 56 53 52 52 53 54 62 64 65 60 58 57 54 52 52 52 51 49
45 45 45 45 44 45 45 46 46 47 48 48 49 49 50 49 49 50 49 50 50 52 53 53 53 53 52 52 53 54 55 54 55 55 56 57 57 58 57 56 57 59 55 51 52 52 51 50 49 49 49 50 54 60 65 61 57 54 54 52 50 50 49

ECMWFFLT1_sfc_dewp_084.txt.gz
Dewpoint
61 63 65 66 65 65 67 69 71 70 69 70 71 68 64 63 65 68 70 73 73 73 73 74 74 75 74 73 74 74 74 74 74 73 73 73 73 73 72 70 71 74 73 72 73 74 75 75 75 75 75 76 76 77 78 78 78 77 78 79 78 81 77
61 62 63 65 67 67 68 70 69 69 69 69 69 69 67 68 68 67 71 73 73 73 73 73 75 74 73 74 73 75 75 74 74 75 73 75 75 75 72 73 73 75 77 75 75 74 75 74 75 75 75 76 75 77 76 78 78 78 78 79 78 79 78
59 60 62 65 66 67 68 68 68 68 69 68 68 68 69 72 71 72 72 72 74 74 73 73 75 73 73 74 74 74 74 73 73 72 72 69 70 67 69 73 73 73 72 74 76 73 72 74 76 76 75 74 72 77 77 78 78 77 79 79 79 78 79
61 62 63 64 66 68 72 70 68 68 68 68 69 70 71 71 72 72 73 72 74 73 73 73 72 72 73 74 73 74 74 74 73 71 70 69 69 68 70 72 73 71 72 72 71 70 69 73 74 76 76 76 76 74 75 76 75 77 77 78 78 77 79
61 62 63 65 64 66 68 68 70 70 69 68 69 73 73 71 72 73 72 72 70 73 72 72 72 72 73 72 71 71 72 72 72 71 70 69 71 70 69 67 68 68 71 69 73 75 77 74 72 75 75 77 74 76 76 75 75 77 77 78 79 77 77
58 61 63 64 65 68 68 68 71 71 71 71 70 71 71 71 72 71 72 73 73 71 72 72 71 72 72 71 71 70 72 73 74 73 72 71 71 67 67 67 67 68 67 69 70 71 73 73 72 73 72 71 71 71 72 73 73 74 76 77 78 75 75
58 59 61 64 66 67 69 71 70 71 71 71 72 72 72 71 71 70 71 72 72 73 72 73 71 69 71 71 71 72 73 71 72 70 69 67 68 68 68 67 69 66 66 70 69 70 70 73 74 74 73 71 73 70 73 75 74 75 76 77 78 77 77
57 58 59 60 62 64 66 69 70 70 71 72 72 72 70 71 71 71 70 70 69 70 73 73 72 70 71 71 70 69 70 71 71 70 69 67 65 66 66 66 67 68 68 66 69 69 67 71 69 72 72 71 71 73 72 76 77 71 73 75 76 75 72
57 58 58 59 60 61 63 68 69 70 70 71 71 71 72 72 71 71 71 74 73 72 72 73 74 74 73 72 72 70 69 71 71 70 69 66 64 63 63 65 65 68 66 63 64 68 68 69 69 73 73 72 73 74 73 75 73 73 73 75 76 75 73
56 57 58 58 60 60 61 62 64 68 69 70 71 72 73 73 73 72 72 72 72 73 73 73 74 75 74 74 73 71 69 70 70 69 67 65 63 63 63 63 64 66 64 63 62 63 68 69 70 72 74 73 74 75 73 75 72 73 73 75 75 75 76
54 56 57 57 58 59 59 60 62 64 66 69 71 69 70 72 71 69 70 70 70 74 74 74 74 74 73 72 73 73 71 69 65 67 68 65 62 62 62 62 63 64 63 62 61 63 65 69 71 73 73 70 72 73 73 73 73 74 71 71 72 74 73
54 54 56 56 57 58 58 60 61 62 63 65 66 68 69 69 69 68 69 70 70 71 72 73 72 73 74 74 73 73 72 72 68 66 65 65 63 61 61 61 61 63 64 63 63 64 63 67 67 70 72 72 72 72 73 74 74 74 73 70 70 72 72
52 53 54 55 56 57 58 60 61 61 62 61 61 64 66 64 66 67 69 68 69 69 70 72 73 73 72 71 72 72 71 73 73 72 63 64 62 60 61 59 58 59 62 64 64 62 60 64 68 69 71 72 71 70 72 73 72 75 74 73 72 71 71
53 51 53 54 55 56 57 58 59 61 62 62 63 63 65 65 64 64 67 67 68 68 69 70 71 72 72 72 72 71 72 73 75 74 72 72 70 68 61 60 60 61 62 65 64 62 61 59 66 68 68 70 70 71 73 73 72 74 75 73 72 71 71
50 49 50 51 53 56 57 57 59 59 61 62 59 62 63 65 64 67 66 67 68 67 68 70 70 71 71 72 71 71 73 73 73 74 73 72 71 72 71 68 69 70 69 69 64 61 62 60 59 65 66 67 70 71 71 70 70 70 72 73 72 71 69
48 48 47 47 49 52 55 57 57 58 61 62 59 58 59 60 62 63 63 65 66 68 68 69 70 72 71 72 72 73 73 74 73 74 75 74 73 72 73 73 73 70 74 73 68 68 68 68 66 63 65 66 68 69 68 68 68 71 69 70 71 71 67
46 47 47 47 48 48 50 53 55 55 57 58 60 60 58 60 63 64 65 66 66 68 69 69 70 71 71 72 72 72 74 74 74 74 74 74 74 74 74 75 72 72 72 72 72 74 75 71 67 62 60 64 65 66 65 66 65 67 64 65 68 71 71
45 45 46 47 49 48 48 49 50 51 53 55 57 58 59 60 61 61 62 64 66 69 71 70 70 70 71 72 72 72 72 73 73 74 74 74 74 74 75 74 75 74 73 72 71 72 71 67 69 71 66 61 62 63 64 65 66 61 62 63 64 68 71
43 44 45 46 47 49 49 48 48 50 51 51 50 55 56 58 59 60 62 64 66 69 70 68 68 69 69 70 71 70 70 72 72 72 73 74 74 75 75 74 73 73 73 72 72 73 72 71 71 70 68 66 68 63 63 64 63 60 61 62 62 63 68
44 44 44 45 45 45 47 49 50 49 49 53 52 49 48 53 58 59 61 63 65 66 68 68 67 67 67 68 68 69 69 71 71 72 73 73 74 74 74 74 74 74 74 74 74 73 73 72 72 71 72 70 69 70 68 65 64 59 58 60 61 62 65
44 44 45 46 46 45 47 47 49 49 49 49 49 50 47 47 53 59 60 61 61 63 64 64 65 65 67 67 68 68 68 69 70 71 72 73 73 74 73 73 74 73 73 74 75 74 75 74 73 73 71 71 69 68 67 65 63 59 57 58 59 61 64
44 42 42 43 46 47 47 44 46 45 47 48 44 45 47 45 46 49 51 54 59 59 61 60 62 62 64 66 67 68 68 69 69 70 71 72 73 73 73 73 73 74 75 75 75 75 75 73 72 71 71 71 71 69 68 67 62 59 56 56 57 60 67
43 43 42 43 43 45 47 46 46 46 48 46 45 42 46 49 48 50 49 49 51 61 58 59 60 60 61 61 62 63 64 66 67 68 69 71 71 71 71 72 73 74 75 74 74 74 73 72 71 72 71 71 72 71 70 69 66 60 55 55 56 59 68
41 42 41 41 44 44 46 46 46 45 44 45 46 44 46 45 51 53 55 54 53 56 60 56 57 60 60 59 60 61 63 65 65 66 67 68 69 71 72 72 73 73 74 72 72 71 71 71 71 71 71 70 71 70 71 70 69 62 56 54 55 61 67
40 40 41 41 43 42 42 46 47 45 44 45 45 45 45 46 47 50 51 51 47 47 49 50 52 53 57 56 59 62 63 62 63 62 63 67 68 70 71 71 71 71 73 73 73 73 73 72 71 71 72 71 70 73 72 71 68 62 56 54 54 60 67
42 41 39 40 43 42 45 48 46 44 41 43 46 45 45 46 48 52 53 52 49 49 48 51 53 53 54 56 56 58 62 63 64 64 63 64 67 70 73 74 72 72 72 73 74 73 73 73 73 71 71 71 72 71 71 70 71 72 61 54 53 55 68
41 40 41 41 41 47 43 43 43 42 41 45 48 43 44 45 47 51 54 53 54 53 51 54 55 56 59 60 55 56 60 61 64 64 64 63 65 69 70 71 71 71 74 74 75 74 73 72 72 73 73 73 73 73 72 72 74 73 61 54 51 52 60
41 41 41 43 45 46 43 42 44 44 43 44 42 44 44 46 50 53 53 53 53 53 54 55 56 56 56 59 58 57 59 62 64 63 65 66 67 66 65 66 67 67 70 72 73 74 74 74 72 72 74 73 72 72 73 74 73 73 64 60 54 51 51
44 42 42 43 44 44 42 44 45 43 43 41 43 45 46 46 50 51 52 52 54 54 55 55 55 56 56 58 57 58 56 60 60 62 62 65 66 66 67 67 66 68 70 70 70 71 72 73 73 72 73 73 73 72 75 75 74 67 71 65 60 52 51
45 44 42 41 42 45 44 45 45 45 43 43 46 46 47 49 51 52 52 53 54 53 54 54 55 57 57 58 57 56 56 55 60 62 63 64 65 65 66 67 68 69 69 70 70 71 72 72 72 73 72 72 72 72 74 74 73 71 68 69 63 55 50
45 45 43 44 44 48 46 44 45 45 45 45 47 48 50 49 50 51 52 53 55 55 54 54 55 55 55 55 54 55 55 56 59 62 63 62 61 63 64 65 66 67 68 69 68 69 69 71 73 73 72 72 71 72 73 73 73 73 72 67 67 58 54
46 46 45 45 47 47 46 45 46 45 46 47 48 48 51 50 50 51 52 52 54 55 55 54 55 55 55 54 55 56 56 56 54 53 57 53 55 58 63 63 63 65 66 67 66 69 69 69 69 71 72 72 72 72 72 72 72 74 75 72 72 69 60
48 48 48 48 47 48 47 47 46 47 47 48 49 49 49 50 50 52 54 54 51 52 56 56 56 56 57 57 55 55 55 55 53 52 51 52 51 49 51 56 59 61 66 69 68 68 69 69 69 68 67 71 71 70 71 72 73 74 74 75 75 74 71
47 47 47 47 47 47 47 47 46 46 48 49 50 50 50 50 51 51 53 51 51 52 54 55 55 54 55 55 55 56 56 56 57 57 55 54 53 51 49 53 58 61 66 63 61 62 62 63 65 64 63 65 69 70 70 71 71 72 72 73 74 74 74
47 46 46 46 46 47 47 47 47 48 47 48 49 49 50 51 51 51 52 52 52 54 53 53 54 55 54 53 53 52 56 52 50 49 50 52 58 60 61 60 56 61 63 60 62 62 60 61 60 59 56 57 63 66 63 63 64 71 59 64 60 66 69
46 45 45 46 46 46 47 47 47 47 47 48 49 49 49 49 49 50 49 51 52 52 53 53 52 52 51 51 50 49 49 50 49 50 52 50 53 55 56 59 52 56 59 53 61 59 56 55 59 58 57 59 61 63 63 63 66 59 54 53 52 52 52
45 45 45 45 45 46 46 46 47 47 47 48 48 48 49 49 48 49 49 49 50 49 52 52 52 51 50 51 50 51 52 52 51 52 55 53 51 51 52 51 55 49 49 51 56 54 52 50 50 50 52 62 62 62 59 58 55 52 50 49 49 48 49
45 45 45 45 45 45 46 46 46 46 46 47 47 47 48 47 47 49 47 48 48 50 52 51 52 52 51 51 52 55 56 54 55 55 54 55 57 57 57 56 55 58 53 49 49 49 48 48 48 48 49 50 53 59 64 60 54 51 50 49 49 49 49

ECMWFFLT1_sfc_dewp_087.txt.gz
Dewpoint
63 64 64 64 65 66 68 69 67 66 67 68 69 66 59 61 65 67 69 69 71 70 72 73 72 73 71 72 72 73 72 73 74 72 73 72 73 73 73 74 74 73 73 73 73 73 74 75 75 74 75 75 76 77 77 76 76 77 77 78 78 79 76
61 63 65 66 67 68 69 68 68 69 68 69 69 67 67 68 69 69 71 69 71 70 71 73 73 73 72 72 73 73 72 73 74 74 73 73 73 73 73 73 73 74 73 73 73 73 74 74 74 74 75 75 75 77 77 77 77 77 77 78 77 76 77
63 63 64 66 66 66 69 70 68 68 68 69 69 69 69 69 69 70 70 70 71 72 71 73 73 73 73 72 73 73 73 73 73 73 72 72 72 72 72 72 73 73 73 73 73 73 74 74 74 74 75 74 75 76 77 77 77 77 78 77 77 76 77
62 65 67 68 69 68 68 70 68 69 69 71 72 71 69 69 69 70 71 70 71 72 71 72 73 73 73 73 72 73 73 73 73 72 71 71 72 70 71 71 72 72 73 72 74 73 73 73 74 74 77 74 74 75 76 76 76 77 77 77 77 76 76
66 66 67 68 68 69 70 69 69 69 71 72 70 71 70 70 70 71 72 72 71 72 73 72 72 73 73 73 72 73 73 73 72 72 71 71 71 70 69 70 71 72 72 72 72 73 72 73 73 74 75 74 74 75 76 76 75 77 76 76 76 76 76
65 65 66 67 68 69 70 70 70 70 70 71 71 70 71 71 71 71 72 72 73 72 71 71 71 72 72 72 71 72 72 73 73 72 71 71 70 69 69 69 69 69 71 71 72 72 73 73 73 75 74 73 74 73 74 75 75 76 76 76 76 76 76
60 63 66 66 68 69 70 70 70 72 71 70 70 70 70 70 70 71 71 72 72 72 71 70 70 71 72 72 71 71 72 72 72 72 71 71 70 68 68 68 69 68 70 70 71 71 73 72 72 73 73 73 73 73 73 73 74 75 75 76 76 76 75
58 59 64 66 68 68 68 72 71 72 72 73 72 71 70 70 71 72 72 71 71 71 71 70 70 69 71 72 71 71 71 71 72 72 71 70 70 68 68 68 69 67 69 69 70 70 71 72 72 72 72 71 71 72 72 73 73 74 74 75 76 75 76
58 59 59 60 60 63 68 70 71 71 71 71 72 72 73 72 71 72 72 72 71 70 70 70 70 72 72 72 72 72 72 71 71 71 70 70 68 68 66 67 68 68 67 68 68 70 70 71 71 72 73 72 72 71 72 73 73 74 74 74 75 74 74
57 58 58 58 59 62 64 66 69 70 71 71 72 72 71 70 71 72 73 74 72 70 71 72 73 74 74 73 70 69 69 72 75 71 70 69 67 65 65 65 65 69 66 66 67 68 69 70 70 72 72 71 72 71 71 73 73 73 73 74 74 74 74
56 57 57 57 58 61 64 64 62 62 64 66 67 69 72 72 73 72 73 72 71 74 74 74 74 73 71 73 75 75 71 70 70 70 71 69 67 65 64 64 64 66 66 64 64 66 67 70 69 71 72 71 71 72 70 73 73 72 71 73 74 74 73
56 56 57 57 58 59 61 62 62 61 61 62 64 64 67 70 71 71 72 72 72 71 72 71 72 71 69 71 74 74 73 72 72 73 71 69 68 68 64 63 64 64 65 64 63 64 65 68 69 70 71 71 71 73 72 73 72 72 71 71 72 74 73
55 56 56 57 58 59 60 60 61 61 61 61 62 63 64 64 67 70 70 71 72 72 72 71 72 72 71 72 73 73 73 74 72 72 72 70 69 69 68 67 63 64 64 64 63 63 64 65 68 70 70 71 70 71 72 72 73 73 72 71 71 72 73
57 56 58 58 57 57 58 58 60 61 60 60 61 61 63 64 65 69 70 70 71 72 72 72 72 73 73 74 73 73 73 74 74 74 73 71 71 70 69 70 70 63 64 65 63 62 63 64 66 69 70 70 70 70 71 72 72 73 73 72 71 71 71
53 54 56 57 58 58 58 58 59 60 61 60 60 61 63 64 65 67 69 69 70 71 72 72 72 72 72 72 72 72 73 73 73 74 73 73 71 71 70 71 72 71 70 66 64 64 63 63 65 66 69 70 70 70 70 70 71 71 72 72 71 71 71
48 50 52 54 56 55 56 58 58 59 60 59 60 62 62 63 65 66 68 69 69 70 72 72 71 72 72 72 72 73 74 74 73 74 74 74 73 72 72 73 73 72 72 71 73 69 67 64 65 65 66 68 69 69 69 69 70 72 69 71 72 70 69
46 46 48 50 51 51 52 54 57 58 59 59 60 61 62 63 64 65 66 69 70 70 71 71 71 71 72 72 72 72 72 72 73 74 73 73 74 74 74 74 74 73 72 72 72 71 71 70 69 65 65 65 67 68 68 68 69 69 65 66 69 71 70
47 46 46 47 49 48 48 48 49 51 55 59 59 59 60 62 64 63 64 67 69 69 70 70 70 70 70 70 70 70 71 72 72 72 72 72 73 74 74 74 74 73 73 73 73 72 72 71 71 71 70 66 65 66 68 68 68 64 63 64 64 69 71
46 46 46 47 47 50 50 48 47 50 51 51 54 60 61 62 63 63 63 64 68 69 68 68 69 69 69 69 69 70 70 71 71 72 72 72 73 75 74 74 74 74 73 73 72 73 72 72 71 71 71 71 71 67 66 67 65 63 62 63 63 63 68
44 44 45 45 45 47 51 54 51 50 52 53 53 52 58 62 60 61 64 65 66 66 66 67 68 69 69 69 69 70 70 71 71 72 72 73 73 73 74 73 73 74 74 74 74 73 73 73 72 71 71 71 71 71 70 68 67 61 60 60 61 62 65
45 46 45 45 46 46 49 49 52 52 49 50 51 50 50 51 59 62 64 63 63 63 65 65 66 66 67 68 69 69 69 70 70 71 71 72 74 73 73 73 73 74 74 74 74 73 73 73 73 72 72 71 70 70 70 69 66 62 59 57 57 60 63
44 45 45 45 46 47 48 47 48 48 50 52 47 50 50 49 50 50 55 61 60 60 61 62 63 64 64 65 66 67 69 69 69 70 70 72 72 72 72 72 73 73 74 74 74 74 75 74 73 72 72 71 71 70 70 70 65 61 60 56 55 58 63
45 45 46 46 45 46 49 49 49 50 48 45 44 49 52 54 53 54 54 56 60 59 59 61 61 62 63 63 62 64 65 68 68 69 70 70 71 71 71 71 72 72 73 73 73 73 72 73 72 72 72 71 72 71 71 71 64 60 59 59 58 60 63
43 44 44 44 45 45 49 49 48 49 45 45 46 47 48 52 54 54 54 55 57 56 55 55 56 59 60 62 64 63 63 65 65 65 66 68 70 70 71 72 72 72 73 72 72 72 71 71 71 72 72 72 71 70 70 70 65 59 56 59 59 61 63
41 42 43 42 42 44 47 50 52 47 47 46 46 46 48 52 53 54 54 55 53 52 52 53 55 56 57 57 59 64 65 64 66 64 64 65 66 70 71 71 70 71 72 72 72 72 73 73 73 72 73 72 72 75 73 71 69 62 61 58 59 63 68
42 42 41 42 43 47 51 50 46 44 43 44 49 45 47 51 54 58 56 56 54 53 55 57 58 57 58 59 56 59 62 64 64 64 65 64 64 67 69 70 70 71 72 73 73 73 73 73 73 72 72 72 73 72 72 73 73 70 63 61 60 58 67
42 42 41 43 48 53 46 45 45 43 42 48 49 47 50 53 53 56 57 56 55 55 55 57 58 58 59 58 58 59 60 61 63 65 65 65 65 67 67 69 69 68 69 71 72 73 73 73 72 73 73 73 73 72 72 74 73 71 61 59 58 55 61
43 41 42 51 53 51 46 45 45 43 43 45 46 48 49 53 55 56 56 55 54 53 55 56 56 57 57 58 59 61 60 59 62 62 63 65 67 66 66 66 66 65 66 69 70 70 71 72 72 72 72 73 74 73 73 74 73 73 65 60 56 53 56
44 44 45 45 46 48 46 45 46 46 45 46 47 48 48 51 55 55 56 54 54 53 54 55 57 58 58 60 60 59 58 59 59 60 61 61 63 63 64 66 67 67 68 67 68 69 69 70 71 71 71 72 72 72 73 73 74 70 71 61 56 54 51
46 46 44 45 46 47 48 47 49 49 48 49 50 50 51 52 54 55 56 53 55 56 56 57 57 59 59 59 57 56 57 58 59 59 59 61 62 62 62 63 65 67 67 68 68 68 68 69 70 71 71 71 71 72 73 73 74 72 68 69 63 60 53
46 46 46 47 47 51 48 47 47 48 48 49 50 51 53 52 53 56 54 54 57 56 56 57 58 58 58 57 56 57 57 58 58 59 59 58 57 56 57 57 61 63 64 66 66 66 67 68 69 70 71 71 71 71 72 72 73 73 71 67 66 60 58
48 47 47 46 48 50 49 47 48 47 48 49 49 50 53 52 52 54 53 55 56 55 58 57 58 58 58 58 57 56 55 55 54 54 55 55 55 56 56 54 55 55 56 60 64 64 66 67 69 69 69 69 69 70 71 71 72 72 73 73 72 70 63
49 49 49 49 49 50 49 48 47 49 49 51 50 51 51 51 53 53 54 55 53 53 55 56 57 57 56 54 55 55 56 56 55 55 56 55 56 55 57 57 57 57 60 62 65 66 65 64 67 65 64 63 62 62 62 68 71 72 72 71 71 71 70
49 49 49 49 50 51 49 49 48 49 50 51 51 52 52 52 51 52 53 54 52 54 55 56 57 55 54 54 54 55 56 56 60 59 56 55 54 53 52 54 58 56 56 56 58 60 61 61 61 60 59 57 57 54 56 63 66 68 70 69 68 67 67
48 49 48 49 49 51 49 50 50 50 50 51 51 51 51 51 51 51 50 52 52 53 53 55 54 54 52 51 52 51 55 54 52 52 52 53 53 53 54 55 54 54 55 54 57 58 57 56 56 58 56 55 54 55 56 58 59 65 64 66 61 63 64
47 48 48 48 49 48 48 48 47 49 50 50 50 51 51 50 50 52 50 51 51 52 52 54 54 53 51 51 52 52 53 54 52 53 55 54 54 54 54 58 53 52 54 54 58 56 52 51 55 56 55 55 55 57 57 58 60 60 55 51 49 50 50
48 47 48 47 47 47 48 49 48 51 50 50 51 51 50 51 50 50 50 50 51 51 52 52 53 53 52 53 51 52 53 54 53 53 54 54 53 54 55 54 54 49 49 51 53 50 46 45 45 46 48 56 54 56 55 55 53 51 50 50 50 48 48
48 47 48 47 46 48 49 49 50 49 49 49 50 49 50 49 49 49 49 50 50 52 51 52 52 51 51 51 52 53 54 53 53 55 55 54 53 53 54 54 55 55 51 49 49 48 46 45 45 44 46 47 50 54 56 54 52 50 50 50 49 49 48

ECMWFFLT1_sfc_dewp_090.txt.gz
Dewpoint
64 65 64 64 64 63 63 64 63 60 59 60 60 60 61 64 66 67 67 68 68 69 71 70 69 71 71 71 71 71 72 72 71 71 71 71 72 72 73 73 72 74 74 73 73 73 73 75 74 74 75 75 75 74 74 75 75 76 76 77 76 75 73
64 64 65 65 65 64 64 65 66 63 61 61 60 60 61 64 67 67 67 68 68 68 71 71 70 70 72 71 71 71 71 72 73 73 72 73 74 73 73 73 73 73 73 74 73 74 74 74 74 74 74 75 75 75 76 75 75 75 75 76 75 75 75
63 65 67 68 68 68 69 69 69 69 70 71 62 60 61 65 67 68 68 69 69 69 71 71 71 70 71 72 71 72 71 71 73 73 72 72 73 73 73 74 74 73 73 73 73 73 74 74 74 74 74 74 74 76 76 76 75 76 75 76 75 74 75
64 65 67 68 68 68 69 69 69 69 71 71 72 67 65 66 67 68 68 69 69 69 70 71 70 71 71 72 72 72 71 71 72 72 72 72 72 72 73 73 74 74 73 73 73 73 73 74 74 74 77 74 74 75 76 76 76 76 76 76 75 75 75
64 65 67 67 68 68 68 67 68 68 70 71 71 72 69 68 68 69 69 70 70 70 71 71 71 71 71 71 72 72 72 71 72 72 72 72 72 72 72 72 73 73 73 73 73 73 73 73 73 73 75 74 74 75 76 75 76 76 76 75 75 75 75
65 66 67 68 69 69 69 69 69 69 70 69 69 69 69 69 70 69 69 71 71 70 71 72 72 72 72 71 71 72 72 72 72 72 72 71 72 70 71 71 71 72 72 72 73 73 73 73 73 73 73 74 73 75 75 75 75 76 75 75 75 75 75
64 65 66 67 66 68 69 68 69 69 71 69 68 69 71 71 70 70 70 70 72 71 71 72 72 72 72 72 71 72 72 72 72 72 71 71 71 70 70 70 71 71 72 72 72 73 72 73 72 72 73 73 73 74 74 75 75 75 75 75 74 75 75
58 59 61 62 66 68 69 70 72 72 72 72 71 71 70 71 71 71 71 71 70 72 72 72 72 73 73 72 72 71 72 72 72 72 71 70 70 70 69 69 70 70 71 71 71 71 72 72 72 73 73 73 73 73 73 74 74 75 75 75 74 75 76
58 58 60 61 63 65 66 67 71 70 71 71 70 70 71 71 71 71 71 72 71 71 71 72 71 71 71 71 72 72 72 72 72 72 71 70 70 70 69 68 69 69 69 70 70 71 72 72 72 73 73 73 73 73 73 73 73 74 74 75 75 74 75
57 57 58 60 63 64 64 65 67 69 69 69 70 70 70 70 70 71 71 71 71 72 72 72 72 71 70 71 71 70 71 72 72 72 71 70 70 70 69 68 68 69 68 69 69 70 71 72 72 72 73 72 72 72 72 73 73 73 74 74 74 74 74
57 57 58 59 60 62 63 64 64 65 68 69 69 69 70 71 71 71 72 72 71 71 72 72 72 71 71 72 71 72 71 70 71 71 71 71 70 69 69 68 67 68 67 67 68 69 70 71 72 72 72 72 72 72 71 72 73 72 73 73 74 74 74
56 57 58 58 59 60 62 62 63 63 65 66 68 69 70 71 71 71 71 71 72 71 71 72 72 71 70 70 72 72 71 70 69 69 71 70 68 68 67 67 66 66 68 67 66 67 69 70 71 71 72 72 71 71 71 71 72 72 72 72 73 73 73
57 58 58 58 58 59 61 61 62 62 63 65 66 67 68 69 70 71 71 71 72 72 72 72 71 70 69 69 72 71 70 70 69 70 71 71 69 68 69 69 69 67 65 67 65 65 66 68 70 71 71 72 71 71 72 71 72 72 72 72 72 73 73
59 58 58 59 59 59 60 61 61 62 62 64 65 67 68 69 70 70 71 71 71 71 72 71 71 71 70 70 71 71 70 71 71 72 72 72 72 70 70 71 72 72 71 69 66 64 64 66 68 69 70 71 71 71 71 72 72 72 72 71 71 72 73
56 58 58 58 58 58 59 60 61 62 62 63 64 65 66 68 69 70 70 71 71 72 72 73 73 72 73 72 72 72 71 71 73 73 72 72 72 71 70 71 72 72 71 72 69 65 64 64 66 68 69 69 70 70 71 71 71 72 72 71 71 70 70
54 56 56 56 57 56 58 59 60 61 62 63 63 64 66 67 68 68 69 70 71 70 71 72 72 72 72 72 73 73 72 72 72 72 72 71 71 71 71 72 72 72 72 72 72 71 67 65 65 66 68 69 69 69 69 69 70 72 70 71 71 71 70
51 52 52 51 51 54 55 57 60 59 60 61 62 64 65 66 67 68 69 70 70 70 71 71 71 71 71 71 72 72 72 72 73 73 72 72 72 72 72 73 73 72 71 72 72 71 72 69 64 64 65 68 69 69 69 69 69 68 65 67 69 71 70
48 48 48 48 49 49 51 54 56 59 60 61 61 62 63 64 66 67 68 68 68 69 70 70 69 69 69 70 70 70 71 71 71 71 72 72 73 73 73 74 73 72 71 72 72 72 72 71 70 70 68 66 67 68 69 69 69 64 64 64 65 69 71
46 47 47 48 49 49 49 49 51 54 57 59 59 61 61 63 65 65 67 68 68 69 68 69 69 69 69 69 70 70 70 70 70 71 71 72 72 73 73 73 73 73 72 72 72 72 72 71 71 71 71 71 71 69 68 68 67 64 63 63 63 63 69
45 45 45 46 48 49 51 52 51 50 53 56 59 60 61 63 64 64 65 65 66 66 67 67 68 68 68 69 69 69 70 70 71 71 71 72 73 72 72 72 72 73 73 73 73 72 72 73 71 71 70 71 71 71 71 70 66 63 61 61 61 62 64
45 46 45 45 45 46 49 51 50 50 50 51 53 57 59 59 62 63 62 62 63 64 64 64 64 65 66 67 68 69 69 69 70 70 71 71 71 71 71 72 72 73 74 74 74 73 72 73 72 72 72 72 71 70 70 68 62 61 59 58 59 60 62
45 45 44 45 46 47 48 48 49 47 49 53 50 52 53 53 55 57 62 61 61 61 62 63 63 62 63 63 65 66 68 68 69 69 70 71 71 70 71 71 71 71 72 73 73 73 74 73 73 72 72 72 71 71 69 68 61 61 59 57 56 58 63
46 46 46 46 45 46 49 49 46 47 48 48 51 53 54 54 55 56 57 58 56 56 56 57 58 59 61 62 63 64 65 66 66 67 66 68 70 70 70 71 70 71 72 71 72 72 72 72 72 72 72 72 72 71 70 68 63 60 59 57 56 60 63
46 46 45 44 45 47 48 46 45 48 47 49 51 52 53 53 55 55 55 55 55 55 56 55 55 56 57 56 57 61 63 64 64 64 65 65 67 69 69 71 71 70 72 71 71 72 72 72 72 72 72 71 71 72 71 69 66 58 56 57 57 63 64
42 42 44 45 46 45 46 49 49 48 49 48 51 53 54 54 55 55 55 56 55 56 56 55 56 56 56 56 57 58 61 62 64 63 63 64 65 67 69 69 68 69 70 71 72 72 72 72 72 73 72 73 73 72 72 72 67 55 57 56 56 62 67
43 45 46 47 47 46 47 48 46 47 47 48 51 53 53 53 55 58 56 55 55 55 56 56 57 57 56 56 58 59 60 59 61 62 64 64 64 65 67 68 68 68 69 70 72 71 72 73 72 72 72 73 72 72 71 72 72 70 60 57 56 58 69
44 45 46 46 48 52 45 45 45 46 47 49 50 52 55 55 54 55 56 54 53 54 54 54 56 57 56 57 58 57 56 56 58 59 59 61 64 66 67 67 67 67 67 68 69 70 69 70 72 71 71 72 72 73 72 72 73 72 64 59 56 55 60
46 47 49 54 54 51 46 47 48 48 48 49 50 51 53 55 55 55 53 52 53 54 53 54 55 57 57 58 57 57 56 57 58 60 60 60 61 61 62 64 65 66 66 66 68 68 69 70 71 71 70 71 71 72 72 73 73 73 68 62 56 54 53
45 45 45 45 47 51 48 48 48 48 49 50 50 51 52 55 56 55 53 52 53 55 55 57 57 57 58 58 57 57 57 58 58 59 59 60 61 60 59 60 61 63 66 66 66 67 68 68 69 71 70 70 70 71 72 72 73 71 72 66 58 54 52
46 46 46 47 48 49 51 49 49 49 49 50 51 51 52 54 56 56 54 52 55 55 57 57 57 57 57 58 56 57 57 57 58 57 57 58 58 57 56 56 56 58 60 64 65 66 66 67 68 69 70 70 70 70 72 69 71 71 69 69 62 53 52
46 46 47 48 49 51 49 48 49 49 49 49 50 52 52 52 54 55 53 53 57 56 56 57 57 57 56 54 54 55 55 55 56 56 57 57 57 57 58 57 57 57 56 58 60 63 64 65 67 67 69 69 69 70 70 70 71 72 70 67 66 59 54
47 47 47 47 48 48 48 48 49 49 49 48 50 51 53 52 52 53 52 55 55 54 55 57 57 57 55 54 54 54 54 54 55 56 56 56 56 57 58 56 58 57 57 56 56 58 60 60 65 63 65 66 66 65 63 63 65 67 70 72 72 69 60
46 47 47 48 50 50 48 48 49 50 52 50 50 51 52 51 51 52 53 53 52 52 55 56 55 55 53 52 52 53 54 54 56 54 53 54 53 53 55 56 56 55 57 56 55 55 57 56 58 57 57 59 60 60 59 57 61 65 67 69 69 68 67
46 47 48 49 50 50 48 47 48 50 52 51 49 51 51 50 50 51 50 50 51 51 53 55 54 53 51 51 52 53 54 55 55 54 53 53 54 53 53 55 56 55 55 55 54 55 55 55 56 55 56 56 56 55 56 57 57 61 63 65 67 67 65
46 47 47 47 48 48 47 49 49 50 51 49 49 50 50 49 50 51 50 50 50 51 51 54 55 55 51 51 51 51 54 55 52 52 53 52 52 53 53 54 54 54 54 55 56 57 56 54 54 57 55 55 55 55 55 55 56 58 58 64 60 62 63
46 46 47 47 48 48 49 51 49 51 50 48 49 50 50 49 50 50 50 50 50 51 52 53 53 51 51 51 51 51 52 53 51 51 54 52 51 51 51 54 52 51 54 54 58 55 50 50 53 54 53 53 54 55 55 54 55 54 49 48 48 48 48
45 45 44 46 45 45 47 49 51 51 49 48 50 49 50 50 49 48 49 50 50 51 52 51 53 52 51 53 51 53 54 53 52 52 52 52 52 52 53 52 52 49 49 51 53 49 46 45 45 46 49 56 53 54 52 52 49 46 45 45 46 46 46
44 44 46 48 45 48 49 49 49 48 48 48 49 47 48 49 49 49 50 51 51 51 51 52 52 51 51 51 52 54 55 54 54 54 54 53 52 53 54 53 53 54 49 48 48 48 47 46 45 45 46 47 49 50 52 50 47 46 45 45 44 44 44

ECMWFFLT1_sfc_dewp_093.txt.gz
Dewpoint
63 64 63 64 66 66 65 65 59 60 61 61 62 62 62 64 66 66 68 68 68 68 69 70 69 70 70 70 70 70 71 70 71 70 70 70 70 71 71 72 71 72 73 72 72 72 72 74 74 75 75 75 75 75 74 74 74 75 75 76 75 74 73
63 64 67 67 68 67 67 67 68 60 61 61 61 62 62 63 65 66 67 68 68 68 68 69 69 69 70 70 70 71 71 71 71 73 71 71 72 72 72 72 72 72 73 73 73 73 73 74 74 74 74 75 75 75 74 74 74 74 74 75 74 74 73
65 67 66 65 66 66 67 68 68 69 60 61 61 61 62 64 65 66 66 68 68 68 69 69 69 69 70 70 70 70 71 71 72 72 71 70 71 72 72 72 72 72 73 73 73 73 74 74 74 74 74 74 74 75 74 74 74 74 74 75 74 74 73
65 65 66 66 66 66 66 66 67 70 66 61 62 61 62 64 65 66 66 67 68 68 69 69 69 69 70 70 70 70 70 71 72 72 71 71 71 72 73 73 73 73 73 73 74 73 73 74 74 74 76 74 74 75 75 75 75 74 75 75 74 74 73
65 66 67 67 67 67 66 66 67 69 69 66 63 64 62 64 66 67 67 67 67 68 69 70 69 69 70 71 70 70 70 70 71 72 72 72 72 73 72 73 73 73 73 73 73 74 73 73 73 73 74 74 73 74 75 75 75 75 75 75 74 74 74
64 66 67 68 68 68 69 68 68 69 70 69 68 67 65 64 67 67 67 68 68 68 69 70 70 70 70 71 71 70 71 71 71 72 72 72 72 72 72 72 73 73 73 73 73 73 73 73 73 73 73 74 73 74 75 75 75 75 75 75 75 75 75
63 65 66 66 67 68 69 69 70 69 70 70 70 71 69 68 67 68 69 70 71 70 70 70 70 70 70 71 71 71 71 71 71 71 72 72 72 72 72 72 73 73 73 73 73 73 72 72 72 73 73 74 74 73 74 74 75 75 75 75 74 74 74
60 61 63 64 65 66 66 68 70 71 71 70 70 70 70 70 71 70 70 70 70 70 71 71 72 71 71 71 71 71 71 71 71 71 72 71 71 71 71 71 72 72 72 72 73 73 73 72 72 73 73 73 73 73 74 74 74 75 75 75 74 74 75
60 61 62 63 64 64 65 66 67 70 71 70 70 70 70 70 71 70 70 70 70 70 71 72 72 72 72 72 71 71 72 72 72 72 71 71 70 70 70 70 70 71 71 71 72 72 72 72 72 72 72 73 73 73 73 74 74 74 74 74 74 74 74
59 59 60 61 63 62 63 65 65 68 70 69 69 69 70 71 71 71 71 71 70 70 71 72 72 72 72 72 72 71 72 72 72 72 71 71 70 70 70 69 69 70 70 70 71 71 72 72 72 72 72 72 73 73 73 73 73 74 74 74 74 74 74
58 58 59 60 61 62 63 63 64 66 69 69 69 69 70 70 70 70 70 71 71 70 72 72 72 71 71 72 72 72 71 71 72 72 71 71 70 70 70 69 69 69 69 68 69 70 70 72 72 72 72 72 72 72 72 72 73 73 73 74 74 74 74
58 58 58 59 60 60 61 61 63 64 66 68 69 69 69 70 70 71 71 71 71 71 72 72 72 71 71 71 71 71 70 70 71 71 72 71 71 70 70 69 69 68 69 68 67 68 69 70 71 72 72 72 72 72 72 72 72 73 73 73 73 73 74
57 58 58 59 60 60 61 61 62 63 65 67 69 69 70 70 70 70 71 71 71 72 71 72 72 71 71 71 71 70 70 70 70 71 71 71 70 69 69 68 67 66 66 68 67 67 67 69 70 72 72 72 72 72 72 72 72 72 72 72 72 73 73
59 58 58 59 59 60 60 61 62 63 64 66 67 69 69 70 70 70 70 71 71 71 71 71 71 71 71 71 71 70 70 70 70 70 71 71 70 69 68 69 70 70 71 70 67 66 66 67 69 70 71 72 72 72 72 72 71 72 72 72 72 72 72
56 57 57 58 59 59 60 61 61 62 64 66 67 68 69 70 70 70 71 71 71 71 71 71 70 70 70 71 71 71 70 70 70 70 71 71 71 70 69 70 71 71 71 71 71 69 66 66 67 68 70 71 71 71 72 71 71 71 71 72 72 71 72
55 56 56 56 57 58 59 60 61 62 63 64 65 66 68 69 69 70 70 70 70 71 71 71 70 70 70 70 71 71 70 70 71 71 71 70 70 70 70 70 71 71 70 71 71 71 71 67 66 66 68 69 70 70 71 71 71 72 70 71 72 71 71
52 53 55 56 57 58 59 60 61 62 62 64 64 65 66 67 68 69 69 69 70 70 70 71 71 71 71 71 71 71 71 71 71 71 70 70 70 69 70 71 72 71 70 70 70 70 71 71 66 64 65 67 68 69 69 70 70 69 66 66 68 72 71
49 50 52 53 55 57 58 59 59 60 62 62 63 64 65 66 67 68 68 68 68 69 70 70 69 69 69 70 70 70 70 71 71 71 71 71 71 70 70 71 72 71 70 71 71 71 71 70 69 66 65 65 67 68 68 69 69 65 64 65 65 69 72
48 48 48 50 52 54 56 57 58 61 61 61 62 63 64 66 66 66 67 67 68 69 68 69 69 69 69 69 69 70 71 70 70 70 71 71 72 73 72 72 71 71 71 71 71 71 70 70 70 69 70 67 66 66 68 69 67 64 63 63 63 64 69
46 46 47 47 48 49 51 54 56 58 60 61 61 63 64 65 64 65 66 67 67 66 67 67 67 67 67 67 68 69 69 70 71 71 71 71 72 72 72 72 71 72 72 72 72 71 71 71 70 70 69 70 69 68 68 68 68 64 62 62 61 62 65
45 46 45 46 47 48 49 50 52 54 56 59 60 59 58 59 61 62 62 63 62 63 64 64 64 65 66 66 66 67 68 69 69 69 70 70 70 70 70 71 71 72 73 73 72 71 71 71 71 71 72 71 71 70 71 68 61 60 60 60 59 60 63
45 45 45 46 48 49 48 47 49 51 53 55 54 55 55 56 58 59 59 59 57 57 57 58 60 61 62 63 65 65 65 65 66 67 68 70 70 70 70 70 70 70 72 72 72 72 72 72 72 71 70 71 71 71 70 69 60 59 59 58 58 60 65
45 45 46 47 46 47 48 49 50 52 53 52 53 54 55 56 55 55 55 56 57 56 56 56 57 57 58 60 61 64 65 65 65 65 66 67 68 68 69 69 68 69 70 70 70 71 71 71 71 71 71 71 71 71 70 69 63 58 57 57 57 61 64
45 45 45 45 47 48 49 49 51 53 52 53 54 54 55 55 56 56 56 56 56 55 55 57 56 56 57 57 59 59 61 63 64 65 66 66 66 67 67 67 68 68 70 70 71 71 71 71 71 71 72 71 71 72 71 70 67 59 58 57 58 63 64
44 44 45 45 47 48 50 51 51 52 53 52 53 54 56 55 54 54 54 55 54 53 54 55 56 56 56 57 58 58 58 59 60 60 61 62 64 66 68 67 67 66 67 69 70 70 71 72 71 72 71 72 73 73 72 71 69 61 58 58 57 62 66
44 44 45 46 47 48 50 52 50 50 50 52 53 54 54 54 55 56 54 53 53 53 54 55 56 56 57 57 56 57 58 58 60 60 59 59 60 62 65 68 68 68 68 68 69 69 70 71 71 71 71 71 71 71 71 72 71 69 60 57 57 57 65
45 46 47 48 50 54 48 49 49 49 50 52 53 54 54 53 53 54 55 54 54 55 54 56 57 57 57 56 56 56 57 58 59 59 58 60 60 61 61 62 62 64 66 67 68 69 68 70 70 69 69 70 71 72 72 72 71 71 64 58 55 54 58
49 50 51 54 54 51 48 49 49 50 50 51 53 55 54 53 54 54 53 53 54 55 56 57 56 56 56 56 56 56 56 57 58 59 59 60 59 57 57 57 58 59 61 64 66 67 67 67 69 69 69 70 70 71 69 64 61 64 60 56 56 57 54
45 47 48 48 50 52 49 49 49 49 50 51 51 53 54 54 54 54 53 52 54 55 57 57 56 55 55 55 55 56 56 57 57 57 58 58 58 57 56 57 57 58 59 60 63 65 66 67 68 69 69 68 69 70 66 63 61 62 65 62 59 57 57
47 48 48 49 49 50 52 49 49 49 50 50 52 52 53 54 55 55 54 52 55 55 57 56 56 54 54 55 54 54 55 57 58 56 56 56 57 57 56 56 57 57 57 58 59 60 61 63 65 67 69 68 69 69 66 66 67 67 65 66 62 59 56
47 48 48 49 49 52 50 48 48 48 49 50 51 52 52 52 53 53 52 51 54 55 54 54 55 54 52 52 52 54 54 55 55 54 55 54 55 55 56 55 55 55 55 56 55 56 57 58 60 61 63 63 64 65 65 64 65 64 64 63 65 62 58
47 48 48 48 49 50 49 49 48 48 49 49 50 50 52 50 50 50 50 52 53 52 54 54 55 54 52 52 53 52 54 53 53 52 53 54 54 55 56 56 55 56 55 55 55 56 56 56 57 57 58 60 60 61 60 60 60 60 63 66 65 65 63
46 47 47 48 50 50 48 49 49 50 50 49 49 49 50 50 51 51 51 51 50 51 53 55 55 54 52 51 51 52 54 52 53 52 52 52 52 52 54 56 54 54 56 55 54 55 56 55 56 56 56 57 57 57 58 57 58 60 61 62 62 63 64
47 47 48 48 49 48 47 48 49 49 49 49 48 49 49 49 49 50 49 49 50 51 53 55 54 51 50 50 50 52 54 53 55 54 51 51 52 51 50 53 54 54 54 54 55 55 53 53 55 55 54 54 54 54 55 56 55 57 58 59 59 58 57
47 47 47 46 47 47 46 49 50 49 49 48 48 48 48 48 49 49 49 49 50 51 53 54 54 53 50 51 50 51 55 55 52 52 53 52 52 52 51 53 53 53 54 54 57 56 52 52 53 55 53 53 53 53 53 53 53 55 54 57 51 52 52
46 45 45 46 48 47 49 50 49 49 49 47 48 49 49 48 48 49 49 50 51 52 53 54 53 51 51 52 51 54 55 54 53 53 54 52 52 52 53 56 52 51 53 53 57 54 49 50 52 52 52 51 52 54 54 53 53 52 47 45 44 44 44
45 45 45 46 46 46 48 48 50 49 48 47 49 49 49 49 48 49 50 51 51 51 51 52 52 51 51 53 52 55 55 54 53 53 53 52 52 53 54 53 53 49 49 50 52 49 45 44 44 45 48 54 52 52 51 51 48 45 44 43 43 43 42
44 44 46 46 46 49 49 49 48 47 47 46 47 47 47 49 49 49 50 51 51 51 51 51 51 50 50 51 52 54 55 52 52 52 52 52 52 52 53 52 52 51 48 47 48 47 46 45 44 43 44 45 49 50 51 50 46 44 43 43 43 43 42

ECMWFFLT1_sfc_dewp_096.txt.gz
Dewpoint
62 64 64 67 65 64 60 60 61 62 63 63 63 63 63 65 67 68 68 69 69 69 70 70 69 70 71 71 71 71 71 71 71 71 71 71 71 71 72 72 72 73 73 73 73 73 73 74 74 75 76 76 76 76 76 76 76 76 76 77 75 76 75
61 62 64 67 66 66 66 63 61 62 63 63 63 64 63 65 66 67 68 69 69 69 69 70 70 69 70 71 71 71 71 71 72 72 71 72 72 72 72 72 72 72 73 73 74 74 74 74 74 75 75 76 76 76 76 76 76 76 76 76 76 76 75
62 61 63 65 65 65 67 67 65 62 62 63 63 63 63 65 66 67 68 69 69 69 69 70 70 69 70 70 71 70 71 71 71 72 71 70 71 71 72 72 72 72 73 73 74 73 74 74 75 75 75 75 75 76 76 75 76 75 76 76 76 76 75
63 62 63 63 64 66 66 66 68 66 63 63 63 63 64 65 66 67 68 69 68 68 69 69 70 69 69 70 70 71 71 71 71 71 71 71 71 72 72 73 73 73 73 73 74 74 73 74 74 75 76 75 75 75 76 76 75 75 75 76 76 76 76
66 66 65 65 66 66 66 66 68 70 69 64 64 65 65 65 66 67 67 68 69 68 68 69 69 69 70 70 70 70 71 71 71 71 72 71 72 72 72 72 73 73 73 73 74 75 75 75 74 74 75 75 75 75 76 76 75 76 76 76 76 76 76
66 66 66 66 67 67 67 67 68 69 69 67 64 64 64 64 66 66 67 68 69 69 69 69 69 70 69 70 70 70 71 71 72 72 72 72 72 72 72 72 73 73 73 73 74 74 74 74 74 74 74 74 74 74 75 75 75 75 76 76 76 76 76
66 66 66 66 67 67 68 68 68 68 70 71 68 65 65 64 65 66 66 67 68 69 69 69 69 69 69 70 70 70 70 70 71 72 72 72 72 72 72 73 73 73 73 74 74 74 74 74 74 74 74 74 75 74 75 75 75 76 76 76 76 76 76
64 65 65 65 66 67 67 69 69 70 70 71 70 69 65 64 66 66 66 67 68 69 69 69 69 69 69 70 70 70 70 70 70 71 72 72 72 72 72 73 73 74 74 73 74 74 73 74 73 74 74 74 74 75 74 75 75 75 76 76 76 75 75
63 63 64 64 64 65 66 66 68 70 70 70 70 70 69 68 67 67 68 69 70 69 69 70 70 70 70 70 71 71 70 70 71 71 71 71 71 72 72 72 73 73 73 73 73 74 74 73 73 74 74 74 74 75 74 75 75 75 75 76 75 75 75
61 62 62 62 63 63 64 66 67 69 70 69 69 70 70 70 69 69 69 70 70 70 70 71 71 72 72 71 71 71 71 71 71 71 71 71 71 71 71 71 72 73 73 73 73 73 74 74 74 74 74 73 74 74 74 74 75 75 75 75 75 75 75
59 60 61 61 61 62 63 64 65 67 69 68 68 69 70 70 70 70 70 70 70 70 72 72 73 72 72 72 72 72 71 71 71 71 71 71 71 70 71 70 70 71 72 72 72 72 73 74 74 74 74 73 73 74 74 74 74 74 74 75 75 75 75
59 59 60 60 60 61 62 63 64 65 68 68 68 68 69 70 70 71 70 71 71 71 71 71 72 72 72 73 73 72 72 72 72 72 72 71 71 70 70 70 70 70 71 71 71 71 71 72 73 73 74 74 74 74 74 74 74 74 74 74 74 75 75
58 59 59 59 60 60 61 62 63 65 66 68 68 68 69 70 70 71 71 71 72 71 71 71 71 71 72 72 72 72 72 72 72 73 73 72 71 71 71 70 70 69 69 70 70 70 70 70 72 73 73 73 73 73 74 74 74 74 74 74 74 74 75
59 58 59 59 59 60 61 62 63 64 66 68 69 69 69 70 71 70 70 71 71 71 71 71 71 71 71 72 72 72 72 72 73 73 73 73 73 72 71 71 70 70 70 70 70 69 69 69 70 71 73 73 73 73 74 74 73 74 74 74 74 74 74
56 57 58 58 59 60 61 62 63 64 65 66 68 69 69 70 70 70 71 71 71 71 71 71 71 71 70 71 71 72 71 70 69 70 71 73 72 72 71 71 71 70 70 70 69 69 69 69 69 70 72 72 73 73 73 73 73 73 73 73 74 73 73
56 56 56 57 58 59 60 61 62 63 64 65 66 68 69 69 70 70 70 70 71 71 71 71 71 70 70 70 71 71 70 70 70 69 69 70 70 71 71 70 71 71 71 71 70 70 70 69 69 69 70 71 72 72 72 72 72 73 70 71 73 73 72
55 55 55 56 58 59 61 61 62 63 64 64 65 66 67 68 69 69 69 70 70 70 71 71 70 71 71 71 71 71 70 69 69 70 69 69 69 69 70 71 71 72 71 72 72 72 72 70 68 67 68 69 70 71 71 71 71 70 66 66 68 73 73
53 54 55 56 58 58 59 61 62 62 63 63 64 65 66 66 66 67 68 68 69 69 70 70 70 70 70 70 71 70 70 70 70 70 70 69 69 69 70 71 72 72 72 71 71 72 72 71 70 69 67 67 68 69 70 70 70 66 65 65 65 69 73
52 53 53 54 55 57 59 61 61 61 61 61 63 64 65 65 65 65 66 66 67 68 68 69 69 68 69 69 70 70 70 70 70 70 70 70 70 70 71 72 72 71 70 70 72 72 72 72 71 70 69 67 68 68 69 69 68 64 64 64 64 64 70
49 49 49 50 53 56 55 59 60 59 60 60 60 62 62 63 63 63 63 63 63 64 64 65 66 66 67 67 68 69 70 70 71 70 70 71 71 71 71 70 70 70 71 72 71 70 73 73 72 72 72 71 69 69 69 69 67 65 63 62 62 62 66
47 49 48 49 50 51 54 55 56 55 56 58 59 58 56 55 56 58 59 59 60 60 61 61 62 63 64 65 65 66 67 68 69 70 70 70 70 70 69 69 69 69 69 69 70 71 72 73 73 73 72 72 72 72 70 66 60 60 60 60 60 61 64
47 47 48 49 49 51 52 52 54 54 55 57 55 55 55 54 55 56 57 58 59 60 60 60 60 61 62 62 63 64 66 66 66 67 68 68 69 69 68 69 69 70 70 70 70 70 72 72 71 71 71 71 72 72 71 68 59 58 58 58 58 60 66
47 48 48 48 49 51 53 54 54 55 55 54 54 55 56 56 55 55 55 56 57 58 58 59 58 59 59 60 61 62 63 63 64 65 66 66 65 65 67 68 69 70 71 70 70 71 71 71 71 71 71 71 71 72 71 70 62 58 57 57 59 64 67
47 47 48 49 51 51 53 54 54 56 55 55 55 55 54 54 54 55 55 55 56 57 57 58 58 59 58 58 59 61 62 62 62 62 63 63 65 66 65 66 68 69 70 70 71 71 71 72 72 71 72 72 73 72 71 71 66 59 58 58 58 64 68
46 47 50 50 50 51 52 54 55 55 55 54 54 55 54 54 54 54 55 55 55 55 56 57 57 58 58 58 57 59 60 61 62 61 61 62 63 64 66 67 66 66 68 69 68 68 70 71 71 71 71 72 73 72 71 71 69 59 57 57 56 64 69
47 48 49 50 51 52 54 55 54 53 53 53 54 54 53 54 56 57 55 55 55 55 56 57 57 56 56 56 57 58 59 60 61 61 61 60 62 63 64 64 65 67 68 67 66 67 68 71 70 69 71 72 71 68 65 66 65 62 55 54 56 57 68
47 48 49 50 52 54 51 51 52 52 53 54 55 54 54 54 54 55 56 55 55 56 56 56 56 56 56 56 56 57 58 58 59 59 59 59 60 60 60 62 63 64 65 68 68 68 67 69 69 69 70 70 69 66 65 64 64 64 54 53 55 56 63
48 50 52 55 54 52 50 50 51 51 51 53 54 54 54 54 55 55 55 54 55 56 56 55 55 55 55 56 57 57 56 57 58 58 59 59 58 58 57 58 59 60 63 66 67 67 67 67 68 68 69 69 66 64 64 65 64 66 62 58 56 55 58
49 50 49 50 51 53 50 50 50 50 51 51 52 54 54 53 54 54 53 54 55 56 56 55 54 54 55 56 56 57 56 56 56 56 57 58 57 56 56 57 57 58 60 60 61 62 62 63 66 68 68 67 65 64 64 64 66 63 65 59 54 54 53
49 49 49 50 50 51 52 50 50 50 50 51 52 52 53 53 53 53 52 53 55 55 55 54 54 54 54 56 55 55 56 55 56 56 56 57 57 57 56 57 57 58 58 59 59 59 60 61 61 62 65 67 66 64 64 64 65 65 63 62 57 54 53
49 49 50 50 50 52 50 49 49 49 49 49 51 51 51 51 51 52 51 52 56 56 55 55 54 53 53 53 54 55 55 55 54 55 55 55 56 56 56 56 58 56 57 57 56 57 57 59 59 59 60 59 59 61 61 62 62 63 63 60 60 56 54
49 50 50 50 50 50 50 49 49 48 48 49 49 50 52 50 49 51 51 53 54 55 55 54 54 54 53 53 54 54 54 54 53 53 54 54 54 56 57 56 56 57 57 56 55 56 56 57 57 57 57 58 59 59 58 59 59 60 61 60 60 59 57
49 49 49 49 51 51 49 49 48 49 49 48 49 49 50 50 51 52 53 53 52 54 55 54 54 54 53 53 54 55 55 55 55 53 53 53 53 53 55 56 55 56 57 56 54 54 55 54 55 54 54 55 56 57 57 57 58 60 59 59 58 57 58
48 49 50 50 51 50 49 49 48 49 49 48 48 49 49 49 49 50 51 51 52 54 55 55 54 52 52 52 54 56 55 55 56 55 52 53 53 53 53 55 55 55 56 56 54 53 52 53 53 52 52 52 54 55 55 56 55 58 57 57 56 55 55
48 48 48 48 49 50 49 49 50 50 49 48 48 48 48 49 50 51 51 52 53 55 54 54 54 54 53 53 54 54 55 54 53 53 53 53 54 55 56 55 55 55 55 56 57 54 51 53 52 53 52 52 54 54 53 53 53 55 52 55 48 52 52
47 47 47 48 49 49 51 51 49 49 49 48 48 49 49 49 50 51 52 53 53 54 55 54 53 52 52 54 54 53 52 52 52 52 53 52 53 54 54 55 51 52 54 52 56 53 49 49 51 51 51 52 52 54 52 52 54 52 45 43 42 42 43
47 46 47 48 48 49 49 49 51 50 49 49 51 50 50 50 50 51 51 52 52 52 53 53 53 52 52 54 53 52 52 52 51 52 53 52 52 53 54 53 54 48 47 49 51 48 44 44 44 45 48 54 52 53 51 50 48 45 42 42 42 42 42
47 46 47 48 47 48 49 50 49 48 49 48 50 49 50 50 50 50 50 51 52 52 52 52 52 52 52 53 53 53 52 52 52 52 52 53 53 54 54 53 53 54 49 47 47 46 44 43 43 42 43 45 48 51 54 50 46 43 42 42 42 42 41

ECMWFFLT1_sfc_dewp_099.txt.gz
Dewpoint
64 66 68 65 61 60 61 62 64 65 66 67 67 66 66 67 69 71 70 72 72 73 73 74 74 74 74 74 74 74 74 74 74 73 73 73 73 74 73 72 73 75 73 72 73 74 75 76 75 75 76 76 75 76 77 77 77 76 77 78 77 77 76
64 66 68 67 62 61 62 64 65 66 66 66 67 67 66 67 69 69 70 72 72 72 73 73 74 74 74 74 74 75 75 74 74 75 74 75 75 75 73 74 74 75 76 75 75 76 76 75 75 75 75 75 75 76 76 77 77 77 77 78 77 76 76
63 64 66 68 67 67 64 63 64 65 66 65 66 66 66 69 70 71 71 71 72 72 72 72 74 73 74 74 74 74 74 74 74 73 73 72 73 71 73 74 74 73 73 75 76 74 75 75 76 76 75 75 74 76 77 77 77 77 77 78 77 75 77
63 64 65 68 68 68 67 64 65 65 65 65 66 65 67 70 70 71 72 72 72 71 72 71 72 72 73 74 74 74 74 74 74 72 71 71 72 72 73 74 74 74 74 73 73 74 73 75 75 76 76 76 76 75 76 76 76 76 77 78 76 76 77
64 65 65 66 68 68 70 67 66 66 65 64 67 67 68 68 69 70 71 72 72 71 70 70 70 70 72 73 72 72 73 73 73 73 72 72 73 73 73 72 72 73 73 73 75 76 76 76 74 76 76 77 75 76 76 77 76 77 78 78 76 75 74
63 64 64 65 68 68 68 69 71 69 66 65 66 68 66 66 68 68 69 71 72 72 72 72 71 71 71 71 71 71 73 73 74 74 73 74 74 72 72 73 72 73 72 73 74 74 75 75 74 75 74 73 73 73 74 75 75 76 77 77 76 74 73
63 63 64 64 67 68 68 68 69 71 72 69 66 66 67 66 67 67 68 68 70 71 71 70 70 71 71 71 71 72 72 72 73 72 72 72 72 72 73 73 74 72 72 74 74 74 74 75 75 76 75 73 74 73 75 76 75 76 77 77 76 76 76
64 64 64 65 65 65 68 69 69 71 71 72 71 67 67 66 67 67 67 67 67 69 70 70 69 70 71 71 71 71 71 71 71 72 72 71 72 72 72 73 73 74 75 73 74 75 73 75 74 75 75 74 75 75 75 76 77 75 75 76 75 75 73
65 65 65 64 65 65 67 69 69 70 70 71 71 70 68 67 68 67 69 69 70 71 71 71 70 70 72 71 71 71 71 71 71 72 72 70 70 70 69 71 72 74 73 71 71 74 74 74 73 76 76 75 75 77 76 77 75 75 75 75 76 75 74
65 65 65 65 66 66 68 69 70 69 69 70 70 71 70 70 69 69 70 70 71 71 72 72 71 72 73 73 72 70 70 71 71 69 70 69 69 69 69 69 70 73 72 71 70 72 74 74 74 76 77 76 76 77 76 76 75 75 75 76 75 75 75
62 63 64 64 65 66 67 68 68 69 69 70 69 70 70 70 70 69 69 70 70 71 72 73 73 73 72 72 73 72 70 70 69 69 69 69 68 68 69 69 69 71 70 70 69 71 73 75 76 76 76 74 75 76 76 76 76 76 75 74 74 75 74
61 62 62 63 64 65 66 67 69 69 70 69 70 70 70 70 71 70 70 70 71 71 73 73 74 74 73 72 71 73 72 71 70 69 70 69 68 68 68 68 69 69 70 70 70 72 71 73 74 75 76 76 75 75 76 76 76 77 76 74 73 74 74
61 61 62 62 64 64 65 66 67 67 69 69 69 70 71 71 72 72 72 71 72 72 73 74 74 74 74 72 72 73 73 73 73 73 72 71 69 69 69 69 69 69 69 70 70 71 70 71 73 75 75 76 75 74 75 76 75 77 77 76 75 75 75
61 61 61 62 63 63 64 64 65 66 67 68 69 70 70 70 71 71 72 72 72 74 73 73 73 74 74 74 73 73 73 74 74 75 74 74 74 73 71 70 70 71 71 71 71 70 70 69 71 72 73 73 74 75 75 76 75 77 77 76 75 75 75
59 60 61 61 62 63 63 64 65 66 66 68 69 69 70 70 71 72 72 72 72 73 73 74 74 73 73 74 75 75 74 75 75 76 76 75 75 74 74 73 73 73 73 73 72 69 70 70 69 70 71 72 73 74 73 72 73 73 75 75 76 75 74
58 59 59 60 62 62 63 64 64 65 66 67 68 69 70 70 70 70 71 72 72 72 73 73 73 72 72 72 73 73 73 74 75 75 76 75 75 76 75 74 74 73 73 73 72 73 73 73 72 71 71 71 73 73 72 72 71 75 72 73 74 75 73
58 59 59 60 62 62 63 63 63 64 64 65 66 67 68 69 70 71 70 71 72 72 72 73 72 72 72 71 72 72 71 71 71 73 73 74 75 75 74 74 73 74 74 74 74 74 75 73 72 71 70 69 70 70 70 70 70 71 67 67 69 74 75
57 58 59 60 61 62 62 62 62 63 64 64 65 65 66 67 67 66 67 68 70 70 71 71 70 71 71 72 72 72 71 71 70 71 71 72 72 73 74 74 74 74 74 73 73 74 73 72 72 72 70 68 69 68 68 69 71 67 66 66 66 70 74
57 58 59 60 61 62 61 61 61 62 63 62 63 63 64 65 64 64 65 66 67 68 70 70 70 70 70 71 72 72 72 71 71 70 71 71 71 71 72 73 73 73 73 72 73 73 73 74 73 73 72 70 71 69 68 68 69 66 66 65 65 65 71
56 57 58 59 60 59 59 60 60 59 59 59 60 61 61 62 62 62 64 64 65 65 65 65 66 66 66 68 70 72 71 71 71 70 70 71 71 71 71 71 71 73 74 73 73 73 72 71 73 73 74 73 72 72 70 69 66 64 65 64 63 64 67
56 58 59 58 58 57 58 59 59 58 57 57 57 59 59 60 61 61 61 61 62 63 63 63 63 63 64 65 66 68 71 71 70 71 71 71 70 71 71 72 71 71 73 74 74 73 74 73 73 73 73 72 71 71 69 66 60 60 60 62 62 63 66
55 55 55 56 57 58 58 56 55 54 55 56 55 56 56 56 57 57 58 59 60 61 61 61 62 62 63 63 64 64 65 67 69 70 71 71 70 70 70 71 71 71 72 72 73 73 73 72 73 73 72 73 73 72 70 68 59 59 59 60 60 63 68
52 52 53 55 55 56 57 55 55 55 55 54 54 55 57 57 57 57 56 57 58 60 59 60 60 61 62 62 63 63 64 64 65 66 67 69 70 70 70 70 70 71 72 71 73 72 71 71 71 72 71 72 72 72 71 70 62 58 58 59 61 66 71
51 53 53 54 56 56 56 55 54 54 52 54 54 55 56 57 58 57 57 57 57 58 59 59 60 61 62 62 62 63 63 64 64 64 65 66 67 68 69 70 70 71 72 72 72 73 73 73 72 71 71 71 72 70 70 65 60 56 56 57 60 69 73
50 51 53 54 55 55 55 55 55 54 55 54 54 56 56 55 55 54 55 55 54 55 56 57 58 59 60 60 60 61 63 64 63 63 64 64 65 66 67 68 68 68 69 69 70 71 72 72 71 71 72 72 71 70 67 64 63 56 55 55 56 68 73
51 52 53 54 56 56 57 58 56 53 53 53 55 55 56 55 55 57 55 54 53 54 55 57 58 58 58 58 59 59 60 61 62 63 63 62 63 65 65 66 67 68 67 67 68 69 70 71 70 70 70 70 67 65 65 66 66 62 55 54 55 58 73
52 52 53 53 54 57 55 54 53 52 53 56 56 54 54 55 54 55 56 55 55 55 55 56 57 57 59 58 56 57 58 58 59 59 60 61 61 62 63 64 66 67 68 68 68 68 68 68 69 69 68 66 67 67 66 66 66 64 54 53 53 55 64
51 52 53 56 57 55 53 52 53 53 53 55 54 54 55 55 56 56 56 54 54 54 55 56 56 57 57 58 57 57 57 59 59 59 59 60 60 61 62 62 62 64 67 69 69 68 68 67 68 67 66 66 66 66 67 66 65 65 57 53 52 52 56
53 53 53 54 54 53 51 52 52 51 52 52 52 52 52 53 55 55 55 55 55 54 55 55 56 57 56 56 56 56 56 57 58 59 59 59 59 59 59 60 61 62 64 64 65 64 64 66 67 67 65 65 64 65 64 65 64 62 62 56 51 51 52
54 53 52 51 51 51 52 52 52 51 52 52 54 54 54 54 55 55 55 56 57 55 55 55 56 57 56 56 55 55 55 56 58 58 58 59 60 59 59 59 59 61 61 61 62 62 63 64 65 65 63 62 63 63 63 64 65 62 61 60 54 51 50
52 52 51 51 50 53 51 50 50 49 50 50 53 54 55 54 54 54 55 56 57 56 55 55 55 55 55 55 55 56 55 56 57 58 58 58 58 59 59 59 58 59 60 60 59 60 60 60 60 60 61 60 60 61 61 62 63 62 60 59 59 54 52
53 53 52 52 53 52 51 49 49 48 48 49 49 51 53 52 53 54 55 56 56 55 55 56 56 56 56 54 55 55 54 53 52 54 56 55 56 57 57 58 57 56 56 55 55 58 58 58 57 57 58 59 60 60 59 59 59 60 61 60 59 58 56
54 53 53 53 53 52 50 49 48 48 48 49 49 49 50 52 52 55 56 56 52 53 55 56 55 56 56 55 54 56 56 54 51 51 52 53 52 52 54 56 55 56 55 55 53 54 55 55 55 55 54 55 56 57 58 58 58 58 58 60 59 59 59
54 54 55 54 54 54 52 50 49 49 49 50 51 51 50 50 51 53 53 51 51 52 55 55 54 53 54 53 54 54 54 54 55 53 50 52 52 52 52 54 55 54 54 53 52 52 51 53 53 52 52 53 54 57 57 56 55 56 55 55 56 57 58
54 54 54 54 54 54 54 53 51 52 50 50 51 52 53 54 53 53 54 53 53 54 54 53 54 54 53 52 52 52 54 52 51 51 51 53 55 55 55 54 53 55 54 54 54 53 51 52 51 52 51 53 54 55 54 54 54 55 49 56 49 53 54
53 53 53 54 54 55 55 54 53 52 51 51 52 52 52 52 53 53 51 53 54 53 53 53 51 50 49 49 48 47 49 50 50 52 52 50 52 53 53 54 51 53 54 52 54 51 47 48 52 51 53 53 53 54 52 52 54 49 43 42 41 42 43
53 53 53 53 53 54 54 54 53 52 52 52 52 52 53 52 51 53 52 52 52 51 53 53 52 50 49 49 47 47 48 48 49 51 53 53 51 51 51 50 55 46 46 51 52 47 43 43 44 46 48 54 54 54 51 50 47 43 42 41 41 41 41
55 54 54 53 53 54 54 53 52 51 52 52 52 53 53 52 53 53 50 52 51 52 52 52 52 51 50 50 50 51 51 49 51 51 51 51 52 53 53 51 52 53 50 48 48 47 45 44 43 44 45 46 49 54 56 52 47 42 42 42 42 41 41